     2.00           OBSERVATION DATA    G (GPS)             RINEX VERSION / TYPE
teqc 1999Jul15 UNAVCO Archive Ops 19990825 17:14:32UTC      PGM / RUN BY / DATE
Solaris 2.3|S-Sparc|cc SC3.0|=+|*Sparc                      COMMENT
BIT 2 OF LLI FLAGS DATA COLLECTED UNDER A/S CONDITION       COMMENT
JACK                                                        MARKER NAME
Wernicke, Brian/BradCaltech                                 OBSERVER / AGENCY
3526A11456 TRIMBLE 4000SSE NP 6.12; SP 2.12                 REC # / TYPE / VERS
0220024637 TR GEOD L1/L2 GP                                 ANT # / TYPE
 -2373189.0000 -4551039.0000  3776903.0000                  APPROX POSITION XYZ
        1.0056        0.0000        0.0000                  ANTENNA: DELTA H/E/N
     1     1                                                WAVELENGTH FACT L1/2
     7    L1    L2    C1    P2    P1    D1    D2            # / TYPES OF OBSERV
    30.0000                                                 INTERVAL
NOTICE: YOUR USE OF THIS FILE IMPLIES YOUR                  COMMENT
ACCEPTANCE OF THE UNAVCO DATA SHARING POLICY                COMMENT
READ THE POLICY AT:                                         COMMENT
http://www.unavco.ucar.edu/data/data_policy.html            COMMENT
AND FOLLOW THE POLICY OR DELETE THIS FILE.                  COMMENT
                                                            COMMENT
RINEX file created by UNAVCO GPS Archive.                   COMMENT
For more information contact archive@unavco.ucar.edu        COMMENT
Monument ID: EJQGFHRW-11084-1995a                           COMMENT
UNAVCO 4-char name: JACK                                    COMMENT
4-char name from Log or data file: JACK                     COMMENT
Monument location: 36.5317 -117.54 1919.673908              COMMENT
Original XYZ: -2373167.7965 -4551052.7264 3776904.4190      COMMENT
New XYZ position is based on association with SCEC monument COMMENT
E1G0A7O5+0011.                                              COMMENT
Visit ID: 28719 RawID: 12598                                COMMENT
Antenna height measured: 1.09                               COMMENT
Antenna height measured type: S                             COMMENT
Corrected antenna height validated? Y                       COMMENT
If Yes, then logsheet & data file values are identical      COMMENT
End of DB comments                                          COMMENT
SNR is mapped to RINEX snr flag value [1-9]                 COMMENT
L1: 3 -> 1; 8 -> 5; 40 -> 9                                 COMMENT
L2: 1 -> 1; 5 -> 5; 60 -> 9                                 COMMENT
  1996     8    31    18    35   30.0000000     GPS         TIME OF FIRST OBS
                                                            END OF HEADER
 96  8 31 18 35 30.0000000  0  6G 6G17G21G22G23G26
     58021.48056                  20969007.5634
     -2163.7194
    -11164.30857                  20696360.3444
       401.9534
    -75116.05155                  23835846.5234
      2770.8284
      4170.35655                  23581673.6334
      -170.6254
    -33481.70556                  21091283.1094
      1225.8134
      4961.63156                  22142438.6644
      -200.1724
 96  8 31 18 36  0.0000000  0  6G 6G17G21G22G23G26
    123421.70547     35750.41357  20981452.5314   20981454.2304
     -2196.1254      -1711.2664
    -22862.01447     -5707.92857  20694134.5634   20694136.6844
       378.0004        294.5454
   -157900.98445    -27886.90153  23820093.4144   23820096.9654
      2748.2974       2141.5304
      9812.01545      2003.48755  23582747.3674   23582750.8954
      -205.1724       -159.8744
    -69808.03746    -19741.59856  21084370.7034   21084373.2704
      1196.2344        932.1314
     11505.45246      3656.65656  22143683.8364   22143685.2544
      -236.0624       -183.9454
 96  8 31 18 36 30.0000000  0  7G28G 6G17G21G22G23G26
    -10046.95816     -7828.99416  25556893.293    25556892.305
      2007.250        1564.091
    189778.12246     87456.68546  20994080.1724   20994081.9774
     -2227.3594      -1735.6054
    -33855.87147    -14274.55046  20692043.2664   20692045.4694
       355.1884        276.7694
   -240028.38844    -91882.19743  23804464.8914   23804468.0784
      2727.1724       2125.0694
     16460.89345      7184.41143  23584012.9454   23584015.0784
      -237.6564       -185.1874
   -105271.22746    -47375.22846  21077622.6644   21077624.9264
      1168.1254        910.2274
     19119.72446      9589.89246  22145132.4614   22145134.1724
      -271.2974       -211.4004
 96  8 31 18 37  0.0000000  0  7G28G 6G17G21G22G23G26
    -69850.246 6    -54428.939 6  21348418.914    21348417.703
      1979.609        1542.553
    257051.67547    139877.64747  21006881.9844   21006883.7664
     -2257.5474      -1759.1274
    -44177.53847    -22317.38447  20690078.6174   20690080.7384
       332.8284        259.3474
                    -10830.59455  23788953.6564
      2706.6564
     24063.32045     13108.36744  23585459.7734   23585462.2704
      -269.2344       -209.7934
   -139892.91046    -74353.12446  21071033.9694   21071035.8674
      1139.8914        888.2264
     27776.30446     16335.27446  22146779.9924   22146781.2704
      -305.8284       -238.3084
 96  8 31 18 37 30.0000000  0  7G28G 6G17G21G22G23G26
   -128847.817 6   -100401.059 6  21337191.934    21337190.852
      1953.016        1521.830
    325199.79246    192980.08045  21019849.8594   21019851.6414
     -2286.1254      -1781.3964
    -53847.45347    -29852.37647  20688239.1334   20688241.0784
       311.3444        242.6064
                    -91745.12145  23773555.8524
      2686.9694
     32588.60045     19751.45745  23587082.3054   23587084.3094
      -299.4374       -233.3284
   -173687.34146   -100686.41246  21064603.0784   21064605.0004
      1112.3754        866.7864
     37450.08846     23873.31146  22148620.3524   22148622.5904
      -339.5624       -264.5944
 96  8 31 18 38  0.0000000  0  7G28G 6G17G21G22G23G26
   -187046.465 6   -145750.618 6  21326117.141    21326116.055
      1926.594        1501.242
    394206.73346    246751.71546  21032982.0394   21032983.9264
     -2314.7194      -1803.6774
    -62875.78847    -36887.42647  20686520.8134   20686522.9804
       290.2814        226.1934
   -172053.75445    -12475.90054  23758273.7114   23758277.1564
      2666.6724       2077.9264
     42004.45045     27088.49743  23588874.4454   23588877.1054
      -328.5624       -256.0234
   -206651.65046   -126372.86246  21058330.5164   21058332.5554
      1084.8914        845.3694
     48138.63646     32202.05446  22150654.3364   22150656.4694
      -373.3124       -290.8934
 96  8 31 18 38 30.0000000  0  7G28G 6G17G21G22G23G26
   -244436.116 6   -190469.820 6  21315196.313    21315195.031
      1899.438        1480.081
    464094.87547    301210.00246  21046281.0784   21046282.4024
     -2344.3594      -1826.7744
    -71258.05347    -43419.03147  20684925.4694   20684927.6604
       268.6564        209.3434
   -251741.25045    -74569.96045  23743110.1804   23743112.7704
      2645.8914       2061.7334
     52320.17345     35126.78545  23590837.5944   23590840.6414
      -359.1724       -279.8744
   -238764.86846   -151396.12846  21052219.2584   21052221.1564
      1055.9384        822.8084
     59852.16746     41329.51546  22152883.6414   22152885.2114
      -407.3914       -317.4474
 96  8 31 18 39  0.0000000  0  7G28G 6G17G21G22G23G26
   -301032.017 6   -234570.501 6  21304426.527    21304425.180
      1873.469        1459.846
    534844.71846    356339.72946  21059744.5234   21059746.1294
     -2372.4224      -1848.6404
    -79012.44847    -49461.41547  20683450.0864   20683452.2304
       248.2504        193.4424
   -330827.25045   -136195.38345  23728059.6724   23728064.0664
      2626.3594       2046.5144
     63537.51845     43867.53844  23592972.0164   23592973.7974
      -388.9534       -303.0804
   -270031.10246   -175759.39246  21046269.5944   21046271.7974
      1028.5474        801.4654
     72558.97246     51230.95846  22155302.3134   22155303.2734
      -440.0314       -342.8814
 96  8 31 18 39 30.0000000  0  7G28G 6G17G21G22G23G26
   -356846.820 6   -278062.542 6  21293805.262    21293804.258
      1847.156        1439.343
    606438.23946    412126.89346  21073367.8134   21073369.7114
     -2400.8914      -1870.8244
    -86160.99847    -55031.69847  20682089.7424   20682091.9224
       228.1254        177.7604
   -409322.23145   -197360.23945  23713123.5474   23713126.4064
      2606.2034       2030.8084
     75654.79045     53309.55844  23595277.5164   23595281.0084
      -419.1094       -326.5794
   -300495.61046   -199497.94046  21040472.2894   21040474.2704
      1002.1564        780.9014
     86257.40446     61905.06046  22157908.9774   22157909.7734
      -473.4694       -368.9374
 96  8 31 18 40  0.0000000  0  7G28G 6G17G21G22G23G26
   -411885.664 6   -320949.926 6  21283331.777    21283330.750
      1821.750        1419.545
    678877.24747    468572.86746  21087153.1954   21087154.7664
     -2428.7034      -1892.4964
    -92720.90347    -60143.29947  20680841.3364   20680843.5164
       208.8754        162.7604
   -487233.60845   -258070.34545  23698297.2734   23698299.7584
      2587.6254       2016.3314
     88659.53445     63443.12145  23597752.2034   23597754.1954
      -448.3124       -349.3344
   -330186.08446   -222633.35246  21034822.6334   21034824.3914
       976.9694        761.2744
    100939.77646     73345.87346  22160703.2584   22160704.5704
      -505.5474       -393.9334
 96  8 31 18 40 30.0000000  0  7G28G 6G17G21G22G23G26
   -466158.029 6   -363240.067 6  21273004.016    21273003.008
      1796.266        1399.688
    752146.40546    525665.70246  21101095.4304   21101097.0824
     -2456.0004      -1913.7664
    -98699.89147    -64802.23347  20679703.7974   20679705.8954
       189.4384        147.6144
   -564588.56445   -318346.87445  23683577.6564   23683580.2464
      2569.1564       2001.9404
    102551.35545     74267.91544  23600395.6174   23600399.1214
      -477.7974       -372.3094
   -359120.74346   -245179.81446  21029316.5394   21029318.6024
       951.9534        741.7824
    116573.18746     85527.76646  22163677.6414   22163678.8834
      -536.6564       -418.1744
 96  8 31 18 41  0.0000000  0  7G28G 6G17G21G22G23G26
   -519665.780 6   -404934.403 6  21262821.984    21262820.633
      1770.875        1379.903
    826232.25847    583394.93546  21115193.8674   21115195.6844
     -2483.2034      -1934.9634
   -104086.08647    -68999.25347  20678678.7894   20678681.0164
       169.6254        132.1754
   -641389.60745   -378191.81045  23668962.2504   23668965.8484
      2550.8134       1987.6464
    117319.31545     85775.42345  23603205.6564   23603207.8484
      -506.7034       -394.8344
   -387308.18347   -267144.02746  21023952.9304   21023954.9574
       927.2344        722.5204
    133138.19546     98435.58246  22166829.9224   22166831.4924
      -567.8284       -442.4634
 96  8 31 18 41 30.0000000  0  7G28G 6G17G21G22G23G26
   -572410.762 6   -446034.372 6  21252784.738    21252783.750
      1745.641        1360.239
    901140.31047    641764.82846  21129448.3914   21129449.9384
     -2510.5164      -1956.2464
   -108880.54247    -72735.18347  20677766.4224   20677768.6604
       150.2034        117.0414
   -717634.08545   -437603.03145  23654453.9384   23654456.5394
      2532.2664       1973.1944
    132955.40945     97959.36945  23606182.0634   23606185.2154
      -535.3914       -417.1874
   -414751.55747   -288528.45146  21018730.5634   21018732.4734
       902.2814        703.0764
    150634.54446    112069.10146  22170159.3364   22170161.2934
      -598.2034       -466.1324
 96  8 31 18 42  0.0000000  0  7G28G 6G17G21G22G23G26
   -624409.926 6   -486553.188 6  21242889.660    21242888.508
      1720.906        1340.966
    976855.81047    700763.89946  21143856.4534   21143857.9184
     -2537.0624      -1976.9324
   -113102.56447    -76025.05947  20676963.0784   20676965.4694
       131.1884        102.2244
   -793338.03645   -496593.07145  23640047.2274   23640050.0164
      2514.6564       1959.4724
    149430.66145    110797.23445  23609317.1334   23609319.9104
      -563.0944       -438.7744
   -441443.25246   -309327.15546  21013651.2114   21013653.2154
       877.1254        683.4744
    169017.71146    126393.68246  22173657.3444   22173658.4104
      -627.4694       -488.9374
 96  8 31 18 42 30.0000000  0  7G28G 6G17G21G22G23G26
   -675667.016 6   -526493.763 6  21233135.703    21233134.477
      1696.078        1321.619
   1053352.47847    760371.68246  21158413.4694   21158415.2274
     -2562.9064      -1997.0704
   -116752.66547    -78869.28647  20676268.7504   20676271.0004
       111.8754         87.1754
   -868510.52745   -555168.98745  23625742.7814   23625745.3954
      2496.5474       1945.3614
    166739.91745    124284.95245  23612611.1254   23612612.9414
      -591.0004       -460.5194
   -467381.78347   -329538.97346  21008715.3834   21008717.2934
       852.0474        663.9334
    188289.14846    141410.38946  22177324.4144   22177325.8094
      -657.6564       -512.4594
 96  8 31 18 43  0.0000000  0  7G28G 6G17G21G22G23G26
   -726181.227 6   -565855.473 6  21223523.121    21223522.102
      1671.594        1302.541
   1130628.31646    820586.60246  21173118.1804   21173120.0084
     -2588.6414      -2017.1234
   -119823.10147    -81261.81847  20675684.1254   20675686.2934
        93.0944         72.5414
   -943135.46245   -613318.24745  23611542.1884   23611544.9184
      2478.6094       1931.3844
    184881.76245    138421.44745  23616062.7424   23616065.5204
      -618.4064       -481.8754
   -492574.75447   -349169.83946  21003921.2344   21003923.1684
       827.6094        644.8904
    208479.06646    157142.80446  22181166.8594   22181168.1954
      -688.2814       -536.3234
 96  8 31 18 43 30.0000000  0  7G28G 6G17G21G22G23G26
   -775962.000 6   -604645.674 6  21214050.117    21214049.109
      1647.016        1283.389
   1208670.54747    881398.71346  21187969.6174   21187971.4344
     -2614.2664      -2037.0904
   -122342.24147    -83224.78247  20675204.7424   20675207.1094
        74.7974         58.2834
  -1017227.37745   -671052.14145  23597442.6174   23597445.4884
      2460.7814       1917.4924
    203840.50845    153194.49145  23619671.3754   23619673.4264
      -645.5314       -503.0114
   -517038.48046   -368232.46846  20999265.7114   20999267.6914
       803.1724        625.8484
    229581.56846    173586.31946  22185182.6024   22185183.7734
      -718.6724       -560.0044
 96  8 31 18 44  0.0000000  0  7G28G 6G17G21G22G23G26
   -825018.074 6   -642871.176 6  21204714.887    21204714.141
      1623.328        1264.931
   1287469.69747    942800.63546  21202964.6724   21202966.3244
     -2639.0164      -2056.3764
   -124323.89847    -84768.91947  20674827.8204   20674829.8714
        57.1724         44.5504
  -1090802.06045   -728383.02745  23583442.0314   23583444.6094
      2444.1724       1904.5504
    223594.71445    168587.37945  23623429.3204   23623431.6644
      -671.6414       -523.3564
   -540785.91846   -386736.94146  20994746.7974   20994748.6604
       780.0784        607.8534
    251593.92146    190738.80146  22189371.4844   22189372.5864
      -748.9694       -583.6124
 96  8 31 18 44 30.0000000  0  7G28G 6G17G21G22G23G26
   -873369.078 6   -680547.268 6  21195514.156    21195513.172
      1600.078        1246.814
   1367003.91146   1004775.32946  21218099.3914   21218101.1024
     -2663.4534      -2075.4184
   -125784.57847    -85907.10547  20674550.0164   20674552.1134
        40.2344         31.3514
  -1163884.05745   -785329.98645  23569535.0394   23569538.0744
      2427.8754       1891.8514
    244130.53845    184589.28944  23627337.7974   23627339.4144
      -697.5004       -543.5064
   -563857.80046   -404715.01046  20990356.5314   20990358.4414
       758.0164        590.6624
    274514.89546    208599.30546  22193733.0784   22193734.9414
      -779.0004       -607.0134
 96  8 31 18 45  0.0000000  0  7G28G 6G17G21G22G23G26
   -921011.189 6   -717670.978 6  21186448.078    21186447.172
      1576.547        1228.478
   1447289.87346   1067335.79846  21233377.3204   21233379.2664
     -2688.3124      -2094.7894
   -126737.84847    -86649.90047  20674368.2504   20674370.4534
        23.9534         18.6654
  -1236469.96845   -841890.39945  23555722.1724   23555724.2704
      2411.8754       1879.3834
    265449.22845    201201.25845  23631395.9224   23631398.5704
      -723.2504       -563.5714
   -586256.13146   -422168.23246  20986093.9064   20986095.6054
       735.7504        573.3124
    298334.37546    227159.94946  22198266.1804   22198267.9614
      -808.4224       -629.9394
 96  8 31 18 45 30.0000000  0  7G28G 6G17G21G22G23G26
   -967955.415 6   -754250.881 6  21177514.969    21177513.992
      1553.219        1210.300
   1528308.57746   1130467.24546  21248794.3524   21248796.4614
     -2712.8284      -2113.8924
   -127212.34447    -87019.63547  20674278.1174   20674280.4144
         7.7034          6.0024
  -1308593.90245   -898090.81845  23541998.0394   23542001.0514
      2396.4224       1867.3424
    287532.80145    218409.22645  23635597.2274   23635601.1884
      -748.8754       -583.5394
   -607999.39846   -439111.02246  20981956.5164   20981958.3794
       713.9694        556.3394
    323026.51446    246400.58446  22202964.5164   22202966.5434
      -837.6414       -652.7074
 96  8 31 18 46  0.0000000  0  7G28G 6G17G21G22G23G26
  -1014215.946 6   -790298.033 6  21168711.879    21168710.883
      1530.734        1192.780
   1610043.03246   1194156.40346  21264348.1644   21264349.8404
     -2736.0004      -2131.9484
   -127210.77947    -87018.40847  20674278.2114   20674280.5904
        -7.8594         -6.1244
  -1380263.74945   -953937.41645  23528360.2034   23528363.6134
      2381.5004       1855.7144
    310370.16245    236204.55845  23639943.0864   23639946.2034
      -773.7344       -602.9104
   -629110.80146   -455561.44546  20977939.0394   20977941.1254
       693.3914        540.3044
    348582.94346    266314.68846  22207827.4454   22207829.7194
      -866.0784       -674.8664
 96  8 31 18 46 30.0000000  0  7G28G 6G17G21G22G23G26
  -1059800.216 6   -825818.231 6  21160037.555    21160036.492
      1508.203        1175.223
   1692459.79546   1258377.23846  21280031.3834   21280033.3874
     -2758.4374      -2149.4324
   -126742.98547    -86653.88747  20674367.2664   20674369.5864
       -23.3594        -18.2024
  -1451483.05845  -1009432.95345  23514806.2274   23514809.1914
      2366.4694       1844.0024
    333956.56945    254583.58445  23644430.7894   23644434.5164
      -798.6254       -622.3054
   -649600.04947   -471527.07946  20974040.5474   20974042.6684
       672.4384        523.9774
    374982.58846    286885.84546  22212852.1414   22212853.6994
      -893.7974       -696.4654
 96  8 31 18 47  0.0000000  0  7G28G 6G17G21G22G23G26
  -1104710.722 6   -860813.419 6  21151491.395    21151490.305
      1486.063        1157.971
   1775544.02546   1323118.17546  21295842.0004   21295843.7934
     -2780.2344      -2166.4164
   -125812.77847    -85929.04547  20674544.1564   20674546.7704
       -38.4374        -29.9514
  -1522256.88645  -1064581.32845  23501338.5314   23501341.8954
      2352.0944       1832.8004
    358279.88545    273536.78144  23649059.3204   23649063.1294
      -822.5624       -640.9584
   -669455.06847   -486998.50846  20970262.2034   20970264.3364
       651.5004        507.6624
    402207.24646    308099.86846  22218032.4384   22218033.7734
      -921.0314       -717.6874
 96  8 31 18 47 30.0000000  0  7G28G 6G17G21G22G23G26
  -1148962.864 6   -895295.597 6  21143070.457    21143069.484
      1464.234        1140.962
   1859273.08846   1388361.56846  21311774.8204   21311776.8014
     -2801.5944      -2183.0604
   -124427.25647    -84849.41947  20674807.6414   20674810.0664
       -53.7974        -41.9204
  -1592600.74645  -1119394.70345  23487951.9304   23487955.4104
      2337.4694       1821.4044
    383310.93845    293041.49344  23653822.6254   23653825.1454
      -845.9844       -659.2094
   -688681.18646   -501979.88146  20966603.2974   20966605.4534
       630.2504        491.1044
    430247.54546    329949.44946  22223367.7974   22223369.7304
      -948.0624       -738.7504
 96  8 31 18 48  0.0000000  0  7G28G 6G17G21G22G23G26
  -1192563.899 6   -929270.421 6  21134773.531    21134772.508
      1442.656        1124.148
   1943633.15746   1454096.66346  21327828.2194   21327829.7544
     -2822.1724      -2199.0954
   -122592.83047    -83419.98647  20675157.1484   20675159.5634
       -68.3284        -53.2434
  -1662499.34245  -1173861.10345  23474650.8524   23474654.2274
      2322.7344       1809.9234
    409040.03845    313090.11143  23658718.9774   23658722.6804
      -869.2034       -677.3014
   -707267.24146   -516462.51046  20963066.7274   20963068.6954
       608.9224        474.4854
    459085.13946    352420.29346  22228855.9844   22228856.6884
      -974.1874       -759.1074
 96  8 31 18 48 30.0000000  0  7G28G 6G17G21G22G23G26
  -1235520.475 6   -962743.071 6  21126599.148    21126598.211
      1421.094        1107.346
   2028608.25746   1520311.00646  21343998.8754   21344000.9734
     -2843.0164      -2215.3374
   -120324.52447    -81652.47547  20675588.6174   20675590.8554
       -82.9374        -64.6274
  -1731968.34945  -1227992.73445  23461430.8984   23461434.8484
      2308.5474       1798.8684
    435461.88545    333678.56444  23663745.8984   23663750.1994
      -892.2194       -695.2354
   -725215.12646   -530447.85846  20959650.9844   20959652.9534
       587.5004        457.7924
    488695.92946    375493.64146  22234490.4304   22234492.2464
      -999.9224       -779.1604
 96  8 31 18 49  0.0000000  0  7G28G 6G17G21G22G23G26
  -1277836.005 6   -995716.206 6  21118546.867    21118545.813
      1400.125        1091.006
   2114208.82446   1587012.71846  21360287.7194   21360289.3714
     -2863.4534      -2231.2624
   -117627.69047    -79551.04247  20676102.1564   20676104.0314
       -96.6254        -75.2924
  -1801019.69345  -1281798.94445  23448291.0234   23448294.5984
      2295.0634       1788.3604
    462559.20545    354793.35643  23668903.3134   23668906.2894
      -914.0474       -712.2444
   -742527.35146   -543937.88446  20956356.7664   20956358.6054
       566.9224        441.7574
    519077.42046    399167.52346  22240272.4454   22240273.8524
     -1025.3444       -798.9694
 96  8 31 18 49 30.0000000  0  7G28G 6G17G21G22G23G26
  -1319521.179 6  -1028198.150 6  21110614.402    21110613.320
      1379.219        1074.716
   2200418.11646   1654188.75846  21376693.6644   21376695.3524
     -2883.5314      -2246.9074
   -114513.82047    -77124.64747  20676694.4384   20676696.6644
      -110.6414        -86.2134
  -1869664.69445  -1335288.51445  23435229.2034   23435232.4614
      2281.6094       1777.8774
    490321.31245    376426.12743  23674186.9064   23674190.2344
      -936.6254       -729.8384
   -759231.72046   -556954.25746  20953177.8054   20953179.7154
       547.0314        426.2584
    550217.63346    423432.62246  22246198.0164   22246199.9144
     -1050.3284       -818.4374
 96  8 31 18 50  0.0000000  0  7G28G 6G17G21G22G23G26
  -1360586.661 6  -1060197.220 6  21102799.898    21102798.734
      1358.422        1058.511
   2287224.63546   1721830.17446  21393212.0634   21393213.6914
     -2903.6564      -2262.5894
   -110991.88447    -74380.27747  20677364.9064   20677367.1214
      -124.2974        -96.8554
  -1937924.72845  -1388478.09645  23422239.1644   23422242.5164
      2269.1724       1768.1864
    518760.76345    398586.73043  23679598.8444   23679601.1994
      -959.3914       -747.5774
   -775356.85046   -569519.28546  20950109.8134   20950112.0274
       527.9694        411.4044
    582098.76446    448275.07046  22252264.5314   22252267.1684
     -1075.2664       -837.8694
 96  8 31 18 50 30.0000000  0  7G28G 6G17G21G22G23G26
  -1401033.138 6  -1091713.952 6  21095103.191    21095102.094
      1337.938        1042.549
   2374637.46846   1789944.04946  21409845.9844   21409847.5204
     -2924.0004      -2278.4424
   -107055.73547    -71313.14647  20678113.8834   20678116.0164
      -138.1414       -107.6424
  -2005823.08045  -1441385.87645  23409318.5394   23409321.2704
      2257.3284       1758.9574
    547873.07145    421271.62044  23685137.9144   23685140.7504
      -981.4534       -764.7694
   -790915.65046   -581643.01046  20947148.4924   20947150.7424
       509.2034        396.7824
    614734.78746    473705.73446  22258475.4144   22258477.9224
     -1100.5944       -857.6064
 96  8 31 18 51  0.0000000  0  7G28G 6G17G21G22G23G26
  -1440864.902 6  -1122751.684 6  21087523.387    21087522.336
      1317.422        1026.563
   2462660.03346   1858533.03546  21426596.1644   21426597.8524
     -2944.2344      -2294.2094
   -102705.68247    -67923.49547  20678941.2424   20678943.3874
      -151.9694       -118.4174
  -2073366.33145  -1494016.94145  23396465.8364   23396469.0474
      2245.4384       1749.6924
    577650.46445    444474.78245  23690805.0234   23690808.0124
     -1003.8914       -782.2524
   -805915.19446   -593330.95146  20944294.6414   20944296.5864
       490.8284        382.4634
    648138.77046    499734.80746  22264831.8204   22264832.9924
     -1126.4064       -877.7194
 96  8 31 18 51 30.0000000  0  7G28G 6G17G21G22G23G26
  -1480079.817 6  -1153308.756 6  21080061.051    21080059.992
      1296.875        1010.552
   2551294.35346   1927598.70946  21443463.0394   21443464.6214
     -2964.7974      -2310.2314
    -97933.48847    -64204.89447  20679849.4844   20679851.9224
      -166.1564       -129.4724
  -2140549.61645  -1546367.51445  23383681.2274   23383683.3954
      2233.4064       1740.3174
    608111.68445    468210.76544  23696601.5704   23696605.4264
     -1026.7974       -800.1014
   -820366.72146   -604591.86946  20941544.4534   20941546.8094
       472.5474        368.2184
    682312.95946    526364.05146  22271334.4774   22271335.6134
     -1151.9374       -897.6144
 96  8 31 18 52  0.0000000  0  7G28G 6G17G21G22G23G26
  -1518684.777 6  -1183390.537 6  21072714.727    21072713.656
      1276.953         995.028
   2640544.32546   1997144.11746  21460446.4384   21460448.0084
     -2984.9224      -2325.9134
    -92751.57647    -60167.04447  20680835.7194   20680837.9804
      -179.1414       -139.5904
  -2207377.73445  -1598441.34845  23370964.0004   23370966.6724
      2221.8284       1731.2954
    639234.29245    492462.14144  23702523.8674   23702527.6054
     -1047.7974       -816.4654
   -834269.92746   -615425.52746  20938898.6564   20938900.9654
       454.5164        354.1684
    717247.89746    553586.07046  22277982.3364   22277984.1414
     -1176.8284       -917.0094
 96  8 31 18 52 30.0000000  0  7G28G 6G17G21G22G23G26
  -1556686.075 6  -1213001.932 6  21065483.266    21065482.367
      1256.609         979.176
   2730397.26846   2067159.37846  21477544.9924   21477546.4804
     -3005.1414      -2341.6684
    -87171.55347    -55818.96747  20681897.7424   20681899.9224
      -192.6874       -150.1464
  -2273843.59745  -1650232.89345  23358316.5474   23358319.1484
      2209.3444       1721.5674
    670982.80345    517201.23343  23708565.6094   23708568.2584
     -1068.5944       -832.6704
   -847633.30346   -625838.52946  20936355.5944   20936357.7854
       436.5784        340.1914
    752930.68446    581390.83246  22284773.0784   22284774.7074
     -1201.6724       -936.3684
 96  8 31 18 53  0.0000000  0  7G28G 6G17G21G22G23G26
  -1594083.524 6  -1242142.795 6  21058366.895    21058365.922
      1236.594         963.580
   2820839.47246   2137633.78246  21494755.5234   21494757.5514
     -3024.1724      -2356.4984
    -81199.35847    -51165.31047  20683034.0784   20683036.1414
      -205.2974       -159.9724
  -2339941.93245  -1701738.05245  23345738.3834   23345741.6524
      2197.1884       1712.0944
    703348.55945    542421.27644  23714723.8594   23714727.4924
     -1088.9374       -848.5234
   -860473.17946   -635843.61546  20933912.1334   20933914.1604
       419.4224        326.8224
    789342.49246    609763.68646  22291701.2814   22291703.5784
     -1225.6414       -955.0454
 96  8 31 18 53 30.0000000  0  7G28G 6G17G21G22G23G26
  -1630880.347 6  -1270815.640 6  21051364.730    21051363.641
      1216.641         948.032
   2911847.56646   2208549.15946  21512074.0394   21512075.9384
     -3042.8284      -2371.0354
    -74856.77947    -46223.04347  20684240.7814   20684242.9734
      -217.3754       -169.3834
  -2405671.36545  -1752955.76245  23333230.7034   23333233.0124
      2184.8444       1702.4764
    736312.88745    568107.75845  23720997.0704   23721000.5044
     -1108.4374       -863.7184
   -872793.82746   -645444.11046  20931567.6024   20931569.7704
       402.1254        313.3444
    826462.19846    638688.10046  22298765.3674   22298767.8284
     -1248.9534       -973.2104
 96  8 31 18 54  0.0000000  0  7G28G 6G17G21G22G23G26
  -1667084.372 6  -1299026.560 6  21044475.293    21044474.180
      1196.844         932.606
   3003401.13246   2279889.56346  21529495.9844   21529497.8834
     -3060.7344      -2384.9884
    -68160.20647    -41004.93847  20685515.5474   20685517.6214
      -229.1874       -178.5884
  -2471037.75845  -1803890.57845  23320790.3674   23320793.8014
      2172.7814       1693.0764
    769850.68345    594241.07543  23727379.9384   23727382.3404
     -1127.5944       -878.6444
   -884601.44746   -654644.84746  20929320.7114   20929322.6914
       384.9844        299.9884
    864284.28846    668159.87746  22305962.4924   22305964.7894
     -1272.6724       -991.6924
 96  8 31 18 54 30.0000000  0  7G28G 6G17G21G22G23G26
  -1702693.147 6  -1326773.653 6  21037699.273    21037698.117
      1177.063         917.192
   3095485.89046   2351643.88446  21547018.8134   21547020.8284
     -3078.2034      -2398.6004
    -61103.55247    -35506.24347  20686857.9844   20686860.1994
      -241.1414       -187.9024
  -2536046.70545  -1854546.87445  23308419.9064   23308423.5394
      2161.1564       1684.0184
    803970.60545    620828.01244  23733871.4694   23733875.2664
     -1147.0314       -893.7914
   -895897.52946   -663446.97746  20927171.3834   20927173.5164
       368.0164        286.7654
    902816.52446    698184.98746  22313294.8754   22313296.1644
     -1296.1564      -1009.9924
 96  8 31 18 55  0.0000000  0  7G28G 6G17G21G22G23G26
  -1737711.147 6  -1354060.399 6  21031035.582    21031034.492
      1157.266         901.765
   3188086.34546   2423800.04546  21564640.1804   21564642.0204
     -3095.3284      -2411.9444
    -53701.10247    -29738.10047  20688266.8834   20688269.2854
      -252.5624       -196.8024
  -2600708.96845  -1904933.01645  23296115.1254   23296118.3244
      2149.3914       1674.8504
    838669.34145    647865.98545  23740474.7114   23740477.2664
     -1166.3914       -908.8764
   -906674.86046   -671844.88146  20925120.1884   20925122.1914
       350.2344        272.9104
    942057.87546    728762.66746  22320762.5004   22320763.3204
     -1320.0474      -1028.6084
 96  8 31 18 55 30.0000000  0  7G28G 6G17G21G22G23G26
  -1772136.108 6  -1380885.039 6  21024484.680    21024483.680
      1137.641         886.473
   3281208.65746   2496362.86246  21582360.9614   21582362.8014
     -3113.0164      -2425.7264
    -45946.99647    -23695.93647  20689742.4384   20689744.8634
      -264.6564       -206.2264
  -2665019.03045  -1955044.73745  23283877.2974   23283880.6724
      2137.8754       1665.8774
    873950.45945    675357.72343  23747188.7504   23747190.9184
     -1185.8914       -924.0714
   -916918.06546   -679826.58846  20923171.3914   20923173.2424
       332.5784        259.1524
    982010.71446    759894.75546  22328365.1644   22328367.0274
     -1343.6874      -1047.0294
 96  8 31 18 56  0.0000000  0  7G28G 6G17G21G22G23G26
  -1805975.639 6  -1407253.504 6  21018045.242    21018044.094
      1118.172         871.303
   3374857.58146   2569336.00546  21600182.3054   21600184.0634
     -3130.4534      -2439.3144
    -37826.36447    -17368.17647  20691287.5784   20691289.6644
      -276.8594       -215.7354
  -2728994.42445  -2004895.65945  23271703.2814   23271707.3364
      2126.8914       1657.3174
    909815.88445    703304.79644  23754013.2344   23754017.0554
     -1205.3754       -939.2534
   -926629.38346   -687393.83146  20921323.2114   20921325.1914
       314.6724        245.1994
   1022674.72646    791580.99746  22336103.7894   22336104.6914
     -1367.3284      -1065.4504
 96  8 31 18 56 30.0000000  0  7G28G 6G17G21G22G23G26
  -1839224.978 6  -1433162.072 6  21011718.090    21011716.930
      1098.422         855.913
   3469039.87646   2642724.77946  21618104.0234   21618105.7704
     -3148.4224      -2453.3164
    -29338.09547    -10753.93447  20692903.2194   20692905.2114
      -288.9844       -225.1834
  -2792625.26445  -2054478.08945  23259594.7034   23259597.8324
      2115.0634       1648.1014
    946271.53945    731711.74945  23760950.2424   23760953.3834
     -1225.1724       -954.6794
   -935803.30146   -694542.33046  20919577.4534   20919579.4454
       296.8594        231.3194
   1064041.17246    823814.58646  22343975.5004   22343977.0594
     -1390.5314      -1083.5314
 96  8 31 18 57  0.0000000  0  7G28G 6G17G21G22G23G26
  -1871871.417 6  -1458600.851 6  21005505.703    21005504.523
      1078.203         840.158
   3563771.28046   2716541.42346  21636130.8054   21636132.7034
     -3166.8594      -2467.6834
    -20479.43147     -3851.08647  20694589.0784   20694591.2114
      -301.6254       -235.0324
  -2855888.26345  -2103773.91745  23247556.6334   23247559.2814
      2102.6564       1638.4334
    983332.47745    760590.40845  23768003.9534   23768007.2704
     -1245.5004       -970.5194
   -944434.01946   -701267.55446  20917934.8834   20917936.7114
       278.8594        217.2934
   1106114.96646    856599.37246  22351982.0394   22351982.8244
     -1414.2034      -1101.9764
 96  8 31 18 57 30.0000000  0  7G28G 6G17G21G22G23G26
  -1903923.544 6  -1483576.530 6  20999406.406    20999405.281
      1058.563         824.854
   3659044.65846   2790780.37446  21654261.5704   21654263.5634
     -3184.6254      -2481.5264
    -11244.34147      3345.09347  20696345.9304   20696348.0984
      -313.9694       -244.6514
  -2918797.43045  -2152794.00845  23235584.9534   23235588.3754
      2091.2974       1629.5824
   1020997.24545    789939.55643  23775171.3444   23775175.8094
     -1265.4224       -986.0434
   -952546.49146   -707588.94546  20916391.2584   20916393.2034
       261.9844        204.1444
   1148880.93246    889923.49646  22360119.9224   22360121.1414
     -1436.9844      -1119.7284
 96  8 31 18 58  0.0000000  0  7G28G 6G17G21G22G23G26
  -1935386.766 6  -1508093.322 6  20993419.207    20993418.188
      1038.891         809.525
   3754837.89946   2865424.43646  21672489.6174   21672491.8794
     -3201.6564      -2494.7974
     -1655.32647     10817.04747  20698170.7584   20698172.7384
      -325.3754       -253.5394
  -2981362.51545  -2201545.99745  23223678.9844   23223682.1134
      2079.5944       1620.4634
   1059250.75945    819747.45844  23782450.7974   23782453.9264
     -1284.7814      -1001.1284
   -960154.79346   -713517.49046  20914943.4694   20914945.5554
       245.3594        191.1894
   1192325.35746    923776.28646  22368385.7734   22368387.9184
     -1459.3124      -1137.1274
 96  8 31 18 58 30.0000000  0  7G28G 6G17G21G22G23G26
  -1966262.741 6  -1532152.515 6  20987543.551    20987542.625
      1019.453         794.379
   3851138.20246   2940463.59946  21690814.8444   21690816.6254
     -3218.2814      -2507.7524
      8268.25447     18549.70847  20700059.1724   20700061.3524
      -336.3124       -262.0624
  -3043580.41745  -2250027.44345  23211839.4064   23211842.4774
      2068.4384       1611.7694
   1098073.85145    849999.19545  23789838.6334   23789841.3634
     -1303.3594      -1015.6054
   -967283.27546   -719072.14746  20913586.9774   20913588.7814
       229.7194        179.0024
   1236426.11146    958140.50946  22376779.2114   22376780.8284
     -1480.7664      -1153.8434
 96  8 31 18 59  0.0000000  0  7G28G 6G17G21G22G23G26
  -1996549.656 6  -1555752.705 6  20981780.129    20981779.180
       999.797         779.063
   3947937.77246   3015891.79746  21709235.5634   21709237.0984
     -3234.9374      -2520.7314
     18537.13947     26551.43847  20702013.5164   20702015.6954
      -348.1874       -271.3154
  -3105468.23846  -2298251.68645  23200063.0394   23200066.2154
      2057.6414       1603.3564
   1137453.19045    880684.36444  23797331.4924   23797334.2464
     -1321.7504      -1029.9354
   -973929.93046   -724251.34246  20912321.8834   20912324.0864
       213.5944        166.4374
   1281178.06846    993012.16846  22385294.5164   22385296.7304
     -1502.4374      -1170.7314
 96  8 31 18 59 30.0000000  0  7G28G 6G17G21G22G23G26
  -2026250.191 6  -1578895.972 6  20976128.371    20976127.383
       980.063         763.685
   4045233.51746   3091706.61646  21727750.4384   21727752.4184
     -3251.6254      -2533.7344
     29150.62347     34821.68447  20704033.1804   20704035.0434
      -359.3914       -280.0454
  -3167039.76845  -2346229.46745  23188346.1024   23188349.0554
      2046.8594       1594.9554
   1177373.04245    911790.72245  23804928.2114   23804930.5314
     -1339.6724      -1043.9004
   -980096.04346   -729056.09546  20911148.5634   20911151.0944
       197.2344        153.6894
   1326569.99946   1028382.48746  22393933.1564   22393935.3594
     -1523.9374      -1187.4844
 96  8 31 19  0  0.0000000  0  7G28G 6G17G21G22G23G26
  -2055356.392 6  -1601576.123 6  20970589.699    20970588.523
       960.375         748.344
   4143038.00546   3167917.86846  21746362.2194   21746364.3284
     -3268.7814      -2547.1024
     40099.38347     43353.18247  20706116.8984   20706119.1134
      -370.5944       -288.7744
  -3228275.96446  -2393945.94945  23176693.0784   23176695.6564
      2035.6564       1586.2264
   1217826.56345    943312.90944  23812626.1564   23812629.4384
     -1357.2974      -1057.6344
   -985763.17347   -733472.03546  20910070.6484   20910072.7814
       180.5784        140.7104
   1372617.42346   1064263.60346  22402695.1024   22402697.3634
     -1545.9374      -1204.6274
 96  8 31 19  0 30.0000000  0  7G28G 6G17G21G22G23G26
  -2083875.291 6  -1623798.638 6  20965162.656    20965161.563
       940.875         733.149
   4241359.67546   3244532.12246  21765071.2974   21765073.4414
     -3285.8754      -2560.4224
     51384.11047     52146.47547  20708264.1804   20708266.2424
      -381.6724       -297.4074
  -3289185.41746  -2441407.83345  23165101.9144   23165104.3404
      2025.0314       1577.9464
   1258814.69945    975251.69245  23820426.6174   23820427.9534
     -1375.2664      -1071.6364
   -990928.34147   -737496.83146  20909087.5474   20909089.5514
       163.6414        127.5124
   1419330.72846   1100663.57546  22411584.0864   22411586.9344
     -1568.3754      -1222.1104
 96  8 31 19  1  0.0000000  0  7G28G 6G17G21G22G23G26
  -2111805.041 6  -1645562.076 6  20959847.734    20959846.656
       921.094         717.735
   4340190.78946   3321543.34946  21783878.6334   21783880.6724
     -3302.9064      -2573.6934
     63005.05747     61201.75647  20710475.5394   20710477.6954
      -392.9844       -306.2224
  -3349770.49845  -2488616.93945  23153573.4844   23153576.4734
      2013.9064       1569.2784
   1300355.83945   1007621.36743  23828331.3594   23828333.1054
     -1394.3594      -1086.5144
   -995576.38847   -741118.67746  20908203.3054   20908205.3094
       146.4064        114.0834
   1466729.02946   1137597.30746  22420603.6564   22420605.6134
     -1591.5624      -1240.1794
 96  8 31 19  1 30.0000000  0  7G28G 6G17G21G22G23G26
  -2139147.016 6  -1666867.510 6  20954644.707    20954643.641
       901.641         702.577
   4439523.53846   3398945.45146  21802781.1884   21802782.8284
     -3319.2194      -2586.4044
     74950.94347     70510.23647  20712748.7344   20712750.8204
      -403.5784       -314.4764
  -3410029.26945  -2535571.80845  23142106.2974   23142109.6954
      2003.2194       1560.9504
   1342464.67945   1040433.43645  23836344.2974   23836348.1294
     -1412.9534      -1101.0024
   -999719.22346   -744346.85546  20907414.5314   20907416.4304
       129.7814        101.1284
   1514821.66946   1175072.09946  22429755.4844   22429758.0514
     -1614.7034      -1258.2104
 96  8 31 19  2  0.0000000  0  7G28G 6G17G21G22G23G26
  -2165892.772 6  -1687708.357 6  20949555.273    20949554.180
       881.313         686.737
   4539348.99646   3476731.46646  21821777.8524   21821779.6804
     -3335.7974      -2599.3224
     87237.71847     80084.34547  20715086.6334   20715088.8484
      -415.6874       -323.9124
  -3469955.03046  -2582267.18145  23130702.3674   23130705.8714
      1991.8594       1552.0984
   1385146.91945   1073692.30744  23844466.8284   23844468.7384
     -1432.7814      -1116.4534
  -1003359.93646   -747183.76746  20906721.7584   20906723.8204
       112.9534         88.0154
   1563615.38446   1213093.14346  22439040.4694   22439043.4454
     -1638.2344      -1276.5464
 96  8 31 19  2 30.0000000  0  7G28G 6G17G21G22G23G26
  -2192038.610 6  -1708081.737 6  20944579.781    20944578.875
       861.734         671.481
   4639650.57446   3554888.50446  21840864.4614   21840866.6054
     -3350.8754      -2611.0714
     99879.84347     89935.35047  20717492.4304   20717494.4924
      -427.0784       -332.7884
  -3529556.26945  -2628709.68845  23119360.6094   23119364.1134
      1981.4844       1544.0144
   1428416.72345   1107409.00543  23852700.1644   23852702.6134
     -1451.6874      -1131.1854
  -1006515.83447   -749642.89546  20906121.5004   20906123.4344
        97.5164         75.9864
   1613093.44046   1251647.47446  22448456.4534   22448457.2274
     -1660.2344      -1293.6894
 96  8 31 19  3  0.0000000  0  7G28G 6G17G21G22G23G26
  -2217597.222 6  -1727997.532 6  20939716.289    20939715.164
       842.172         656.238
   4740394.81146   3633390.46846  21860035.0704   21860037.3674
     -3365.4534      -2622.4314
    112863.13047    100052.19947  20719963.0394   20719965.1604
      -438.3914       -341.6034
  -3588841.83146  -2674906.19645  23108079.5394   23108082.5274
      1970.8754       1535.7474
   1472243.31945   1141559.58743  23861040.8134   23861043.1914
     -1469.9844      -1145.4424
  -1009219.12646   -751749.35046  20905606.8284   20905608.6564
        82.7504         64.4814
   1663219.21546   1290706.53246  22457995.1024   22457995.8754
     -1681.4534      -1310.2234
 96  8 31 19  3 30.0000000  0  7G28G 6G17G21G22G23G26
  -2242575.512 6  -1747461.136 6  20934963.004    20934962.055
       822.953         641.262
   4841570.93846   3712228.97346  21879288.1884   21879290.5554
     -3379.6724      -2633.5114
    126176.22347    110426.03247  20722496.4844   20722498.8164
      -449.2034       -350.0284
  -3647817.95946  -2720861.60145  23096856.8914   23096859.9264
      1960.7034       1527.8214
   1516599.59545   1176122.89244  23869481.7114   23869485.0634
     -1487.0164      -1158.7134
  -1011484.25947   -753514.38246  20905175.8754   20905177.8324
        68.0474         53.0244
   1713971.62446   1330253.84946  22467653.5474   22467653.8524
     -1702.1254      -1326.3314
 96  8 31 19  4  0.0000000  0  8G28G 6G 3G17G21G22G23G26
  -2266970.021 6  -1766469.840 6  20930321.074    20930319.930
       803.188         625.860
   4943181.73846   3791406.16446  21898624.4224   21898625.8874
     -3394.5624      -2645.1144
    -62900.21954                  24373475.1174
      2856.4694
    139817.36847    121055.49247  20725092.2274   20725094.3134
      -460.2814       -358.6614
  -3706476.94946  -2766569.87945  23085694.3914   23085697.8014
      1949.8754       1519.3834
   1561476.56345   1211091.93944  23878020.7894   23878023.6844
     -1504.7814      -1172.5574
  -1013300.24746   -754929.43146  20904830.2424   20904832.2114
        52.7194         41.0804
   1765351.64946   1370290.22346  22477430.3524   22477431.3244
     -1723.4534      -1342.9504
 96  8 31 19  4 30.0000000  0  8G28G 6G 3G17G21G22G23G26
  -2290768.389 6  -1785014.023 6  20925792.344    20925791.055
       783.250         610.325
   5045244.57146   3870935.60446  21918046.5084   21918048.2544
     -3409.8444      -2657.0214
   -148486.26044    -11100.82851  24357188.7274   24357193.0634
      2848.9694       2219.9764
    153786.52547    131940.54947  20727750.4224   20727752.8834
      -470.9534       -366.9764
  -3764812.16546  -2812025.86345  23074593.3284   23074596.7384
      1939.1414       1511.0194
   1606872.98945   1246465.76044  23886659.6334   23886661.6844
     -1521.6254      -1185.6824
  -1014640.58447   -755973.84046  20904575.3204   20904577.3244
        36.6094         28.5274
   1817378.32946   1410830.49046  22487331.2664   22487331.8634
     -1745.1254      -1359.8384
 96  8 31 19  5  0.0000000  0  8G28G 6G 3G17G21G22G23G26
  -2313969.996 6  -1803093.196 6  20921377.215    20921376.047
       763.547         594.972
   5147770.27846   3950825.71346  21937557.0234   21937559.1804
     -3425.1724      -2668.9654
   -233833.71144    -77605.32643  24340946.8524   24340949.0204
      2840.9064       2213.6934
    168071.93047    143072.03047  20730468.9924   20730471.0084
      -481.4534       -375.1584
  -3822829.99246  -2857234.52145  23063553.0944   23063555.8364
      1928.9694       1503.0934
   1652776.43245   1282234.64143  23895394.8444   23895397.7384
     -1538.6094      -1198.9164
  -1015501.34447   -756644.55446  20904411.6644   20904413.7624
        20.7814         16.1934
   1870058.39446   1451879.89546  22497355.5234   22497356.7544
     -1766.8754      -1376.7864
 96  8 31 19  5 30.0000000  0  8G28G 6G 3G17G21G22G23G26
  -2336582.016 6  -1820712.951 6  20917074.281    20917073.133
       743.891         579.655
   5250758.95146   4031076.59746  21957154.2814   21957156.9884
     -3440.8754      -2681.2014
   -318942.19944   -143923.58942  24324751.7274   24324754.7854
      2832.9844       2207.5204
    182676.47847    154452.19047  20733248.3364   20733250.5864
      -492.2344       -383.5594
  -3880555.09246  -2902215.09445  23052568.5474   23052571.1604
      1919.3134       1495.5684
   1699184.85445   1318397.02644  23904225.9384   23904228.0824
     -1555.3594      -1211.9684
  -1015887.12447   -756945.15746  20904338.2894   20904340.3164
         5.0164          3.9084
   1923394.25346   1493440.27845  22507503.8754   22507506.3014
     -1788.8124      -1393.8804
 96  8 31 19  6  0.0000000  0  8G28G 6G 3G17G21G22G23G26
  -2358606.469 6  -1837874.865 6  20912883.172    20912882.000
       724.563         564.594
   5354220.44146   4111695.90046  21976843.3754   21976845.6024
     -3456.4534      -2693.3404
   -403808.60644   -210053.24142  24308600.8364   24308603.4494
      2824.8754       2201.2014
    197606.18047    166085.71647  20736089.1954   20736091.3984
      -502.9374       -391.8994
  -3937992.29546  -2946971.33645  23041638.6954   23041641.4024
      1910.1254       1488.4094
   1746093.64845   1354949.27843  23913152.2734   23913154.9804
     -1571.6564      -1224.6674
  -1015812.54747   -756887.04046  20904352.4844   20904354.4534
        -9.7814         -7.6224
   1977381.05446   1535507.91746  22517778.5944   22517779.4494
     -1809.9844      -1410.3774
 96  8 31 19  6 30.0000000  0  8G28G 6G 3G17G21G22G23G26
  -2380044.920 6  -1854580.151 6  20908803.543    20908802.492
       704.969         549.326
   5458159.68746   4192687.47246  21996622.2344   21996623.6414
     -3472.5474      -2705.8814
   -488420.58444   -275984.56643  24292500.9224   24292503.9924
      2816.2664       2194.4934
    212860.95347    177972.54747  20738992.2274   20738994.3014
      -513.7814       -400.3494
  -3995147.66646  -2991507.96845  23030761.8754   23030764.8284
      1900.4534       1480.8734
   1793499.73245   1391889.06843  23922173.6564   23922176.5044
     -1588.5164      -1237.8044
  -1015293.46647   -756482.55046  20904451.0004   20904453.0394
       -24.3914        -19.0064
   2032003.47946   1578070.84845  22528171.3914   22528173.8284
     -1831.1094      -1426.8384
 96  8 31 19  7  0.0000000  0  8G28G 6G 3G17G21G22G23G26
  -2400899.248 6  -1870830.277 6  20904834.938    20904834.016
       685.344         534.034
   5562571.89146   4274047.59446  22016490.9844   22016493.1414
     -3488.1874      -2718.0684
   -572781.45444   -341720.29043  24276447.5944   24276451.5434
      2808.0164       2188.0644
    228445.75747    190116.55247  20741957.5474   20741959.7974
      -525.3284       -409.3474
  -4052011.85546  -3035817.70445  23019941.8134   23019944.4384
      1890.5164       1473.1294
   1841414.65545   1429225.33345  23931291.8134   23931294.5204
     -1605.6254      -1251.1364
  -1014343.59147   -755742.38546  20904631.6024   20904633.4414
       -38.9694        -30.3654
   2087256.14346   1621124.85245  22538686.1334   22538688.4884
     -1852.2814      -1443.3364
 96  8 31 19  7 30.0000000  0  8G28G 6G 3G17G21G22G23G26
  -2421166.885 6  -1886623.241 6  20900978.176    20900977.273
       665.734         518.754
   5667450.19546   4355770.90146  22036448.7974   22036451.0944
     -3503.7974      -2730.2314
   -656908.17145   -407273.55242  24260438.4224   24260440.5784
      2800.4534       2182.1714
    244373.96847    202528.13947  20744988.7274   20744991.3164
      -536.5474       -418.0884
  -4108574.78146  -3079892.68145  23009178.0164   23009180.4884
      1880.1724       1465.0694
   1889830.92245   1466952.26842  23940504.7194   23940507.0394
     -1622.1254      -1263.9944
  -1012950.70346   -754657.01146  20904896.5314   20904898.4884
       -53.9534        -42.0414
   2143136.88546   1664668.26545  22549320.0084   22549322.7624
     -1873.0474      -1459.5174
 96  8 31 19  8  0.0000000  0  8G28G 6G 3G17G21G22G23G26
  -2440846.432 6  -1901957.954 6  20897233.352    20897232.391
       646.047         503.413
   5772789.50746   4437853.44846  22056494.3754   22056496.2384
     -3518.8444      -2741.9564
   -740814.19245   -472654.82343  24244471.9924   24244473.6914
      2793.2344       2176.5464
    260633.86047    215198.18447  20748082.7114   20748085.1024
      -547.5944       -426.6964
  -4164824.09346  -3123723.28445  22998473.7504   22998476.7734
      1869.6414       1456.8634
   1938740.68245   1505063.73744  23949812.2194   23949815.6884
     -1638.6414      -1276.8634
  -1011106.75547   -753220.16346  20905247.8444   20905249.8834
       -69.0944        -53.8394
   2199638.33046   1708695.35745  22560071.5164   22560074.8324
     -1893.9064      -1475.7714
 96  8 31 19  8 30.0000000  0  8G28G 6G 3G17G21G22G23G26
  -2459941.055 6  -1916836.877 6  20893599.773    20893598.680
       626.641         488.291
   5878563.36746   4520274.59246  22076622.9844   22076625.1054
     -3532.9064      -2752.9144
   -824520.52045   -537880.49543  24228542.3984   24228544.3444
      2786.9844       2171.6764
    277209.50447    228114.26647  20751237.4144   20751239.6994
      -557.7664       -434.6234
  -4220760.00746  -3167309.68045  22987830.0004   22987832.4024
      1859.1564       1448.6934
   1988142.55745   1543558.68343  23959213.2974   23959215.3954
     -1654.8754      -1289.5134
  -1008811.79547   -751431.87746  20905684.3914   20905686.1724
       -84.1414        -65.5644
   2256767.39846   1753211.49446  22570944.2664   22570946.0124
     -1914.9534      -1492.1714
 96  8 31 19  9  0.0000000  0  8G28G 6G 3G17G21G22G23G26
  -2478446.990 6  -1931257.088 6  20890078.156    20890077.094
       606.922         472.926
   5984757.15346   4603022.94546  22096830.4614   22096832.7234
     -3546.8444      -2763.7744
   -908035.29745   -602956.89844  24212650.7344   24212653.6524
      2780.3444       2166.5024
    294100.82947    241276.32747  20754451.6254   20754453.8284
      -568.2344       -442.7804
  -4276382.46646  -3210651.82745  22977245.0474   22977247.6604
      1848.8754       1440.6824
   2038028.66745   1582430.92844  23968706.8914   23968709.0824
     -1670.9064      -1302.0054
  -1006057.37547   -749285.56946  20906208.6094   20906210.4264
       -99.5164        -77.5454
   2314527.43446   1798219.30746  22581934.6954   22581936.5234
     -1935.7034      -1508.3404
 96  8 31 19  9 30.0000000  0  8G28G 6G 3G17G21G22G23G26
  -2496358.535 6  -1945214.134 6  20886669.824    20886668.609
       587.219         457.573
   6091373.14446   4686100.28846  22117119.0164   22117120.8204
     -3560.7194      -2774.5864
   -991339.65245   -667869.38843  24196798.9774   24196801.2154
      2773.2974       2161.0114
    311292.22047    254672.21747  20757722.9774   20757725.2734
      -577.6724       -450.1344
  -4331693.18246  -3253751.06945  22966719.4064   22966722.0434
      1838.5474       1432.6344
   2088398.48745   1621680.11945  23978291.3134   23978294.1134
     -1687.0944      -1314.6194
  -1002845.16247   -746782.53946  20906819.7974   20906821.8594
      -114.5164        -89.2334
   2372903.26146   1843706.96346  22593043.7974   22593045.4844
     -1955.9694      -1524.1314
 96  8 31 19 10  0.0000000  0  8G28G 6G 3G17G21G22G23G26
  -2513676.339 6  -1958708.527 6  20883374.445    20883373.258
       567.250         442.013
   6198400.43346   4769498.13146  22137484.8984   22137487.9224
     -3574.4374      -2785.2764
  -1074421.54545   -732608.48744  24180988.4774   24180991.5944
      2765.3594       2154.8254
    328765.70747    268287.91647  20761047.9844   20761050.2114
      -587.2504       -457.5974
  -4386693.10246  -3296608.11245  22956253.4224   22956256.3524
      1827.9844       1424.4034
   2139255.42845   1661308.88343  23987968.8754   23987971.9694
     -1703.4374      -1327.3544
   -999192.51447   -743936.31046  20907514.9694   20907516.9024
      -128.9374       -100.4714
   2431890.66946   1889671.15746  22604268.3134   22604270.4454
     -1976.5944      -1540.2034
 96  8 31 19 10 30.0000000  0  8G28G 6G 3G17G21G22G23G26
  -2530400.691 6  -1971740.490 6  20880191.875    20880190.859
       547.578         426.684
   6305833.56446   4853212.21946  22157929.0704   22157931.1804
     -3587.9844      -2795.8324
  -1157255.81045   -797154.63043  24165224.8594   24165226.7934
      2756.7194       2148.0934
    346518.66747    282121.38347  20764426.0704   20764428.2504
      -596.5944       -464.8784
  -4441379.45746  -3339220.83445  22945846.9534   22945850.1644
      1817.6414       1416.3434
   2190600.63445   1701318.10043  23997739.3204   23997743.1884
     -1719.5004      -1339.8704
   -995113.36847   -740757.74946  20908291.1334   20908292.8914
      -143.2504       -111.6234
   2491479.01546   1936103.61246  22615609.1024   22615610.5784
     -1995.9694      -1555.3004
 96  8 31 19 11  0.0000000  0  8G28G 6G 3G17G21G22G23G26
  -2546525.406 6  -1984305.208 6  20877123.367    20877122.430
       527.672         411.173
   6413681.05146   4937249.15646  22178451.8524   22178454.3134
     -3601.6414      -2806.4734
  -1239812.48145   -861484.46543  24149516.0084   24149518.7274
      2747.2504       2140.7144
    364577.83347    296193.45247  20767862.8594   20767865.2034
      -606.9374       -472.9384
  -4495750.46546  -3381587.81845  22935500.8204   22935503.4804
      1807.3594       1408.3324
   2242430.90445   1741705.27744  24007602.5634   24007604.8134
     -1735.7034      -1352.4964
   -990593.09747   -737235.45246  20909151.0704   20909153.0274
      -157.7664       -122.9344
   2551646.74446   1982987.57946  22627057.6094   22627058.7934
     -2015.0164      -1570.1424
 96  8 31 19 11 30.0000000  0  8G28G 6G 3G17G21G22G23G26
  -2562043.270 6  -1996397.051 6  20874170.508    20874169.453
       507.234         395.248
   6521947.03846   5021612.20546  22199054.4224   22199056.8714
     -3615.5784      -2817.3344
  -1322075.71945   -925585.67943  24133860.5164   24133862.8594
      2737.4534       2133.0804
    382956.79547    310514.72047  20771360.4454   20771362.5314
      -618.2034       -481.7174
  -4549801.53246  -3423705.51545  22925214.9924   22925217.9454
      1796.4844       1399.8584
   2294756.49245   1782478.43243  24017560.7194   24017562.8164
     -1752.2664      -1365.4024
   -985630.68147   -733368.62546  20910095.6024   20910097.6994
      -172.8124       -134.6594
   2612404.86646   2030331.54545  22638619.2034   22638620.3754
     -2035.3444      -1585.9824
 96  8 31 19 12  0.0000000  0  8G28G 6G 3G17G21G22G23G26
  -2576956.262 6  -2008017.566 6  20871332.629    20871331.602
       486.969         379.456
   6630614.60646   5106288.17946  22219733.2734   22219735.1954
     -3628.9224      -2827.7314
  -1404051.59545   -989462.92544  24118261.6094   24118264.8324
      2727.6094       2125.4104
    401678.10047    325102.74347  20774923.1094   20774925.1254
      -629.9064       -490.8364
  -4603541.07846  -3465580.46345  22914988.3674   22914991.2504
      1786.1414       1391.7984
   2347557.53345   1823622.05343  24027608.2344   24027610.0744
     -1767.8914      -1377.5774
   -980223.46247   -729155.20446  20911124.6254   20911126.3834
      -187.7344       -146.2874
   2673771.06846   2078149.34245  22650296.2894   22650298.6334
     -2055.7814      -1601.9074
 96  8 31 19 12 30.0000000  0  8G28G 6G 3G17G21G22G23G26
  -2591267.631 6  -2019169.282 6  20868609.195    20868608.188
       467.063         363.945
   6739676.56146   5191271.48446  22240486.0394   22240489.0514
     -3641.9374      -2837.8734
  -1485740.98245  -1053116.97543  24102716.3914   24102719.6254
      2718.3134       2118.1664
    420748.73947    339962.97847  20778552.0474   20778554.1214
      -641.6094       -499.9554
  -4656982.86346  -3507223.38945  22904818.6884   22904821.3714
      1776.6414       1384.3954
   2400823.43345   1865127.93543  24037743.9064   24037746.3324
     -1783.0784      -1389.4124
   -974366.03447   -724590.96546  20912239.2504   20912241.1134
      -202.8594       -158.0724
   2735746.21146   2126441.65245  22662090.1804   22662092.3134
     -2076.0624      -1617.7114
 96  8 31 19 13  0.0000000  0  8G28G 6G 3G17G21G22G23G26
  -2604982.139 6  -2029855.910 6  20865999.383    20865998.398
       446.969         348.287
   6849127.11746   5276557.56546  22261314.9454   22261316.9024
     -3655.1874      -2848.1984
  -1567163.12045  -1116562.74044  24087221.6484   24087226.0554
      2709.6564       2111.4204
    440173.13147    355098.86247  20782248.6414   20782250.5044
      -653.4224       -509.1604
  -4710144.84146  -3548648.28345  22894702.0554   22894705.1254
      1767.2034       1377.0414
   2454537.71145   1906983.18243  24047965.5394   24047968.9024
     -1798.1874      -1401.1854
   -968056.20147   -719674.21346  20913439.8284   20913441.5274
      -218.0314       -169.8944
   2798340.55246   2175216.44146  22674002.2814   22674003.7344
     -2097.1724      -1634.1604
 96  8 31 19 13 30.0000000  0  8G28G 6G 3G17G21G22G23G26
  -2618083.524 6  -2040064.785 6  20863506.305    20863505.273
       426.313         332.192
   6958994.45446   5362168.44546  22282221.0164   22282223.7814
     -3669.3914      -2859.2654
  -1648323.64045  -1179804.70845  24071777.4534   24071780.6524
      2700.8134       2104.5294
    459952.62447    370511.44647  20786012.3204   20786014.3484
      -665.4374       -518.5234
  -4763007.36046  -3589839.83845  22884643.0084   22884646.0204
      1756.7974       1368.9334
   2508712.43345   1949197.22843  24058274.2424   24058277.5004
     -1813.5624      -1413.1664
   -961281.77247   -714395.42946  20914729.1254   20914730.9184
      -233.8284       -182.2044
   2861577.43746   2224491.94645  22686035.2974   22686036.9264
     -2118.6254      -1650.8774
 96  8 31 19 14  0.0000000  0  8G28G 6G 3G17G21G22G23G26
  -2630562.838 6  -2049788.930 6  20861131.594    20861130.586
       406.266         316.571
   7069293.05746   5448115.36046  22303210.1954   22303212.5044
     -3683.3754      -2870.1624
  -1729210.26045  -1242833.18344  24056385.9774   24056389.2934
      2692.3914       2097.9674
    480085.99347    386199.78547  20789843.7194   20789845.8634
      -676.0474       -526.7904
  -4815552.99446  -3630784.46345  22874643.8134   22874646.5554
      1746.7504       1361.1044
   2563354.49145   1991775.42644  24068672.1174   24068675.1884
     -1828.7504      -1425.0004
   -954030.42647   -708745.02146  20916108.8984   20916110.4344
      -248.8444       -193.9044
   2925449.52246   2274262.36646  22698190.2424   22698192.5044
     -2138.7344      -1666.5464
 96  8 31 19 14 30.0010000  0  8G28G 6G 3G17G21G22G23G26
  -2642423.899 6  -2059031.314 6  20858874.716    20858873.583
       384.953         299.963
   7180041.78646   5534413.02146  22324285.7394   22324288.1184
     -3699.1254      -2882.4354
  -1809840.56745  -1305661.96043  24041042.2314   24041046.0284
      2683.3134       2090.8934
    500554.19047    402149.02347  20793738.3414   20793740.3684
      -687.8594       -535.9944
  -4867775.90046  -3671477.61945  22864706.5054   22864709.3884
      1735.1884       1352.0944
   2618478.74244   2034729.35943  24079162.5994   24079165.5404
     -1845.4374      -1438.0034
   -946316.85547   -702734.44146  20917576.7474   20917578.6464
      -264.8754       -206.3964
   2989936.18146   2324511.70846  22710461.9274   22710463.6494
     -2159.6724      -1682.8614
 96  8 31 19 15  0.0010000  0  8G28G 6G 3G17G21G22G23G26
  -2653667.225 6  -2067792.351 6  20856735.298    20856733.974
       364.688         284.172
   7291235.89746   5621057.72646  22345445.8804   22345446.9584
     -3713.6874      -2893.7824
  -1890218.96045  -1368294.45344  24025746.7554   24025749.8134
      2675.2974       2084.6474
    521341.70447    418347.08847  20797694.1064   20797696.2744
      -697.7194       -543.6774
  -4919667.09446  -3711912.28645  22854831.5754   22854834.3994
      1724.2034       1343.5354
   2674082.63744   2078057.04944  24089742.5284   24089746.6774
     -1861.5164      -1450.5324
   -938148.42247   -696369.43046  20919131.2944   20919133.0524
      -279.5004       -217.7924
   3055021.60646   2375227.60046  22722847.7474   22722849.2124
     -2179.1564      -1698.0444
 96  8 31 19 15 30.0010000  0  8G28G 6G 3G17G21G22G23G26
  -2664304.397 6  -2076081.060 6  20854711.126    20854709.731
       344.531         268.466
   7402857.62346   5708035.64646  22366685.8414   22366688.3964
     -3727.4534      -2904.5094
  -1970350.13944  -1430734.29445  24010498.2004   24010502.1854
      2666.6724       2077.9264
    542411.21447    434764.87947  20801703.4814   20801705.6964
      -706.8284       -550.7754
  -4971224.42546  -3752086.80345  22845020.4814   22845023.7984
      1713.1254       1334.9034
   2730171.03044   2121762.24345  24100416.8024   24100420.9624
     -1877.6094      -1463.0724
   -929554.25447   -689672.66846  20920766.6384   20920768.3844
      -293.2344       -228.4944
   3120687.73846   2426396.02045  22735341.0674   22735343.8454
     -2198.5314      -1713.1414
 96  8 31 19 16  0.0010000  0  8G28G 6G 3G17G21G22G23G26
  -2674337.978 6  -2083899.440 6  20852801.614    20852800.317
       324.188         252.614
   7514877.89746   5795324.11646  22388003.6464   22388005.5794
     -3740.7974      -2914.9074
  -2050217.84345  -1492968.84544  23995299.3724   23995301.9504
      2657.8284       2071.0354
    563751.25547    451393.47347  20805764.4744   20805766.4784
      -716.0784       -557.9834
  -5022461.06846  -3792011.43346  22835270.6464   22835273.2354
      1702.4694       1326.5994
   2786740.51245   2165842.31543  24111181.8964   24111186.5604
     -1893.8754      -1475.7474
   -920555.60847   -682660.73546  20922478.9274   20922480.8724
      -306.7344       -239.0144
   3186937.30146   2478019.02745  22747949.1384   22747951.4704
     -2218.4534      -1728.6654
 96  8 31 19 16 30.0010000  0  8G28G 6G 3G17G21G22G23G26
  -2683761.443 6  -2091242.401 6  20851008.431    20851007.114
       304.031         236.907
   7627295.15346   5882921.92745  22409395.4504   22409397.3134
     -3753.5624      -2924.8544
  -2129820.01545  -1554996.47544  23980152.4814   23980155.2244
      2648.8284       2064.0224
    585380.40447    468247.34947  20809880.3884   20809882.3924
      -725.9064       -565.6414
  -5073385.32646  -3831692.64945  22825579.9354   22825582.8064
      1692.4534       1318.7954
   2843791.55345   2210297.62343  24122037.9664   24122040.6144
     -1909.4374      -1487.8734
   -911152.14646   -675333.36246  20924268.2244   20924270.2634
      -320.2034       -249.5094
   3253788.25646   2530110.67146  22760671.1064   22760673.2744
     -2238.3124      -1744.1404
 96  8 31 19 17  0.0010000  0  8G28G 6G 3G17G21G22G23G26
  -2692581.171 6  -2098114.919 6  20849329.966    20849328.786
       283.797         221.140
   7740084.23746   5970809.46746  22430857.9584   22430860.4544
     -3765.8444      -2934.4244
  -2209144.72545  -1616807.89843  23965056.4584   23965060.4544
      2639.3134       2056.6074
    607305.55347    485331.87447  20814052.4744   20814054.7594
      -736.1414       -573.6164
  -5124006.42446  -3871137.64046  22815947.2244   22815949.7084
      1682.1564       1310.7714
   2901309.17745   2255116.53144  24132984.5284   24132986.3454
     -1925.1564      -1500.1224
   -901347.87146   -667693.65946  20926133.7944   20926135.8924
      -333.4534       -259.8344
   3321229.98346   2582662.66345  22773504.4504   22773506.2434
     -2257.8754      -1759.3834
 96  8 31 19 17 30.0010000  0  8G28G 6G 3G17G21G22G23G26
  -2700797.169 6  -2104516.996 6  20847766.388    20847765.411
       263.719         205.495
   7853242.93446   6058985.02146  22452391.4894   22452393.8104
     -3778.2664      -2944.1034
  -2288188.03845  -1678400.07743  23950015.3644   23950017.0524
      2630.0474       2049.3874
    629553.43647    502667.87547  20818286.2474   20818288.3564
      -747.4844       -582.4554
  -5174326.68746  -3910348.20546  22806371.5994   22806373.9894
      1672.4534       1303.2104
   2959288.54345   2300295.22044  24144016.8334   24144017.6424
     -1940.1724      -1511.8224
   -891150.59946   -659747.73446  20928074.2864   20928076.2674
      -346.7344       -270.1834
   3389249.83846   2635665.14945  22786447.5284   22786450.4464
     -2276.9064      -1774.2134
 96  8 31 19 18  0.0010000  0  8G28G 6G 3G17G21G22G23G26
  -2708403.060 6  -2110443.666 6  20846319.075    20846318.122
       243.406         189.667
   7966785.66846   6147459.81946  22473998.6774   22474001.1384
     -3791.3284      -2954.2824
  -2366949.50545  -1739772.60144  23935027.3414   23935031.2434
      2620.9224       2042.2774
    652161.62447    520284.64147  20822588.7314   20822590.7714
      -759.6414       -591.9284
  -5224355.37546  -3949331.57046  22796851.4814   22796853.9894
      1662.8134       1295.6984
   3017721.90545   2345827.65344  24155136.4894   24155140.3684
     -1955.3124      -1523.6204
   -880538.73347   -651478.74146  20930094.0914   20930096.0134
      -360.7814       -281.1284
   3457838.94546   2689111.18846  22799500.5674   22799502.0324
     -2295.6414      -1788.8114
 96  8 31 19 18 30.0010000  0  8G28G 6G 3G17G21G22G23G26
  -2715400.058 6  -2115895.876 6  20844987.642    20844986.669
       223.156         173.888
   8080724.36646   6236243.16546  22495680.3964   22495681.7204
     -3804.4224      -2964.4854
  -2445438.09645  -1800932.49044  23920092.9354   23920094.8684
      2611.7344       2035.1184
    675136.98747    538187.51647  20826960.7164   20826962.9424
      -771.8124       -601.4124
  -5274088.52646  -3988084.65546  22787387.7314   22787390.2164
      1652.7974       1287.8944
   3076602.43744   2391708.56043  24166340.1694   24166343.0284
     -1969.8914      -1534.9804
   -869501.89847   -642878.60846  20932194.0754   20932195.9974
      -374.9374       -292.1594
   3526981.05546   2742988.16845  22812657.6614   22812659.2204
     -2313.7194      -1802.8984
 96  8 31 19 19  0.0010000  0  8G28G 6G 3G17G21G22G23G26
  -2721791.684 6  -2120876.372 6  20843771.341    20843770.372
       202.969         158.157
   8195046.26746   6325325.10646  22517434.4194   22517437.4314
     -3817.1254      -2974.3834
  -2523656.52745  -1861881.88043  23905207.3414   23905211.5244
      2602.8754       2028.2144
    698464.48247    556364.77547  20831400.0134   20831401.8644
      -783.3444       -610.3984
  -5323523.68746  -4026605.53146  22777980.2314   22777982.8334
      1642.9844       1280.2484
   3135913.50144   2437924.93743  24177627.2784   24177630.7714
     -1984.0784      -1546.0354
   -858044.73546   -633950.94146  20934374.2864   20934376.2204
      -388.8914       -303.0324
   3596666.50846   2797288.47145  22825917.9114   22825920.3844
     -2332.0784      -1817.2044
 96  8 31 19 19 30.0010000  0  8G28G 6G 3G17G21G22G23G26
  -2727568.897 6  -2125378.102 6  20842672.032    20842671.021
       182.219         141.989
   8309758.12346   6414710.90445  22539264.6534   22539266.5754
     -3830.2974      -2984.6474
  -2601598.83745  -1922616.15144  23890375.4664   23890377.1424
      2593.3134       2020.7634
    722135.32347    574809.58147  20835903.8414   20835905.8214
      -794.4694       -619.0674
  -5372666.95846  -4064898.97045  22768628.5364   22768631.5244
      1633.3754       1272.7604
   3195647.84844   2484471.14842  24188992.4504   24188998.7434
     -1998.2194      -1557.0544
   -846155.19347   -624686.35746  20936636.8724   20936638.5484
      -403.7664       -314.6234
   3666923.91046   2852034.51045  22839286.7004   22839289.1614
     -2351.8124      -1832.5814
 96  8 31 19 20  0.0010000  0  8G28G 6G 3G17G21G22G23G26
  -2732728.244 6  -2129398.376 6  20841690.278    20841689.161
       161.984         126.222
   8424854.52246   6504396.35146  22561166.7714   22561169.2204
     -3842.5314      -2994.1804
  -2679258.24745  -1983129.94844  23875597.6144   23875600.1924
      2584.2664       2013.7134
    746117.51247    593496.99547  20840467.3104   20840469.5134
      -803.9694       -626.4694
  -5421529.46946  -4102973.63046  22759330.6774   22759333.2904
      1624.3134       1265.6984
   3255797.51644   2531340.99043  24200440.4114   24200443.0834
     -2011.6254      -1567.5004
   -833825.64847   -615078.92046  20938982.9354   20938984.8334
      -418.0004       -325.7144
   3737777.69546   2907245.23845  22852770.0054   22852772.5954
     -2371.6724      -1848.0564
 96  8 31 19 20 30.0010000  0  8G28G 6G 3G17G21G22G23G26
  -2737277.488 6  -2132943.247 6  20840824.497    20840823.442
       141.484         110.248
   8540314.70246   6594365.27745  22583137.8254   22583140.0404
     -3854.4844      -3003.4944
  -2756646.34945  -2043432.33345  23860871.1144   23860873.8214
      2575.1254       2006.5914
    770388.30747    612409.29247  20845086.1064   20845088.1694
      -813.8754       -634.1884
  -5470107.97146  -4140826.98045  22750086.0604   22750088.8134
      1614.3754       1257.9554
   3316352.53744   2578526.68243  24211963.5444   24211968.0564
     -2025.1414      -1578.0324
   -821070.88247   -605140.13846  20941410.1854   20941412.1064
      -432.1414       -336.7334
   3809236.42746   2962927.34145  22866368.4114   22866370.5324
     -2392.1094      -1863.9814
 96  8 31 19 21  0.0010000  0  8G28G 6G 3G17G21G22G23G26
  -2741191.709 6  -2135993.292 6  20840079.771    20840078.614
       119.844          93.385
   8656148.62046   6684625.41145  22605180.9584   22605183.3724
     -3867.3754      -3013.5394
  -2833739.33445  -2103504.74344  23846201.3964   23846202.4854
      2564.7814       1998.5314
    794972.75547    631566.00647  20849764.4194   20849766.8334
      -824.7974       -642.6994
  -5518368.44346  -4178432.53046  22740902.8644   22740905.2904
      1603.3134       1249.3344
   3377336.75045   2626046.80044  24223568.0834   24223572.2204
     -2040.1094      -1589.6964
   -807870.73846   -594854.31346  20943921.9424   20943923.7714
      -447.3914       -348.6164
   3881334.85046   3019107.93046  22880089.8414   22880091.2474
     -2413.8914      -1880.9544
 96  8 31 19 21 30.0010000  0  8G28G 6G 3G17G21G22G23G26
  -2744476.660 6  -2138552.998 6  20839454.626    20839453.591
        98.953          77.106
   8772356.35046   6775176.82545  22627294.4354   22627297.1884
     -3879.9534      -3023.3404
  -2910546.78945  -2163354.69444  23831584.5914   23831587.4274
      2555.4694       1991.2744
    819865.00247    650962.54547  20854501.3724   20854503.7044
      -834.8284       -650.5154
  -5566313.33046  -4215792.15746  22731778.9974   22731781.2594
      1592.7814       1241.1284
   3438755.88245   2673905.82644  24235257.7714   24235260.6064
     -2054.7194      -1601.0804
   -794237.88146   -584231.30246  20946516.3174   20946518.0634
      -461.6094       -359.6964
   3954050.35446   3075769.35845  22893925.6774   22893927.3534
     -2433.7664      -1896.4414
 96  8 31 19 22  0.0010000  0  8G28G 6G 3G17G21G22G23G26
  -2747141.540 6  -2140629.533 6  20838947.579    20838946.552
        78.563          61.218
   8888927.59846   6866011.50845  22649476.4504   22649478.7004
     -3891.5474      -3032.3744
  -2987084.50345  -2222994.44145  23817019.9584   23817022.6534
      2546.8914       1984.5904
    845058.75447    670594.03847  20859295.6774   20859298.0444
      -844.9694       -658.4174
  -5613935.00546  -4252899.93546  22722716.2944   22722718.6494
      1581.7974       1232.5694
   3500603.63545   2722098.83743  24247025.3174   24247027.7084
     -2068.6254      -1611.9164
   -780188.53747   -573283.76446  20949189.7944   20949191.5524
      -475.0784       -370.1914
   4027339.52046   3132877.78845  22907871.9894   22907874.9894
     -2452.2504      -1910.8444
 96  8 31 19 22 30.0010000  0  8G28G 6G 3G17G21G22G23G26
  -2749198.467 6  -2142232.333 6  20838556.106    20838555.067
        58.469          45.560
   9005844.13445   6957115.23945  22671724.0604   22671727.2244
     -3903.0164      -3041.3114
  -3063365.74345  -2282434.32144  23802504.3494   23802507.3024
      2538.2344       1977.8454
    870563.22847    690467.64947  20864149.0674   20864151.5404
      -855.4064       -666.5504
  -5661226.12846  -4289750.14546  22713717.1534   22713719.6494
      1570.9534       1224.1194
   3562865.04844   2770614.16143  24258872.9274   24258876.6184
     -2082.1414      -1622.4474
   -765744.17846   -562028.41446  20951938.2394   20951940.0214
      -487.8594       -380.1504
   4101168.41146   3190406.76845  22921922.6774   22921923.6494
     -2469.6724      -1924.4204
 96  8 31 19 23  0.0010000  0  8G28G 6G 3G17G21G22G23G26
  -2750637.402 6  -2143353.587 6  20838282.317    20838281.286
        37.656          29.343
   9123120.89346   7048499.65645  22694043.0674   22694044.9784
     -3915.3444      -3050.9174
  -3139358.30645  -2341649.29045  23788042.9894   23788044.3724
      2528.1414       1969.9804
    896385.08147    710588.56047  20869062.9194   20869065.0054
      -865.9064       -674.7324
  -5708189.47646  -4326344.95046  22704780.6614   22704783.0874
      1560.2504       1215.7794
   3625547.41444   2819457.53244  24270801.1614   24270804.0564
     -2096.4534      -1633.6004
   -750902.19846   -550463.23746  20954762.5134   20954764.4704
      -501.2974       -390.6214
   4175523.42346   3248345.72945  22936071.2714   22936073.2394
     -2486.9844      -1937.9104
 96  8 31 19 23 30.0010000  0  8G28G 6G 3G17G21G22G23G26
  -2751451.354 6  -2143987.840 6  20838127.337    20838126.396
        16.813          13.101
   9240767.96646   7140172.63545  22716429.9504   22716432.1064
     -3927.4534      -3060.3534
  -3215046.94545  -2400627.43345  23773640.3724   23773641.8964
      2517.8284       1961.9444
    922522.19147    730955.13047  20874036.3644   20874038.5324
      -876.2504       -682.7924
  -5754837.68746  -4362694.17146  22695903.7004   22695906.5714
      1549.9064       1207.7194
   3688656.04544   2868633.04943  24282810.8494   24282813.7084
     -2110.4844      -1644.5334
   -735655.59446   -538582.76346  20957663.9814   20957665.9854
      -514.9844       -401.2874
   4250396.25846   3306688.17545  22950319.0524   22950321.5364
     -2504.3754      -1951.4614
 96  8 31 19 24  0.0010000  0  8G28G 6G 3G17G21G22G23G26
  -2751648.056 6  -2144141.118 6  20838089.942    20838089.052
        -3.797          -2.959
   9358758.61246   7232113.33845  22738882.5214   22738885.7674
     -3938.5944      -3069.0344
  -3290420.75245  -2459360.24145  23759297.2634   23759298.6344
      2506.9534       1953.4704
    948964.48347    751559.51547  20879067.9584   20879070.2554
      -886.6414       -690.8894
  -5801184.43446  -4398808.50646  22687084.3254   22687087.3374
      1539.8284       1199.8664
   3752166.83344   2918121.93743  24294897.1854   24294900.6774
     -2123.6874      -1654.8214
   -720002.86647   -526385.82846  20960642.8494   20960644.5714
      -528.5164       -411.8304
   4325792.30246   3365438.32645  22964667.1694   22964668.6574
     -2522.1414      -1965.3044
 96  8 31 19 24 30.0010000  0  8G28G 6G 3G17G21G22G23G26
  -2751219.477 6  -2143807.170 6  20838171.474    20838170.685
       -24.844         -19.359
   9477091.45846   7324320.69645  22761400.4034   22761402.8644
     -3950.2504      -3078.1174
  -3365450.79645  -2517825.17245  23745019.4664   23745021.6344
      2494.9064       1944.0834
    975720.11647    772408.04947  20884159.1924   20884161.5484
      -897.0314       -698.9854
  -5847230.97346  -4434688.90146  22678321.5604   22678324.2084
      1529.8594       1192.0984
   3816086.65244   2967929.54143  24307060.0054   24307062.6304
     -2137.5784      -1665.6454
   -703943.55047   -513872.07846  20963698.5284   20963700.3104
      -542.2344       -422.5204
   4401723.87446   3424605.75645  22979116.2784   22979117.6384
     -2540.0314      -1979.2454
 96  8 31 19 25  0.0010000  0  8G28G 6G 3G17G21G22G23G26
  -2750163.083 6  -2142984.008 6  20838372.665    20838371.708
       -45.531         -35.479
   9595765.76346   7416794.11645  22783983.5604   22783985.4354
     -3961.2664      -3086.7004
  -3440125.31745  -2576013.06545  23730808.9354   23730811.6884
      2483.5944       1935.2684
   1002777.63247    793491.82547  20889308.3884   20889310.6264
      -906.8284       -706.6194
  -5892983.82046  -4470340.45446  22669615.1464   22669617.8174
      1520.2814       1184.6354
   3880415.35644   3018055.77243  24319301.9744   24319305.3254
     -2150.9224      -1676.0434
   -687469.77447   -501035.36546  20966833.7784   20966835.8414
      -555.9694       -433.2224
   4478192.63946   3484191.80145  22993667.2164   22993668.6224
     -2557.8754      -1993.1494
 96  8 31 19 25 30.0010000  0  8G28G 6G 3G17G21G22G23G26
  -2748480.187 6  -2141672.666 6  20838692.880    20838691.989
       -66.578         -51.879
   9714769.06746   7509523.90345  22806629.4894   22806631.8924
     -3972.1724      -3095.1994
  -3514463.64645  -2633939.05045  23716663.2634   23716665.4784
      2472.2974       1926.4654
   1030143.87947    814816.16347  20894516.0214   20894518.3764
      -917.4694       -714.9114
  -5938435.17746  -4505757.07746  22660966.0754   22660968.5364
      1509.8754       1176.5264
   3945145.28544   3068494.61843  24331617.8964   24331622.6064
     -2164.2814      -1686.4534
   -670580.90747   -487875.20846  20970047.7004   20970049.4814
      -569.8124       -444.0104
   4555209.02146   3544204.53545  23008324.0134   23008324.7044
     -2576.4064      -2007.5894
 96  8 31 19 26  0.0010000  0  8G28G 6G 3G17G21G22G23G26
  -2746168.897 6  -2139871.667 6  20839132.661    20839131.778
       -87.844         -68.450
   9834097.45545   7602506.98245  22829336.1304   22829340.0914
     -3983.4064      -3103.9534
  -3588464.80645  -2691602.23245  23702580.7944   23702584.7204
      2461.0474       1917.6994
   1057827.40447    836387.73447  20899784.2864   20899786.4074
      -928.4844       -723.4944
  -5983578.46046  -4540933.64046  22652375.9034   22652378.5174
      1499.3594       1168.3324
   4010267.14844   3119238.87343  24344012.5214   24344016.3764
     -2177.5624      -1696.8024
   -653290.46447   -474402.13146  20973337.7164   20973339.3804
      -583.1874       -454.4324
   4632773.01946   3604644.02945  23023083.3804   23023083.2984
     -2594.9064      -2022.0054
 96  8 31 19 26 30.0010000  0  8G28G 6G 3G17G21G22G23G26
  -2743225.276 6  -2137577.939 6  20839692.798    20839691.833
      -108.625         -84.643
   9953764.56545   7695754.02145  22852108.5524   22852111.2354
     -3994.5784      -3112.6584
  -3662147.76845  -2749017.52644  23688559.4424   23688561.6104
      2451.1094       1909.9554
   1085835.94547    858212.55946  20905113.7474   20905115.8924
      -938.9844       -731.6764
  -6028412.68046  -4575869.37846  22643844.4814   22643846.9314
      1489.4534       1160.6134
     50264.85854                  24356479.6924
     -2190.5624
   -635604.03847   -460620.50346  20976703.6464   20976705.3564
      -596.1724       -464.5504
   4710887.50346   3665512.45245  23037946.7784   23037948.5244
     -2613.0624      -2036.1534
 96  8 31 19 27  0.0010000  0  8G28G 6G 3G17G21G22G23G26
  -2739655.998 6  -2134796.689 6  20840372.067    20840371.130
      -129.562        -100.958
  10073774.03945   7789267.80945  22874945.8104   22874949.4664
     -4006.1874      -3121.7054
  -3735544.66745  -2806209.88445  23674592.1224   23674594.0914
      2441.7194       1902.6384
   1114169.35747    880290.54046  20910505.1224   20910507.4194
      -950.2194       -740.4304
  -6072952.11546  -4610575.40746  22635368.2864   22635370.9354
      1479.6724       1152.9914
    116177.39245     20579.55153  24369021.8254   24369025.7164
     -2203.8444      -1717.2814
   -617522.70847   -446531.15246  20980143.9894   20980145.9934
      -609.3914       -474.8504
   4789555.96746   3726812.50045  23052918.7474   23052919.0174
     -2631.6564      -2050.6414
 96  8 31 19 27 30.0010000  0  8G28G 6G 3G17G21G22G23G26
  -2735455.824 6  -2131523.831 6  20841171.384    20841170.388
      -150.375        -117.175
  10194129.95945   7883051.58045  22897847.7784   22897850.5444
     -4017.5314      -3130.5444
  -3808650.88045  -2863175.72945  23660680.9354   23660683.9114
      2432.0004       1895.0654
   1142845.61947    902635.67546  20915963.0054   20915965.4424
      -961.3284       -749.0874
  -6117200.37546  -4645054.55846  22626948.8024   22626951.5674
      1470.4064       1145.7714
    182488.93345     72250.82543  24381642.1064   24381645.3414
     -2216.7344      -1727.3254
   -599051.97546   -432138.37046  20983658.9114   20983660.8334
      -621.7814       -484.5054
   4868780.66446   3788546.05145  23067993.9424   23067994.1424
     -2649.9064      -2064.8624
 96  8 31 19 28  0.0010000  0  8G28G 6G 3G17G21G22G23G26
  -2730631.152 6  -2127764.352 6  20842089.462    20842088.513
      -171.266        -133.454
  10314835.16945   7977107.51545  22920818.2474   22920821.8454
     -4029.4064      -3139.7974
  -3881461.29845  -2919911.07545  23646825.4664   23646828.1034
      2422.1564       1887.3944
   1171849.68447    925236.24247  20921481.4584   20921484.0484
      -972.3444       -757.6704
  -6161174.80646  -4679320.33546  22618579.7314   22618582.2984
      1461.2344       1138.6244
    249187.92545    124224.04443  24394334.4274   24394337.6264
     -2229.8444      -1737.5414
   -580213.05747   -417458.69546  20987243.8884   20987245.7514
      -634.1564       -494.1484
   4948548.69746   3850702.90245  23083172.9584   23083175.1964
     -2668.0474      -2078.9984
 96  8 31 19 28 30.0010000  0  8G28G 6G 3G17G21G22G23G26
  -2725178.524 6  -2123515.554 6  20843127.075    20843126.122
      -192.094        -149.683
  10435897.66746   8071441.86445  22943856.1304   22943858.4744
     -4041.3594      -3149.1114
  -3953970.39945  -2976411.67045  23633027.7244   23633030.4664
      2411.8914       1879.3954
   1201193.49147    948101.54147  20927065.4974   20927067.9114
      -983.7194       -766.5344
  -6204872.25246  -4713370.26446  22610265.0914   22610268.0094
      1452.0944       1131.5024
    316288.38745    176510.05643  24407101.6694   24407104.7164
     -2243.3594      -1748.0724
   -560997.89047   -402485.83646  20990900.5134   20990902.3294
      -646.5624       -503.8154
   5028864.17946   3913286.40645  23098457.5444   23098458.8684
     -2686.0004      -2092.9874
 96  8 31 19 29  0.0010000  0  8G28G 6G 3G17G21G22G23G26
  -2719090.929 6  -2118771.979 6  20844285.505    20844284.567
      -213.531        -166.388
  10557325.37346   8166060.76845  22966963.0134   22966966.4354
     -4053.4534      -3158.5354
  -4026151.97745  -3032657.02445  23619290.8964   23619294.2004
      2400.2814       1870.3494
   1230888.84147    971240.76847  20932716.2474   20932718.4384
      -995.7034       -775.8734
  -6248289.99546  -4747202.24146  22602002.2164   22602005.1814
      1442.5164       1124.0384
    383800.21044    229116.64843  24419948.9354   24419951.8174
     -2257.0784      -1758.7624
   -541405.89046   -387219.34346  20994628.4194   20994630.1884
      -659.3594       -513.7874
   5109719.97846   3976290.90145  23113843.3104   23113844.3644
     -2704.0944      -2107.0864
 96  8 31 19 29 30.0010000  0  8G28G 6G 3G17G21G22G23G26
  -2712373.018 6  -2113537.249 6  20845563.868    20845562.880
      -234.359        -182.618
  10679091.43745   8260943.34145  22990134.4584   22990137.7984
     -4064.3124      -3166.9974
  -4097991.08645  -3088635.51145  23605621.0834   23605623.8604
      2389.0784       1861.6194
   1260924.54247    994645.20947  20938431.9114   20938433.9624
     -1006.5944       -784.3594
  -6291425.30946  -4780814.15946  22593794.3334   22593797.1224
      1433.0474       1116.6604
    451699.52844    282025.15243  24432870.8644   24432874.0874
     -2269.6564      -1768.5634
   -521448.88746   -371668.43146  20998426.2394   20998428.3724
      -671.1874       -523.0034
   5191101.54546   4039705.07545  23129330.1694   23129331.4234
     -2721.3754      -2120.5524
 96  8 31 19 30  0.0010000  0  8G28G 6G 3G17G21G22G23G26
  -2705018.891 6  -2107806.766 6  20846963.224    20846962.341
      -255.562        -199.140
  10801189.81645   8356084.86945  23013368.5214   23013371.4384
     -4075.0004      -3175.3254
  -4169494.04945  -3144352.08845  23592014.3964   23592016.5054
      2378.2034       1853.1454
   1291293.21447   1018309.10547  20944210.8964   20944213.2394
     -1017.6564       -792.9794
  -6334258.02446  -4814190.27846  22585643.4894   22585646.0564
      1422.7814       1108.6614
    519990.40544    335238.76843  24445865.8494   24445868.8374
     -2282.7974      -1778.8034
   -501109.77746   -355819.77146  21002296.5364   21002298.5284
      -684.6094       -533.4624
   5273012.59946   4103531.87745  23144916.5994   23144918.8134
     -2738.9374      -2134.2374
 96  8 31 19 30 30.0010000  0  8G28G 6G 3G17G21G22G23G26
  -2697033.159 6  -2101584.124 6  20848482.817    20848481.935
      -276.781        -215.674
  10923589.08645   8451460.86445  23036659.5674   23036662.5214
     -4084.8594      -3183.0074
  -4240669.72445  -3199813.62245  23578470.8964   23578473.4624
      2366.8914       1844.3304
   1321989.19447   1042228.04846  20950052.6464   20950054.9314
     -1028.5004       -801.4294
  -6376782.67246  -4847326.34646  22577550.8334   22577553.4114
      1412.2664       1100.4674
    588669.44644    388754.87342  24458935.3724   24458939.8964
     -2295.5944      -1788.7744
   -480362.09646   -339652.74446  21006244.7244   21006246.2824
      -698.4844       -544.2744
   5355446.96346   4167766.42445  23160603.7554   23160606.5444
     -2756.5004      -2147.9224
 96  8 31 19 31  0.0010000  0  8G28G 6G 3G17G21G22G23G26
  -2688414.310 6  -2094868.140 6  20850122.989    20850122.060
      -297.641        -231.928
  11046272.76245   8547058.44345  23060006.7164   23060009.3884
     -4093.7194      -3189.9114
  -4311508.25645  -3255012.46845  23564990.5364   23564993.7354
      2355.8284       1835.7104
   1352996.79247   1066389.80147  20955952.8334   20955955.1654
     -1038.5164       -809.2334
  -6418991.45046  -4880216.27946  22569519.1224   22569521.6424
      1401.7344       1092.2614
    657717.20744    442558.26942  24472073.2714   24472077.6184
     -2307.2664      -1797.8694
   -459201.30646   -323163.81346  21010271.5214   21010273.3024
      -712.1724       -554.9394
   5438397.24746   4232402.97845  23176390.0524   23176391.3994
     -2773.4064      -2161.0964
 96  8 31 19 31 30.0010000  0  8G28G 6G 3G17G21G22G23G26
  -2679161.655 6  -2087658.285 6  20851883.688    20851882.810
      -318.937        -248.523
  11169227.76645   8642867.46445  23083404.7944   23083407.2554
     -4103.1874      -3197.2894
  -4382011.71845  -3309950.21045  23551573.1774   23551576.3294
      2344.7344       1827.0664
   1384309.90847   1090789.62547  20961911.4974   20961913.6064
     -1048.8124       -817.2564
  -6460868.08246  -4912847.40646  22561550.1304   22561552.6384
      1390.3594       1083.3974
    727119.24944    496637.74643  24485281.0284   24485284.8494
     -2319.3754      -1807.3054
   -437618.80646   -306346.28146  21014378.4274   21014380.2554
      -726.3914       -566.0194
   5521862.64746   4297440.91945  23192273.0214   23192271.9664
     -2790.6724      -2174.5504
 96  8 31 19 32  0.0010000  0  8G28G 6G 3G17G21G22G23G26
  -2669273.683 6  -2079953.379 6  20853765.399    20853764.552
      -340.172        -265.069
  11292470.26145   8738900.47645  23106856.0674   23106859.3724
     -4112.9844      -3204.9234
  -4452182.99045  -3364629.08645  23538220.3564   23538223.1574
      2333.3444       1818.1904
   1415936.76647   1115433.92447  20967930.2784   20967932.3764
     -1059.5944       -825.6574
  -6502410.42046  -4945218.02946  22553645.1924   22553647.5834
      1379.3284       1074.8014
    796879.63244    550996.44943  24498556.1854   24498558.1884
     -2331.0314      -1816.3884
   -415606.08546   -289193.51346  21018567.3494   21018568.9544
      -740.8284       -577.2694
   5605845.78546   4362882.32945  23208253.3884   23208252.9784
     -2808.0474      -2188.0884
 96  8 31 19 32 30.0010000  0  8G28G 6G 3G17G21G22G23G26
  -2658749.184 6  -2071752.478 6  20855768.114    20855767.231
      -361.281        -281.518
  11416015.95145   8835169.80445  23130366.8564   23130368.8964
     -4123.2814      -3212.9464
  -4521999.69845  -3419031.69345  23524934.9274   23524936.9544
      2321.2814       1808.7914
   1447890.17247   1140332.66746  20974010.5524   20974012.5794
     -1070.4844       -834.1444
  -6543627.04246  -4977334.87146  22545801.5134   22545803.8214
      1368.5944       1066.4374
    866979.47844    605619.65742  24511895.6534   24511898.2314
     -2342.1254      -1825.0324
   -393186.51647   -271723.71846  21022834.0524   21022835.7514
      -753.3594       -587.0334
   5690347.19246   4428727.51745  23224333.1064   23224336.4464
     -2825.1724      -2201.4334
 96  8 31 19 33  0.0010000  0  8G28G 6G 3G17G21G22G23G26
  -2647587.553 6  -2063055.112 6  20857892.251    20857891.200
      -382.516        -298.064
  11539881.04045   8931687.92045  23153938.1144   23153940.7864
     -4134.1254      -3221.3964
  -4591454.16745  -3473152.01645  23511717.4274   23511719.7944
      2309.4224       1799.5504
   1480170.87147   1165486.45847  20980153.1464   20980155.4664
     -1081.3594       -842.6184
  -6584521.54046  -5009200.69046  22538019.7164   22538022.2004
      1358.0634       1058.2314
    937417.43144    660506.32743  24525298.9504   24525302.6424
     -2353.4374      -1833.8474
   -370400.68746   -253968.52346  21027169.4424   21027171.3884
      -765.3754       -596.3964
   5775362.15446   4494972.93645  23240511.4504   23240512.8214
     -2842.1874      -2214.6924
 96  8 31 19 33 30.0010000  0  8G28G 6G 3G17G21G22G23G26
  -2635789.784 6  -2053862.053 6  20860137.321    20860136.177
      -403.937        -314.756
  11664074.48045   9028462.01645  23177570.1694   23177573.2044
     -4145.3754      -3230.1624
  -4660563.09845  -3527003.11545  23498566.2084   23498568.9384
      2297.8754       1790.5524
   1512778.18947   1190894.75747  20986358.1464   20986360.3724
     -1092.3284       -851.1654
  -6625107.91646  -5040826.42346  22530296.5834   22530299.1144
      1347.8754       1050.2924
   1008198.22444    715660.13243  24538768.3104   24538771.6734
     -2365.4064      -1843.1744
   -347261.37347   -235937.88546  21031573.1694   21031575.0674
      -777.0004       -605.4554
   5860892.16646   4561619.69845  23256786.6384   23256788.0094
     -2859.7194      -2228.3524
 96  8 31 19 34  0.0010000  0  8G28G 6G 3G17G21G22G23G26
  -2623356.742 6  -2044173.975 6  20862503.228    20862502.146
      -425.078        -331.230
  11788591.69045   9125488.29945  23201266.0914   23201267.7434
     -4155.8754      -3238.3444
  -4729323.38445  -3580582.52245  23485482.0284   23485484.5484
      2286.0474       1781.3354
   1545700.35347   1216548.38347  20992623.3494   20992625.4814
     -1102.5784       -859.1524
  -6665399.65746  -5072222.55746  22522629.5364   22522632.1734
      1338.1564       1042.7194
   1079334.19644    771090.72242  24552305.4504   24552308.6384
     -2377.2344      -1852.3904
   -323785.85547   -217645.26846  21036040.1534   21036042.0874
      -788.0474       -614.0624
   5946937.89646   4628668.30145  23273161.0994   23273162.7284
     -2876.7504      -2241.6234
 96  8 31 19 34 30.0010000  0  8G28G 6G 3G17G21G22G23G26
  -2610283.590 6  -2033987.108 6  20864991.083    20864989.935
      -446.578        -347.983
  11913424.25045   9222760.36545  23225020.2714   23225023.7864
     -4166.1874      -3246.3804
  -4797722.60045  -3633880.58945  23472467.0674   23472470.0794
      2273.9844       1771.9364
   1578931.85247   1242443.05047  20998947.0284   20998949.1964
     -1112.9694       -867.2484
  -6705394.49146  -5103387.34346  22515018.3174   22515021.0604
      1328.0314       1034.8304
   1150843.43344    826812.15642  24565912.6854   24565915.7904
     -2390.3444      -1862.6064
   -299980.15947   -199095.37146  21040570.4664   21040572.2594
      -799.3594       -622.8774
   6033497.07946   4696116.98545  23289632.1614   23289634.8454
     -2893.9534      -2255.0284
 96  8 31 19 35  0.0010000  0  8G28G 6G 3G17G21G22G23G26
  -2596567.940 6  -2023299.596 6  20867601.028    20867600.099
      -467.859        -364.566
  12038553.67645   9320263.72145  23248831.4814   23248834.3174
     -4175.7974      -3253.8684
  -4865773.68445  -3686907.38245  23459516.8104   23459518.7674
      2262.7664       1763.1944
   1612465.32847   1268573.02547  21005328.4034   21005330.8064
     -1122.7194       -874.8464
  -6745090.72646  -5134319.45646  22507464.5364   22507467.3494
      1318.3594       1027.2934
   1222748.38744    882841.95742  24579597.3024   24579598.8494
     -2403.3444      -1872.7354
   -275816.49447   -180266.54146  21045168.6614   21045170.3374
      -811.7504       -632.5324
   6120566.83446   4763963.56045  23306200.6224   23306203.7514
     -2910.7504      -2268.1174
 96  8 31 19 35 30.0010000  0  8G28G 6G 3G17G21G22G23G26
  -2582207.897 6  -2012109.960 6  20870333.649    20870332.731
      -489.375        -381.331
  12163966.92745   9417988.27745  23272697.4034   23272700.9544
     -4184.9844      -3261.0274
  -4933479.66345  -3739665.26645  23446632.5754   23446635.5174
      2250.8914       1753.9414
   1646305.85947   1294942.25847  21011767.8024   21011769.8414
     -1133.0944       -882.9304
  -6784487.10246  -5165017.89946  22499967.2554   22499970.0094
      1308.1254       1019.3184
   1295048.86844    939179.93842  24593355.2084   24593359.2514
     -2416.5944      -1883.0604
   -251264.50646   -161135.11946  21049840.6064   21049842.4814
      -824.9534       -642.8214
   6208150.22746   4832210.31345  23322867.8804   23322870.3644
     -2927.9374      -2281.5104
 96  8 31 19 36  0.0010000  0  8G28G 6G 3G17G21G22G23G26
  -2567207.306 6  -2000421.194 6  20873188.134    20873187.138
      -510.750        -397.987
  12289649.70745   9515922.79745  23296614.0364   23296618.0324
     -4193.9694      -3268.0284
  -5000825.75345  -3792142.69545  23433817.7864   23433820.6104
      2238.7344       1744.4684
   1680452.75747   1321550.21947  21018266.0134   21018268.1224
     -1143.6094       -891.1244
  -6823573.00246  -5195474.42946  22492529.5834   22492531.9624
      1297.5314       1011.0634
   1367732.58944    995816.53542  24607187.1384   24607189.7044
     -2428.9224      -1892.6664
   -226318.38046   -141696.57746  21054587.8494   21054589.8174
      -838.3284       -653.2434
   6296233.78645   4900846.85345  23339628.1064   23339630.5914
     -2944.3124      -2294.2694
 96  8 31 19 36 30.0010000  0  8G28G 6G 3G17G21G22G23G26
  -2551558.176 6  -1988227.076 6  20876166.032    20876165.075
      -532.297        -414.777
  12415609.29245   9614073.07045  23320583.7164   23320585.6854
     -4203.0784      -3275.1264
  -5067802.44745  -3844332.31845  23421072.3414   23421074.9664
      2226.6884       1735.0814
   1714927.65347   1348413.76747  21024826.3804   21024828.6304
     -1154.5004       -899.6104
  -6862339.29346  -5225681.91446  22485153.0134   22485155.1464
      1287.0004       1002.8574
   1440786.23444   1052741.39043  24621087.5524   24621092.4974
     -2440.9064      -1902.0054
   -200959.49246   -121936.40346  21059413.4194   21059415.3884
      -852.1564       -664.0184
   6384813.45346   4969869.97045  23356485.1304   23356487.3684
     -2960.7034      -2307.0414
 96  8 31 19 37  0.0010000  0  8G28G 6G 3G17G21G22G23G26
  -2535261.531 6  -1975528.399 6  20879267.228    20879266.138
      -553.984        -431.676
  12541845.27845   9712438.64845  23344605.3804   23344608.8964
     -4212.6094      -3282.5534
  -5134416.92645  -3896239.68645  23408395.5834   23408397.6694
      2214.3134       1725.4384
   1749732.18947   1375534.18147  21031449.2634   21031451.5834
     -1165.7504       -908.3774
  -6900784.32546  -5255639.06446  22477836.6614   22477839.1344
      1276.1254        994.3834
   1514184.15544   1109934.52541  24635054.8024   24635059.4894
     -2451.9064      -1910.5764
   -175181.21146   -101849.43746  21064319.0674   21064320.8494
      -866.0944       -674.8784
   6473881.90545   5039273.93145  23373433.4974   23373434.9274
     -2977.0624      -2319.7894
 96  8 31 19 37 30.0010000  0  8G28G 6G 3G17G21G22G23G26
  -2518321.937 6  -1962328.723 6  20882490.763    20882489.552
      -575.391        -448.356
  12668364.15745   9811024.73645  23368681.0524   23368684.6384
     -4222.1414      -3289.9804
  -5200658.33845  -3947856.34045  23395790.6614   23395793.0524
      2201.6094       1715.5404
   1784879.24347   1402921.49047  21038137.3644   21038139.6854
     -1177.4064       -917.4594
  -6938909.69746  -5285347.12346  22470581.8104   22470584.2124
      1265.4534        986.0674
   1587895.06544   1167371.53143  24649082.2244   24649083.4194
     -2462.1094      -1918.5274
   -149002.55446    -81450.48346  21069300.4034   21069302.2674
      -879.0164       -684.9474
   6563432.30146   5109053.41045  23390475.6304   23390477.0604
     -2993.0164      -2332.2204
 96  8 31 19 38  0.0010000  0  8G28G 6G 3G17G21G22G23G26
  -2500729.977 6  -1948620.711 6  20885838.317    20885837.231
      -597.250        -465.390
  12795185.12045   9909846.17345  23392814.8564   23392817.9744
     -4232.4534      -3298.0154
  -5266511.24545  -3999170.27245  23383259.2164   23383261.3844
      2188.8444       1705.5934
   1820393.27047   1430594.74447  21044895.4664   21044897.9624
     -1190.1564       -927.3944
  -6976708.68446  -5314800.87046  22463389.0214   22463391.3764
      1254.7814        977.7524
   1661917.87344   1225051.58643  24663167.8334   24663170.2124
     -2472.5314      -1926.6484
   -122436.25746    -60749.46946  21074355.5604   21074357.6924
      -891.9694       -695.0414
   6653470.63946   5179213.13645  23407610.1304   23407611.6064
     -3009.5004      -2345.0654
 96  8 31 19 38 30.0010000  0  8G28G 6G 3G17G21G22G23G26
  -2482492.888 6  -1934410.001 6  20889308.763    20889307.661
      -618.828        -482.204
  12922302.20945  10008898.36245  23417002.9114   23417007.1654
     -4242.3444      -3305.7224
  -5331997.36946  -4050198.40145  23370797.6224   23370799.3454
      2176.7194       1696.1444
   1856281.58846   1458559.66547  21051724.7244   21051727.2314
     -1202.5944       -937.0864
  -7014207.31746  -5344020.55646  22456252.9894   22456255.2744
      1244.8444        970.0084
   1736241.86644   1282966.33142  24677311.3104   24677314.7784
     -2482.6724      -1934.5504
    -95492.87047    -39754.62146  21079483.2244   21079485.2744
      -904.5474       -704.8424
   6743999.21546   5249754.88845  23424837.3724   23424839.0134
     -3026.0474      -2357.9594
 96  8 31 19 39  0.0010000  0  8G28G 6G 3G17G21G22G23G26
  -2463604.668 6  -1919691.918 6  20892903.095    20892902.021
      -640.531        -499.115
  13049724.20545  10108188.11145  23441251.8494   23441255.0484
     -4252.6094      -3313.7224
  -5397110.63345  -4100935.99045  23358406.5834   23358408.6574
      2163.9384       1686.1854
   1892546.12547   1486817.73547  21058625.8414   21058628.3604
     -1215.2344       -946.9364
  -7051405.44146  -5373006.08546  22449174.6304   22449176.9384
      1235.0634        962.3864
   1810869.11643   1341117.39841  24691512.1144   24691516.6964
     -2492.6724      -1942.3424
    -68170.97746    -18464.83046  21084682.1924   21084684.1384
      -917.0164       -714.5584
   6835028.92046   5320687.10045  23442159.6774   23442162.0094
     -3042.8124      -2371.0234
 96  8 31 19 39 30.0010000  0  8G28G 6G 3G17G21G22G23G26
  -2444058.643 6  -1904461.258 6  20896622.700    20896621.591
      -662.359        -516.124
  13177456.53145  10207719.69645  23465558.9194   23465562.7394
     -4262.6254      -3321.5264
  -5461834.82546  -4151370.40245  23346090.4504   23346092.7004
      2151.2344       1676.2874
   1929196.30547   1515376.31446  21065599.8024   21065602.4974
     -1227.8124       -956.7374
  -7088314.06146  -5401766.03146  22442150.8334   22442153.4584
      1225.6254        955.0324
   1885813.69743   1399515.70843  24705773.5994   24705777.0914
     -2503.6254      -1950.8774
    -40472.42646      3118.45346  21089953.2784   21089955.3064
      -929.4064       -724.2134
   6926573.49846   5392020.51745  23459580.0364   23459581.0324
     -3059.9224      -2384.3554
 96  8 31 19 40  0.0010000  0  8G28G 6G 3G17G21G22G23G26
  -2423868.536 6  -1888728.714 6  20900464.817    20900463.614
      -683.578        -532.658
  13305472.05245  10307471.96645  23489919.0214   23489922.0094
     -4271.6414      -3328.5514
  -5526192.40846  -4201519.16145  23333843.5284   23333845.6384
      2139.2814       1666.9724
   1966202.29246   1544212.13947  21072641.8024   21072644.4034
     -1239.0474       -965.4914
  -7124949.68746  -5430313.24946  22435179.3104   22435181.8994
      1216.8444        948.1904
   1961080.74043   1458165.25742  24720097.7084   24720101.5874
     -2514.2034      -1959.1194
    -12409.97046     24985.29946  21095293.0524   21095295.1034
      -941.5164       -733.6494
   7018619.63946   5463744.74145  23477094.8414   23477096.6344
     -3076.3284      -2397.1394
 96  8 31 19 40 30.0010000  0  8G28G 6G 3G17G21G22G23G26
  -2403032.739 6  -1872493.036 6  20904429.685    20904428.560
      -705.234        -549.533
  13433761.34345  10407437.57245  23514333.0524   23514336.1344
     -4280.6094      -3335.5404
  -5590168.38846  -4251370.54545  23321668.4114   23321671.3414
      2125.9694       1656.5994
   2003537.36147   1573304.39347  21079746.6144   21079749.0994
     -1249.6724       -973.7704
  -7161306.60946  -5458643.29746  22428261.4664   22428263.9504
      1207.0784        940.5804
   2036678.68743   1517072.71043  24734482.0834   24734488.4814
     -2525.5164      -1967.9344
     16027.06446     47144.03446  21100704.4974   21100706.3724
      -954.0004       -743.3774
   7111162.43446   5535855.98545  23494705.3104   23494706.6924
     -3092.8124      -2409.9844
 96  8 31 19 41  0.0010000  0  8G28G 6G 3G17G21G22G23G26
  -2381557.706 6  -1855759.252 6  20908516.192    20908515.185
      -726.422        -566.043
  13562303.51145  10507600.18945  23538793.3964   23538796.1614
     -4288.7814      -3341.9074
  -5653752.61345  -4300916.68245  23309568.3174   23309571.5754
      2112.9064       1646.4204
   2041180.91547   1602637.01947  21086910.3724   21086912.8214
     -1259.9374       -981.7694
  -7197377.91546  -5486750.78846  22421396.8254   22421399.2984
      1197.5784        933.1784
   2112611.88544   1576241.35242  24748932.4664   24748935.6424
     -2536.8444      -1976.7614
     44826.23946     69584.94546  21106184.8334   21106186.7554
      -965.8914       -752.6424
   7204183.21846   5608339.68645  23512407.0604   23512407.8564
     -3108.5944      -2422.2814
 96  8 31 19 41 30.0010000  0  8G28G 6G 3G17G21G22G23G26
  -2359438.096 6  -1838523.206 6  20912725.329    20912724.396
      -748.031        -582.881
  13691093.89145  10607956.20945  23563300.9504   23563303.5054
     -4296.9374      -3348.2634
  -5716941.48346  -4350154.73645  23297544.8334   23297547.2354
      2099.7504       1636.1694
   2079142.50347   1632217.47247  21094134.0054   21094136.3494
     -1270.5624       -990.0494
  -7233142.84446  -5514619.55046  22414590.7634   22414593.3064
      1186.7344        924.7284
   2188907.67844   1635692.55842  24763449.8254   24763453.2714
     -2549.2814      -1986.4534
     73985.01747     92306.08246  21111733.9744   21111735.7904
      -977.8754       -761.9814
   7297680.52645   5681194.74045  23530197.8494   23530199.9704
     -3124.2034      -2434.4444
 96  8 31 19 42  0.0010000  0  8G28G 6G 3G17G21G22G23G26
  -2336673.217 6  -1820784.351 6  20917057.294    20917056.333
      -769.766        -599.817
  13820121.02445  10708496.73445  23587853.7164   23587857.1144
     -4305.1874      -3354.6924
  -5779725.40346  -4399077.25745  23285597.4274   23285598.9974
      2085.7034       1625.2234
   2117417.05647   1662041.78647  21101417.2314   21101419.5524
     -1281.2664       -998.3894
  -7268572.61446  -5542227.14446  22407848.9974   22407851.3534
      1175.1724        915.7184
   2265563.41444   1695424.24343  24778037.9034   24778041.3724
     -2561.1874      -1995.7314
    103495.67246    115301.39146  21117349.3024   21117351.2824
      -989.6724       -771.1734
   7391635.67446   5754406.50145  23548077.7244   23548078.9664
     -3139.6094      -2446.4494
 96  8 31 19 42 30.0010000  0  8G28G 6G 3G17G21G22G23G26
  -2313266.190 6  -1802545.122 6  20921511.532    20921510.521
      -790.984        -616.351
  13949389.25845  10809225.14145  23612452.6924   23612454.5674
     -4313.0004      -3360.7794
  -5842102.86846  -4447683.05145  23273727.2004   23273729.3214
      2072.6724       1615.0694
   2156005.83147   1692110.95647  21108760.4194   21108762.8924
     -1291.7664      -1006.5714
  -7303668.28446  -5569574.40846  22401170.5674   22401172.9464
      1164.2504        907.2084
   2342558.21144   1755420.13643  24792688.6694   24792692.0444
     -2571.9694      -2004.1314
    133347.52246    138562.57446  21123029.9814   21123032.0564
     -1000.5944       -779.6834
   7486038.65146   5827967.23245  23566042.5364   23566042.4194
     -3154.2034      -2457.8214
 96  8 31 19 43  0.0010000  0  8G28G 6G 3G17G21G22G23G26
  -2289207.279 6  -1783797.929 6  20926089.833    20926088.731
      -812.594        -633.190
  14078913.82045  10910153.28645  23637099.4584   23637103.4894
     -4321.7034      -3367.5614
  -5904087.74446  -4495982.95145  23261932.4504   23261934.8414
      2059.8594       1605.0854
   2194934.91647   1722445.29847  21116168.2784   21116170.5754
     -1303.1874      -1015.4714
  -7338428.43446  -5596660.21646  22394555.8254   22394558.0634
      1153.4384        898.7824
   2419883.83744   1815673.79842  24807405.9744   24807410.7904
     -2582.6414      -2012.4474
    163538.24346    162087.80646  21128775.0834   21128776.7474
     -1011.8124       -788.4254
   7580893.14046   5901879.80245  23584092.9664   23584095.3104
     -3169.2194      -2469.5214
 96  8 31 19 43 30.0010000  0  8G28G 6G 3G17G21G22G23G26
  -2264507.577 6  -1764551.420 6  20930790.146    20930788.974
      -834.156        -649.992
  14208695.47945  11011281.74745  23661796.4194   23661800.1104
     -4330.5944      -3374.4894
  -5965688.04646  -4543983.15745  23250209.8334   23250212.2354
      2046.6094       1594.7614
   2234200.14447   1753041.56347  21123640.8254   21123642.7004
     -1314.5164      -1024.2984
  -7372875.32646  -5623501.93246  22388000.8414   22388003.1614
      1142.9844        890.6374
   2497507.87243   1876159.99043  24822176.7004   24822180.9544
     -2592.2814      -2019.9594
    194059.62846    185870.70746  21134583.2714   21134585.0994
     -1023.1094       -797.2284
   7676191.69046   5976138.40745  23602228.5054   23602230.1104
     -3184.2034      -2481.1974
 96  8 31 19 44  0.0010000  0  8G28G 6G 3G17G21G22G23G26
  -2239162.527 6  -1744802.044 6  20935613.153    20935612.099
      -855.562        -666.672
  14338746.67345  11112620.27645  23686546.4744   23686549.1574
     -4339.6094      -3381.5144
  -6026888.24146  -4591671.60545  23238563.3174   23238565.5674
      2033.5164       1584.5584
   2273798.03847   1783897.05347  21131175.8414   21131177.8924
     -1325.3914      -1032.7724
  -7407021.94046  -5650109.66446  22381502.6924   22381505.0714
      1133.6254        883.3444
   2575407.33943   1936860.81943  24836999.2864   24837004.3134
     -2601.0474      -2026.7904
    224919.40747    209917.27946  21140455.7244   21140457.6694
     -1034.4534       -806.0674
   7771948.58045   6050754.10245  23620448.7394   23620449.8064
     -3199.7814      -2493.3364
 96  8 31 19 44 30.0010000  0  8G28G 6G 3G17G21G22G23G26
  -2213175.656 6  -1724552.547 6  20940558.372    20940557.231
      -877.234        -683.559
  14469066.45545  11214167.99545  23711344.2714   23711347.4934
     -4348.5624      -3388.4904
  -6087703.83146  -4639060.35145  23226991.3174   23226994.3534
      2020.4534       1574.3794
   2313724.00847   1815008.19247  21138773.8804   21138776.0714
     -1336.7344      -1041.6114
  -7440899.69446  -5676507.89446  22375056.0444   22375058.5874
      1124.4844        876.2224
   2653567.63643   1997764.84541  24851872.6854   24851876.9154
     -2609.9374      -2033.7184
    256127.30747    234235.12146  21146394.5284   21146396.3684
     -1046.4224       -815.3944
   7868172.81246   6125734.01345  23638760.9274   23638760.6224
     -3215.4844      -2505.5724
 96  8 31 19 45  0.0010000  0  7G28G 6G 3G17G21G23G26
  -2186541.300 6  -1703798.520 6  20945626.708    20945625.536
      -898.641        -700.239
  14599647.78545  11315919.60044  23736193.2474   23736196.3294
     -4357.0164      -3395.0774
  -6148119.65246  -4686137.60645  23215493.9034   23215496.4464
      2006.7974       1563.7384
   2353985.33647   1846380.64347  21146435.2474   21146437.2164
     -1347.5164      -1050.0124
  -7474501.37246  -5702691.00646  22368662.0994   22368664.7354
      1115.3594        869.1114
    287696.13446    258834.21246  21152401.4034   21152403.3964
     -1058.6094       -824.8904
   7964868.94645   6201081.64745  23657160.7244   23657162.7514
     -3231.3284      -2517.9184
 96  8 31 19 45 30.0010000  0  7G28G 6G 3G17G21G23G26
  -2159261.442 6  -1682541.501 6  20950817.997    20950816.708
      -920.297        -717.114
  14730476.44345  11417863.86345  23761089.3724   23761093.6964
     -4365.1564      -3401.4204
  -6208113.99146  -4732886.41445  23204077.9194   23204080.1224
      1992.6884       1552.7444
   2394567.60347   1878003.18647  21154157.5214   21154159.7004
     -1358.1724      -1058.3164
  -7507818.56746  -5728652.43146  22362321.6144   22362324.3334
      1105.4384        861.3804
    319636.55547    283722.85246  21158479.6774   21158481.5284
     -1071.0164       -834.5584
   8062045.88145   6276803.87145  23675652.0754   23675654.8414
     -3247.2814      -2530.3494
 96  8 31 19 46  0.0010000  0  7G28G 6G 3G17G21G23G26
  -2131333.937 6  -1660779.825 6  20956132.419    20956131.060
      -941.750        -733.831
  14861535.64345  11519987.81445  23786029.1924   23786033.5994
     -4372.3444      -3407.0214
  -6267698.90846  -4779316.20245  23192738.8104   23192740.9314
      1979.5474       1542.5044
   2435461.11647   1909868.25547  21161939.1534   21161941.5094
     -1368.2664      -1066.1814
  -7540834.18446  -5754378.86846  22356039.3644   22356042.0604
      1095.3284        853.5024
    351947.20747    308899.98146  21164628.0284   21164630.0324
     -1083.2814       -844.1154
   8159691.04445   6352891.00545  23694233.4894   23694234.6494
     -3262.3914      -2542.1234
 96  8 31 19 46 30.0010000  0  7G28G 6G 3G17G21G23G26
  -2102753.368 6  -1638509.266 6  20961570.997    20961569.778
      -963.219        -750.560
  14992820.64845  11622287.71344  23811011.7394   23811016.6964
     -4379.5164      -3412.6104
  -6326876.21046  -4825428.37145  23181477.7164   23181479.9894
      1965.9224       1531.8874
   2476677.57247   1941984.96247  21169782.4814   21169784.9074
     -1379.0624      -1074.5944
  -7573529.58746  -5779855.79446  22349817.3964   22349820.2204
      1084.7034        845.2234
    384634.01347    334370.21646  21170848.2164   21170850.4424
     -1095.2504       -853.4424
   8257784.49245   6429327.43645  23712899.9584   23712902.2204
     -3276.6254      -2553.2144
 96  8 31 19 47  0.0010000  0  7G28G 6G 3G17G21G23G26
  -2073529.342 6  -1615737.312 6  20967132.134    20967131.052
      -985.281        -767.752
  15124318.60145  11724753.50345  23836035.0524   23836038.3804
     -4387.2664      -3418.6494
  -6385637.68546  -4871216.51245  23170296.3414   23170297.6654
      1951.2504       1520.4554
   2518213.04947   1974350.26247  21177686.6144   21177689.0174
     -1390.2344      -1083.3004
  -7605904.69346  -5805083.12846  22343656.5674   22343659.2514
      1073.5004        836.4944
    417676.78747    360117.82546  21177136.4194   21177138.1534
     -1107.7974       -863.2184
   8356305.00045   6506096.65645  23731646.9584   23731649.3494
     -3291.6414      -2564.9154
 96  8 31 19 47 30.0010000  0  7G28G 6G 3G17G21G23G26
  -2043648.610 6  -1592453.637 6  20972818.329    20972817.192
     -1006.812        -784.529
  15256044.94645  11827397.31445  23861101.7164   23861106.1694
     -4394.5624      -3424.3344
  -6443967.95746  -4916668.65645  23159196.4584   23159198.5324
      1937.4224       1509.6794
   2560086.23347   2006978.70547  21185654.9974   21185657.2824
     -1401.4224      -1092.0174
  -7637955.17746  -5830057.51946  22337557.3104   22337559.8534
      1063.2194        828.4824
    451080.82447    386146.94446  21183492.6614   21183494.4314
     -1119.0944       -872.0214
   8455261.78745   6583205.79745  23750478.8644   23750481.2314
     -3305.3914      -2575.6294
 96  8 31 19 48  0.0010000  0  7G28G 6G 3G17G21G23G26
  -2013128.901 6  -1568672.060 6  20978626.056    20978624.974
     -1028.141        -801.149
  15387988.55745  11930210.38144  23886209.7244   23886213.7314
     -4402.1254      -3430.2274
  -6501888.08146  -4961801.20445  23148175.0134   23148176.4544
      1923.4534       1498.7954
   2602292.67047   2039866.82847  21193686.3644   21193688.5564
     -1412.7504      -1100.8444
  -7669712.59246  -5854803.54646  22331514.6464   22331516.8604
      1053.7974        821.1404
    484812.85647    412431.63946  21189911.5364   21189913.3534
     -1129.8444       -880.3984
   8554620.96545   6660628.49745  23769387.1464   23769388.1884
     -3318.9224      -2586.1734
 96  8 31 19 48 30.0010000  0  7G28G 6G 3G17G21G23G26
  -1981962.739 6  -1544386.753 6  20984556.888    20984555.692
     -1049.687        -817.938
  15520168.48145  12033207.61944  23911362.1694   23911365.6964
     -4409.7814      -3436.1934
  -6559365.50846  -5006588.80445  23137235.8964   23137238.5094
      1908.2974       1486.9854
   2644858.93947   2073035.33847  21201786.3254   21201788.7514
     -1425.1094      -1110.4754
  -7701190.77146  -5879331.98346  22325524.5444   22325526.9234
      1044.6724        814.0304
    518865.25847    438965.97546  21196391.7634   21196393.5324
     -1140.3594       -888.5924
   8654403.36045   6738381.01345  23788373.4114   23788375.7674
     -3333.3594      -2597.4234
 96  8 31 19 49  0.0010000  0  7G28G 6G 3G17G21G23G26
  -1950148.495 6  -1519596.451 6  20990610.962    20990609.880
     -1071.172        -834.679
  15652575.87545  12136382.08144  23936558.9584   23936564.0324
     -4417.2344      -3442.0014
  -6616390.98446  -5051024.22345  23126385.0994   23126387.3604
      1893.5474       1475.4914
   2687790.97947   2106488.87247  21209955.5754   21209958.2944
     -1437.0004      -1119.7404
  -7732389.43346  -5903642.61546  22319587.3174   22319589.7904
      1035.2344        806.6764
    553237.62747    465749.63546  21202932.5604   21202934.5404
     -1150.9694       -896.8594
   8754628.55845   6816478.51945  23807447.3104   23807450.1814
     -3348.2664      -2609.0384
 96  8 31 19 49 30.0010000  0  7G28G 6G 3G17G21G23G26
  -1917691.098 6  -1494304.989 6  20996787.341    20996786.333
     -1092.531        -851.323
  15785202.41045  12239727.31144  23961797.8024   23961800.7674
     -4424.2194      -3447.4434
  -6672977.70246  -5095117.74345  23115617.3564   23115619.0444
      1879.1254       1464.2534
   2731081.47047   2140221.71447  21218193.8414   21218196.3374
     -1448.9064      -1129.0184
  -7763299.73546  -5927728.55546  22313704.8104   22313707.3534
      1025.5944        799.1644
    587922.74547    492776.99746  21209532.9504   21209534.4974
     -1161.2194       -904.8464
   8855294.33046   6894919.37445  23826603.3414   23826604.2674
     -3362.6564      -2620.2524
 96  8 31 19 50  0.0010000  0  7G28G 6G 3G17G21G23G26
  -1884583.192 6  -1468506.638 6  21003087.548    21003086.513
     -1114.391        -868.356
  15918040.02945  12343237.01945  23987075.9664   23987079.1884
     -4431.2814      -3452.9464
  -6729120.60946  -5138865.46145  23104933.4114   23104934.9234
      1864.0004       1452.4684
   2774735.01347   2174237.44647  21226501.1534   21226503.5674
     -1461.0164      -1138.4544
  -7793907.08446  -5951578.42546  22307880.9814   22307883.7124
      1015.1094        790.9944
    622926.99847    520053.03146  21216194.2634   21216195.8924
     -1172.1094       -913.3324
   8956404.04145   6973706.13445  23845842.6854   23845845.1104
     -3377.6724      -2631.9524
 96  8 31 19 50 30.0010000  0  8G28G 6G 3G17G 1G21G23G26
  -1850826.943 6  -1442203.086 6  21009511.208    21009510.106
     -1135.906        -885.122
  16051067.83344  12446894.91943  24012389.9274   24012394.3454
     -4437.1094      -3457.4884
  -6784821.58946  -5182268.80745  23094333.8804   23094335.1814
      1849.6724       1441.3034
   2818739.95047   2208526.99847  21234874.8414   21234877.2434
     -1472.4064      -1147.3304
    -14778.18854                  24656351.5284
      2956.0004
  -7824193.72846  -5975178.38846  22302117.4814   22302120.2944
      1004.0314        782.3624
    658258.69346    547584.22646  21222917.2634   21222919.0564
     -1183.4064       -922.1354
   9057955.95945   7052837.43644  23865167.8724   23865170.4384
     -3392.2194      -2643.2874
 96  8 31 19 51  0.0010000  0  8G28G 6G 3G17G 1G21G23G26
  -1816425.930 6  -1415397.115 6  21016057.528    21016056.396
     -1157.344        -901.826
  16184278.18645  12550695.08145  24037739.5604   24037744.2944
     -4443.5164      -3462.4804
  -6840100.13646  -5225342.98845  23083814.4034   23083816.6774
      1835.6724       1430.3944
   2863076.17347   2243074.70047  21243311.7084   21243314.1574
     -1483.1724      -1155.7184
   -103404.99244                  24639486.9194
      2952.5004
  -7854143.25546  -5998515.66546  22296418.5214   22296421.1104
       992.8444        773.6444
    693938.73646    575386.84746  21229706.7164   21229708.5674
     -1195.0164       -931.1814
   9159934.70245   7132301.41545  23884573.9114   23884576.2674
     -3406.1874      -2654.1724
 96  8 31 19 51 30.0010000  0  8G28G 6G 3G17G 1G21G23G26
  -1781377.638 6  -1388086.777 6  21022727.028    21022725.935
     -1179.281        -918.920
  16317685.04345  12654648.32043  24063126.3104   24063130.8214
     -4450.3444      -3467.8004
  -6894955.91046  -5268087.73645  23073376.1464   23073378.7824
      1821.3444       1419.2294
   2907743.26447   2277880.21047  21251811.7084   21251814.0174
     -1494.6724      -1164.6794
   -191922.55945    -39073.36153  24622642.5834   24622647.1064
      2948.4064       2297.4594
  -7883770.76946  -6021602.01946  22290780.8644   22290783.2314
       982.3914        765.4994
    729972.90946    603465.42146  21236563.8644   21236565.7284
     -1207.3284       -940.7754
   9262327.96245   7212088.31045  23904058.0754   23904059.9034
     -3420.1094      -2665.0204
 96  8 31 19 52  0.0020000  0  8G28G 6G 3G17G 1G21G23G26
  -1745676.190 6  -1360267.482 6  21029520.838    21029519.658
     -1200.469        -935.430
  16451303.72545  12758766.67044  24088553.8694   24088557.9124
     -4457.0784      -3473.0484
  -6949393.68246  -5310506.76545  23063016.2364   23063018.5334
      1807.9844       1408.8194
   2952749.65047   2312950.11346  21260375.7914   21260378.1934
     -1505.4064      -1173.0444
   -280309.92744   -107946.53043  24605823.2364   24605828.4164
      2944.1414       2294.1364
  -7913094.28346  -6044451.49746  22285200.1354   22285202.5964
       972.7034        757.9504
    766377.58447    631832.69446  21243491.6584   21243493.5214
     -1219.2504       -950.0654
   9365141.72445   7292202.92145  23923623.9244   23923625.5644
     -3433.6254      -2675.5524
 96  8 31 19 52 30.0020000  0  8G28G 6G 3G17G 1G21G23G26
  -1709338.962 6  -1331952.778 6  21036435.545    21036434.213
     -1221.641        -951.928
  16585127.89044  12863045.10644  24114018.8694   24114023.0764
     -4464.2344      -3478.6244
  -7003428.24746  -5352611.60945  23052734.6744   23052736.8304
      1794.6254       1398.4094
   2998082.58047   2348274.47146  21269002.6824   21269005.0964
     -1516.5164      -1181.7004
   -368563.20044   -176715.21043  24589028.7364   24589032.9674
      2939.6724       2290.6534
  -7942128.40546  -6067075.47646  22279675.6044   22279677.8544
       963.4384        750.7314
    803142.79447    660480.90446  21250487.8144   21250489.5614
     -1231.3754       -959.5134
   9468359.11045   7372632.01245  23943264.4004   23943267.7294
     -3447.1094      -2686.0594
 96  8 31 19 53  0.0020000  0  8G28G 6G 3G17G 1G21G23G26
  -1672369.046 6  -1303145.071 6  21043470.580    21043469.354
     -1242.937        -968.523
  16719168.54445  12967492.23544  24139526.7604   24139531.0724
     -4471.7034      -3484.4444
  -7057054.64046  -5394398.39945  23042529.1664   23042531.4394
      1780.4534       1387.3664
   3043747.78147   2383857.72146  21277692.5414   21277694.8614
     -1527.8284      -1190.5154
   -456686.52444   -245382.67743  24572259.8074   24572266.4864
      2935.3594       2287.2934
  -7970906.42546  -6089499.89546  22274199.2364   22274201.5804
       955.1254        744.2534
    840259.72546    689403.22546  21257551.0494   21257552.7254
     -1242.9064       -968.4984
   9571972.68145   7453369.82644  23962981.0414   23962983.5614
     -3460.4374      -2696.4454
 96  8 31 19 53 30.0020000  0  8G28G 6G 3G17G 1G21G23G26
  -1634762.893 6  -1273841.591 6  21050626.775    21050625.713
     -1263.984        -984.923
  16853424.21245  13072106.91944  24165074.8934   24165077.7404
     -4478.4844      -3489.7284
  -7110251.42446  -5435850.43145  23032406.3544   23032408.4394
      1766.0314       1376.1284
   3089754.79647   2419707.34346  21286447.4084   21286450.1154
     -1539.0784      -1199.2824
   -544685.47344   -313953.18843  24555513.9714   24555518.5064
      2931.3444       2284.1644
  -7999429.87746  -6111725.94646  22268771.5184   22268773.6504
       946.4694        737.5084
    877715.72346    718589.66446  21264678.6664   21264680.4824
     -1253.9374       -977.0944
   9675989.07445   7534421.50145  23982775.2294   23982778.6974
     -3473.7974      -2706.8554
 96  8 31 19 54  0.0020000  0  8G28G 6G 3G17G 1G21G23G26
  -1596520.792 6  -1244042.573 6  21057904.107    21057902.986
     -1285.453       -1001.652
  16987890.33444  13176885.60144  24190662.7054   24190665.7754
     -4485.8754      -3495.4874
  -7163003.65446  -5476956.04445  23022368.4794   23022370.8224
      1750.7034       1364.1844
   3136098.80947   2455819.54346  21295266.6274   21295268.9364
     -1550.4534      -1208.1454
   -632559.80644   -382426.57943  24538791.4864   24538796.1624
      2927.2814       2280.9984
  -8027670.79946  -6133731.84646  22263397.3774   22263399.6154
       936.1884        729.4974
    915493.46846    748026.86846  21271867.5494   21271869.5294
     -1264.5004       -985.3254
   9780408.79545   7615787.51245  24002647.2754   24002648.5644
     -3487.4224      -2717.4724
 96  8 31 19 54 30.0020000  0  8G28G 6G 3G17G 1G21G23G26
  -1557637.924 6  -1213744.255 6  21065303.303    21065302.127
     -1307.062       -1018.490
  17122568.68045  13281829.62143  24216291.0254   24216294.9284
     -4492.9844      -3501.0274
  -7215280.66746  -5517691.36545  23012419.7994   23012421.4394
      1734.1724       1351.3034
   3182778.48747   2492193.31046  21304149.1744   21304151.7524
     -1561.7344      -1216.9364
   -720319.56144   -450810.72544  24522091.2134   24522096.0184
      2923.0634       2277.7114
  -8055604.56446  -6155498.40046  22258081.5804   22258083.7014
       925.7974        721.4004
    953576.77446    777702.17146  21279114.4554   21279116.6234
     -1274.6874       -993.2634
   9885227.71345   7697464.60345  24022592.9324   24022593.6464
     -3500.7664      -2727.8694
 96  8 31 19 55  0.0020000  0  8G28G 6G 3G17G 1G21G23G26
  -1518112.238 6  -1182945.036 6  21072824.889    21072823.627
     -1327.984       -1034.793
  17257452.73344  13386933.95344  24241958.7444   24241962.9044
     -4499.2814      -3505.9334
  -7267068.89246  -5558045.82345  23002565.5574   23002567.4084
      1718.5164       1339.1034
   3229786.32747   2528822.77747  21313094.9554   21313097.0064
     -1572.1414      -1225.0454
   -807958.91145   -519101.01543  24505414.6824   24505418.6664
      2919.5474       2274.9724
  -8083227.26246  -6177022.56446  22252824.9634   22252827.2254
       915.5164        713.3894
    991956.01447    807608.06546  21286418.0644   21286419.9044
     -1283.9374      -1000.4714
   9990446.61045   7779453.25145  24042616.2294   24042619.6974
     -3513.8284      -2738.0484
 96  8 31 19 55 30.0020000  0  8G28G 6G 3G17G 1G21G23G26
  -1477948.614 6  -1151648.725 6  21080467.736    21080466.518
     -1349.172       -1051.303
  17392538.88845  13492195.73743  24267664.9394   24267669.2754
     -4505.9064      -3511.0964
  -7318386.86146  -5598033.83845  22992799.8694   22992801.9904
      1703.2034       1327.1714
   3277125.03647   2565710.07446  21322103.0184   21322105.3614
     -1583.3594      -1233.7874
   -895475.49844   -587295.65843  24488760.2834   24488766.0024
      2915.4384       2271.7694
  -8110516.57646  -6198286.95046  22247631.5414   22247634.0964
       904.2974        704.6474
   1030623.89047    837738.87346  21293776.2134   21293777.7134
     -1293.5004      -1007.9224
  10096069.10445   7861756.48545  24062715.3304   24062716.3144
     -3527.1564      -2748.4334
 96  8 31 19 56  0.0020000  0  8G28G 6G 3G17G 1G21G23G26
  -1437148.547 6  -1119856.483 6  21088231.889    21088230.650
     -1370.625       -1068.019
  17527819.65644  13597609.18743  24293407.2524   24293411.4244
     -4512.5314      -3516.2584
  -7369244.23446  -5637662.95045  22983121.6894   22983123.3894
      1687.5784       1314.9964
   3324804.22347   2602862.67746  21331175.8144   21331178.0644
     -1595.1254      -1242.9554
   -982872.36845   -655397.02943  24472129.4474   24472133.5724
      2911.2194       2268.4824
  -8137475.24346  -6219293.69246  22242501.9474   22242504.6784
       893.3134        696.0884
   1069581.41647    868095.38446  21301189.5804   21301191.5024
     -1303.5164      -1015.7264
  10202088.49146   7944368.97345  24082890.6894   24082891.7684
     -3540.4694      -2758.8074
 96  8 31 19 56 30.0020000  0  8G28G 6G 3G17G 1G21G23G26
  -1395715.155 6  -1087570.742 6  21096116.475    21096115.229
     -1391.703       -1084.444
  17663280.23644  13703162.75343  24319185.8224   24319189.9824
     -4518.1724      -3520.6534
  -7419642.18746  -5676934.08545  22973530.8854   22973533.1934
      1672.4224       1303.1864
   3372831.06847   2640286.17647  21340315.3774   21340317.7324
     -1606.9224      -1252.1474
  -1070145.03245   -723401.59543  24455522.2834   24455527.1114
      2906.7974       2265.0374
  -8164132.54046  -6240065.60146  22237429.1354   22237431.5724
       883.7664        688.6494
   1108840.99547    898687.25346  21308660.2444   21308662.0964
     -1313.8594      -1023.7874
  10308492.23345   8027280.96644  24103136.9004   24103139.5374
     -3553.1874      -2768.7184
 96  8 31 19 57  0.0020000  0  8G28G 6G 3G17G 1G21G23G26
  -1353651.125 6  -1054793.594 6  21104120.990    21104119.619
     -1412.469       -1100.625
     49737.80154                  24344993.1274
     -4522.8284
  -7469601.50546  -5715863.40245  22964024.5724   22964026.7054
      1658.2504       1292.1434
   3421215.81347   2677988.56446  21349522.7754   21349525.2954
     -1618.6254      -1261.2664
  -1157291.46044   -791307.78644  24438937.9554   24438942.9124
      2903.1414       2262.1884
  -8190505.54546  -6260615.97946  22232410.1824   22232412.6434
       874.5164        681.4414
   1148412.86147    929522.47046  21316190.5804   21316192.4084
     -1324.1254      -1031.7864
  10415268.20745   8110483.00245  24123456.7754   24123457.9824
     -3565.0474      -2777.9594
 96  8 31 19 57 30.0020000  0  8G28G 6G 3G17G 1G21G23G26
  -1310959.974 6  -1021527.784 6  21112244.818    21112243.408
     -1433.516       -1117.025
    185495.28044      7051.28353  24370827.2604   24370830.6584
     -4527.3594      -3527.8124
  -7519122.63346  -5754451.29445  22954600.5104   22954602.3734
      1643.0944       1280.3334
   3469953.53947   2715965.99747  21358797.2444   21358799.5294
     -1630.3754      -1270.4224
  -1244325.96445   -859126.80743  24422376.8614   24422382.0294
      2899.2974       2259.1924
  -8216600.31446  -6280949.55346  22227445.0334   22227447.4124
       865.3754        674.3184
   1188293.35247    960598.16746  21323779.8144   21323781.6664
     -1334.4844      -1039.8584
  10522393.72645   8193957.42745  24143840.7754   24143842.8964
     -3576.5314      -2786.9074
 96  8 31 19 58  0.0020000  0  8G28G 6G 3G17G 1G21G23G26
  -1267642.808 6   -987774.167 6  21120487.826    21120486.393
     -1454.422       -1133.316
    321373.08044    112929.97043  24396683.8144   24396689.5684
     -4531.4374      -3530.9904
  -7568184.62946  -5792681.39345  22945264.7684   22945267.1824
      1627.4844       1268.1704
   3519026.06847   2754204.32846  21368134.9864   21368137.3774
     -1641.2664      -1278.9084
  -1331247.45444   -926857.74044  24405835.5254   24405840.1074
      2895.1884       2255.9904
  -8242433.26546  -6301079.12046  22222529.0414   22222531.1044
       856.6414        667.5124
   1228478.48246    991911.24846  21331426.6824   21331428.6744
     -1344.6724      -1047.7964
  10629854.83345   8277693.31944  24164290.2444   24164292.6114
     -3587.7034      -2795.6134
 96  8 31 19 58 30.0020000  0  8G28G 6G 3G17G 1G21G23G26
  -1223687.057 6   -953522.950 6  21128852.264    21128850.955
     -1475.703       -1149.899
    457389.35044    218916.48542  24422566.2524   24422571.5614
     -4536.1254      -3534.6434
  -7616765.27146  -5830536.44445  22936020.0574   22936021.6974
      1611.6254       1255.8124
   3568434.19747   2792704.14647  21377537.4554   21377539.7754
     -1652.3594      -1287.5534
  -1418027.78044   -994478.66143  24389321.4794   24389326.3544
      2890.5784       2252.3994
  -8267991.71546  -6320994.78046  22217665.3694   22217667.9004
       847.4064        660.3174
   1268981.20247   1023471.80346  21339134.2054   21339136.2564
     -1355.1564      -1055.9664
  10737669.03345   8361704.35545  24184807.5254   24184808.3344
     -3599.8124      -2805.0494
 96  8 31 19 59  0.0020000  0  8G28G 6G 3G17G 1G21G23G26
  -1179104.087 6   -918782.993 6  21137336.104    21137334.986
     -1496.609       -1166.189
    593539.47944    325007.33643  24448476.0574   24448479.9474
     -4540.7974      -3538.2834
  -7664882.36446  -5868030.26545  22926863.3694   22926866.0534
      1595.9844       1243.6244
   3618160.73747   2831452.08046  21386999.7054   21387002.1194
     -1662.7344      -1295.6374
  -1504684.97745  -1062003.67743  24372831.9554   24372836.9244
      2886.3754       2249.1234
  -8293272.78147  -6340694.29246  22212855.1194   22212857.4284
       837.9844        652.9754
   1309781.47247   1055264.21946  21346898.2444   21346900.0964
     -1365.0004      -1063.6364
  10845849.25845   8446000.60743  24205392.6354   24205395.8694
     -3612.4694      -2814.9114
 96  8 31 19 59 30.0020000  0  8G28G 6G 3G17G 1G21G23G26
  -1133893.562 6   -883554.035 6  21145939.400    21145938.291
     -1517.594       -1182.541
    729843.54444    431218.12643  24474413.9474   24474419.5494
     -4546.2974      -3542.5694
  -7712522.84046  -5905152.70346  22917798.6504   22917800.7254
      1579.9694       1231.1444
   3668199.13347   2870443.03146  21396521.5884   21396523.9434
     -1673.3914      -1303.9414
  -1591201.06845  -1129418.70744  24356368.5414   24356372.6314
      2881.1884       2245.0814
  -8318267.27846  -6360170.51146  22208098.2994   22208100.7014
       828.1724        645.3294
   1350878.63547   1087287.97646  21354718.8144   21354720.7834
     -1375.0944      -1071.5024
  10954421.14945   8530602.04244  24226053.3224   24226055.3734
     -3625.8124      -2825.3084
 96  8 31 20  0  0.0020000  0  8G28G 6G 3G17G 1G21G23G26
  -1088051.038 6   -847832.609 6  21154663.049    21154661.713
     -1538.484       -1198.819
    866318.06444    537561.78143  24500383.4794   24500387.4164
     -4552.0784      -3547.0744
  -7759693.80046  -5941909.29945  22908820.5884   22908823.2834
      1564.8594       1219.3714
   3718564.44247   2909688.70847  21406106.2214   21406108.6004
     -1684.2344      -1312.3904
  -1677555.89645  -1196708.06945  24339935.2134   24339940.1934
      2875.8914       2240.9544
  -8342967.69646  -6379417.57146  22203397.7994   22203400.0964
       818.5314        637.8174
   1392288.13246   1119555.11146  21362598.6744   21362600.4674
     -1385.3914      -1079.5254
  11063401.52745   8615521.82545  24246791.8774   24246794.3264
     -3639.4064      -2835.9014
 96  8 31 20  0 30.0020000  0  8G28G 6G 3G17G 1G21G23G26
  -1041580.530 6   -811621.846 6  21163506.166    21163504.760
     -1559.750       -1215.390
   1002967.87944    644041.99143  24526387.6744   24526390.7684
     -4558.0784      -3551.7494
  -7806415.32746  -5978315.65446  22899931.4004   22899933.5684
      1549.8594       1207.6834
   3769262.47247   2949193.65347  21415753.4634   21415756.0534
     -1695.7974      -1321.4004
  -1763757.23145  -1263877.86643  24323531.3614   24323537.3144
      2870.8134       2236.9974
  -8367377.51246  -6398438.20146  22198753.1974   22198755.6354
       808.6414        630.1104
   1434004.59046   1152061.43746  21370537.0024   21370538.8544
     -1395.9064      -1087.7194
  11172786.65045   8700756.92945  24267608.1974   24267609.9324
     -3653.0164      -2846.5064
 96  8 31 20  1  0.0020000  0  8G28G 6G 3G17G 1G21G23G26
   -994477.706 6   -774918.370 6  21172469.451    21172468.111
     -1580.406       -1231.485
   1139786.72944    750653.91843  24552423.7684   24552428.4324
     -4563.1724      -3555.7184
  -7852694.68846  -6014377.50146  22891124.6584   22891126.7684
      1535.4534       1196.4574
   3820300.22347   2988963.31747  21425466.1194   21425468.1934
     -1706.5944      -1329.8134
  -1849817.14045  -1330937.48143  24307154.2994   24307157.5684
      2866.5004       2233.6364
  -8391494.01746  -6417230.26246  22194163.6194   22194166.0924
       799.2344        622.7804
   1476036.51846   1184813.57446  21378535.3074   21378537.0414
     -1406.2664      -1095.7914
  11282563.35045   8786297.23045  24288496.9324   24288499.2754
     -3665.2814      -2856.0634
 96  8 31 20  1 30.0020000  0  8G28G 6G 3G17G 1G21G23G26
   -946749.646 6   -737727.695 6  21181551.760    21181550.518
     -1601.266       -1247.739
   1276760.81444    857386.80943  24578489.5724   24578494.5534
     -4568.0474      -3559.5174
  -7898536.46146  -6050098.36145  22882400.6664   22882402.9754
      1520.8444       1185.0734
   3871667.16747   3028989.49146  21435240.2294   21435242.7604
     -1717.8124      -1338.5554
  -1935743.54545  -1397893.02343  24290803.1044   24290807.3464
      2862.2814       2230.3494
  -8415324.87246  -6435799.75346  22189628.5964   22189631.0334
       789.7664        615.4024
   1518388.14846   1217814.83946  21386594.4794   21386596.4004
     -1417.0314      -1104.1804
  11392697.04045   8872115.57943  24309454.4474   24309458.1274
     -3676.5624      -2864.8544
 96  8 31 20  2  0.0020000  0  8G28G 6G 3G17G 1G21G23G26
   -898396.915 6   -700050.266 6  21190753.006    21190751.697
     -1622.078       -1263.957
   1413869.16044    964224.33243  24604580.2294   24604585.6664
     -4572.2974      -3562.8294
  -7943934.94346  -6085473.78746  22873761.2444   22873763.2604
      1505.7344       1173.3004
   3923376.23147   3069282.26846  21445080.1744   21445082.7994
     -1729.1874      -1347.4194
  -2021556.13445  -1464759.87145  24274473.6504   24274479.6274
      2858.7034       2227.5614
  -8438882.54646  -6454156.37346  22185145.7754   22185148.3304
       780.7344        608.3644
   1561061.39247   1251066.71046  21394715.4474   21394717.1354
     -1427.4844      -1112.3254
  11503166.73045   8958195.88444  24330477.6504   24330479.1974
     -3687.7664      -2873.5844
 96  8 31 20  2 30.0020000  0  8G28G 6G 3G17G 1G21G23G26
   -849419.868 6   -661886.353 6  21200073.068    21200071.697
     -1643.062       -1280.308
   1551099.36244   1071156.77943  24630693.7134   24630696.5844
     -4576.2504      -3565.9094
  -7988863.71046  -6120483.20546  22865212.2134   22865214.7794
      1489.5634       1160.6984
   3975424.23247   3109839.13447  21454984.7364   21454987.0924
     -1740.6414      -1356.3434
  -2107259.17345  -1531541.39145  24258164.3224   24258168.2014
      2854.9224       2224.6144
  -8462160.12046  -6472294.73146  22180716.2604   22180718.6864
       771.0944        600.8524
   1604042.93146   1284558.80646  21402894.0964   21402895.9244
     -1438.0164      -1120.5324
  11613967.13444   9044533.90945  24351559.7444   24351562.4164
     -3699.0164      -2882.3504
 96  8 31 20  3  0.0020000  0  8G28G 6G 3G17G 1G21G23G26
   -799813.962 6   -623232.422 6  21209512.732    21209511.580
     -1664.141       -1296.733
   1688445.29144   1178179.41643  24656829.8304   24656835.3384
     -4580.1724      -3568.9654
  -8033301.47846  -6155110.02246  22856755.7134   22856757.7294
      1472.6564       1147.5244
   4027822.00247   3150668.54246  21464956.0644   21464958.3034
     -1752.6724      -1365.7184
  -2192844.65245  -1598231.30343  24241877.7604   24241882.6354
      2850.4534       2221.1324
  -8485145.88146  -6490205.71046  22176342.5494   22176344.9514
       761.1254        593.0844
   1647342.07446   1318298.39546  21411133.8304   21411135.7404
     -1448.5314      -1128.7264
  11725111.89745   9131140.06145  24372711.4944   24372712.7484
     -3710.7974      -2891.5304
 96  8 31 20  3 30.0020000  0  8G28G 6G 3G17G 1G21G23G26
   -749582.213 6   -584090.824 6  21219071.510    21219070.369
     -1684.703       -1312.756
   1825900.26444   1285287.05643  24682987.6044   24682992.8654
     -4583.5164      -3571.5714
  -8077227.37746  -6189337.99746  22848396.8694   22848398.8144
      1455.5784       1134.2174
   4080582.01547   3191780.23546  21474996.0724   21474998.4634
     -1764.6874      -1375.0814
  -2278287.37145  -1664809.95144  24225618.7524   24225622.8424
      2845.5944       2217.3464
  -8507840.44246  -6507889.76946  22172023.6744   22172026.2294
       751.8134        585.8284
   1690936.74147   1352268.25346  21419429.7684   21419431.5494
     -1457.7344      -1135.8974
  11836603.88445   9218016.93345  24393928.5104   24393929.6354
     -3722.0164      -2900.2724
 96  8 31 20  4  0.0020000  0  8G28G 6G 3G17G 1G21G23G26
   -698732.449 6   -544467.655 6  21228747.955    21228746.768
     -1705.344       -1328.839
   1963461.22343   1392477.20943  24709164.2994   24709169.8074
     -4587.2814      -3574.5054
  -8120630.83646  -6223158.86446  22840137.5334   22840139.2214
      1437.8594       1120.4104
   4133700.45047   3233171.20646  21485103.7754   21485105.8384
     -1776.5004      -1384.2864
  -2363569.77145  -1731263.67744  24209390.5724   24209395.2254
      2839.6564       2212.7194
  -8530248.14446  -6525350.31246  22167759.8464   22167762.2604
       741.8914        578.0974
   1734798.05547   1386445.89746  21427776.5574   21427778.1154
     -1466.3444      -1142.6064
  11948439.98244   9305161.99444  24415208.8074   24415212.3224
     -3733.6874      -2909.3674
 96  8 31 20  4 30.0020000  0  8G28G 6G 3G17G 1G21G23G26
   -647259.761 6   -504359.093 6  21238542.979    21238541.736
     -1726.031       -1344.959
   2101143.28944   1499761.74242  24735363.9634   24735368.0884
     -4591.4844      -3577.7804
  -8163496.43346  -6256560.62446  22831980.5334   22831982.4554
      1420.0634       1106.5424
   4187175.92647   3274840.38946  21495280.1434   21495282.5574
     -1788.4534      -1393.6004
  -2448660.96845  -1797568.44445  24193198.4394   24193201.7444
      2833.2814       2207.7524
  -8552350.04746  -6542572.56446  22163553.9944   22163556.3144
       731.9224        570.3294
   1778922.06946   1420828.23846  21436172.5494   21436174.2714
     -1475.1724      -1149.4854
  12060626.17145   9392579.69945  24436558.5414   24436560.2644
     -3745.2664      -2918.3894
 96  8 31 20  5  0.0020000  0  7G28G 3G17G 1G21G23G26
   -595162.257 6   -463763.659 6  21248456.881    21248455.541
     -1746.734       -1361.092
  -8205828.27346  -6289546.46746  22823925.2994   22823927.2794
      1402.4064       1092.7844
   4241017.27247   3316794.67147  21505525.6824   21505528.0844
     -1800.3754      -1402.8904
  -2533545.52845  -1863712.15945  24177045.7914   24177050.1504
      2825.9534       2202.0414
  -8574155.92147  -6559564.14146  22159404.4324   22159406.6824
       722.2034        562.7564
   1823316.62146   1455421.39246  21444620.7914   21444622.7134
     -1484.0314      -1156.3884
  12173160.99645   9480269.13444  24457973.1584   24457974.7644
     -3756.4534      -2927.1064
 96  8 31 20  5 30.0020000  0  7G28G 3G17G 1G21G23G26
   -542449.944 6   -422689.154 6  21258487.744    21258486.463
     -1767.516       -1377.285
  -8247632.63546  -6322121.29046  22815969.9164   22815972.0844
      1384.5474       1078.8684
   4295195.42247   3359011.39847  21515835.5724   21515838.0104
     -1811.4844      -1411.5464
  -2618217.99145  -1929690.62744  24160932.7754   24160936.5144
      2818.8284       2196.4894
  -8595678.21646  -6576334.74846  22155308.6894   22155311.1154
       712.5474        555.2314
   1867977.86446   1490222.35446  21453119.3464   21453121.5144
     -1493.6414      -1163.8764
  12286014.40944   9568206.86943  24479446.1274   24479450.3934
     -3767.2504      -2935.5194
 96  8 31 20  6  0.0020000  0  7G28G 3G17G 1G21G23G26
   -489114.464 6   -381129.062 6  21268637.244    21268635.869
     -1788.219       -1393.417
  -8288909.14646  -6354284.79446  22808115.7294   22808117.4044
      1367.3754       1065.4874
   4349702.94247   3401484.77746  21526207.9794   21526210.2174
     -1822.5624      -1420.1794
  -2702685.01145  -1995509.03145  24144858.3464   24144861.7094
      2812.3754       2191.4614
  -8616911.26046  -6592879.96546  22151267.9394   22151270.7054
       703.0004        547.7924
   1912935.66346   1525254.39746  21461674.6114   21461676.7564
     -1503.7034      -1171.7174
     41532.82855                  24500985.4714
     -3777.9534
 96  8 31 20  6 30.0020000  0  7G28G 3G17G 1G21G23G26
   -435154.842 6   -339082.623 6  21278905.381    21278903.877
     -1808.844       -1409.489
  -8329680.28146  -6386054.51146  22800356.6744   22800358.5724
      1351.1254       1052.8254
   4404552.07447   3444224.35246  21536645.4714   21536647.7914
     -1833.7504      -1428.8964
  -2786968.45645  -2061184.33745  24128820.0104   24128823.8894
      2806.8594       2187.1634
  -8637855.45747  -6609200.11746  22147282.8854   22147285.1464
       693.5784        540.4504
   1958205.35846   1560529.47746  21470289.1194   21470291.3694
     -1513.9374      -1179.6924
    155033.76445                  24522583.4244
     -3788.4374
 96  8 31 20  7  0.0020000  0  7G28G 3G17G 1G21G23G26
   -380575.941 6   -296553.629 6  21289291.393    21289289.971
     -1829.672       -1425.718
  -8369975.01146  -6417452.99146  22792689.3384   22792690.8614
      1335.2814       1040.4794
   4459731.19547   3487221.04946  21547145.4084   21547147.6824
     -1844.7504      -1437.4684
  -2871084.97345  -2126729.59345  24112813.2994   24112817.9864
      2801.0314       2182.6224
  -8658517.46746  -6625300.37846  22143350.7684   22143353.5334
       683.8754        532.8904
   2003781.68046   1596043.48646  21478962.0644   21478964.3264
     -1524.3124      -1187.7764
    268844.43444     82775.43053  24544240.0804   24544242.8464
     -3798.7344      -2960.0534
 96  8 31 20  7 30.0020000  0  7G28G 3G17G 1G21G23G26
   -325380.375 6   -253544.121 6  21299794.818    21299793.385
     -1850.266       -1441.765
  -8409801.16046  -6448486.35246  22785110.4004   22785112.4634
      1319.6724       1028.3164
   4515236.87347   3530472.20847  21557708.0024   21557710.3464
     -1856.0784      -1446.2954
  -2955047.08045  -2192154.53745  24096835.6974   24096840.7134
      2796.3284       2178.9574
  -8678892.57646  -6641177.08446  22139473.3074   22139475.6504
       674.2664        525.4024
   2049655.89046   1631789.61746  21487691.5024   21487693.4124
     -1534.0944      -1195.3984
    382957.69645    171694.87645  24565955.9324   24565959.0374
     -3809.2664      -2968.2594
 96  8 31 20  8  0.0020000  0  7G28G 3G17G 1G21G23G26
   -269564.504 6   -210051.260 6  21310416.213    21310414.807
     -1870.906       -1457.849
  -8449164.73146  -6479159.26046  22777619.7294   22777621.8264
      1304.3594       1016.3844
   4571103.89747   3574005.00146  21568339.1974   21568342.1394
     -1868.5474      -1456.0114
  -3038865.38245  -2257467.44244  24080884.6824   24080889.4864
      2791.4694       2175.1704
  -8698973.43047  -6656824.49746  22135652.2364   22135654.7684
       664.3444        517.6704
   2095814.24846   1667757.16446  21496475.1744   21496477.1784
     -1543.0784      -1202.3994
    497393.73045    260865.77645  24587732.7444   24587736.5294
     -3819.8754      -2976.5264
 96  8 31 20  8 30.0020000  0  7G28G 3G17G 1G21G23G26
   -213133.870 6   -166079.364 6  21321154.592    21321153.299
     -1891.422       -1473.835
  -8488062.86846  -6509469.48846  22770217.8694   22770219.9554
      1288.4384       1003.9774
   4627334.11847   3617820.67546  21579039.5574   21579042.1934
     -1880.3124      -1465.1794
  -3122536.73945  -2322665.80545  24064963.1584   24064967.6234
      2786.2974       2171.1404
  -8718758.51147  -6672241.44046  22131887.2994   22131889.7014
       654.5474        510.0374
   2142225.12147   1703921.47146  21505307.2994   21505309.3854
     -1551.2194      -1208.7424
    612149.53244    350285.76743  24609569.5494   24609572.2684
     -3830.8594      -2985.0854
 96  8 31 20  9  0.0020000  0  7G28G 3G17G 1G21G23G26
   -156079.923 6   -121621.773 6  21332011.557    21332010.338
     -1912.234       -1490.053
  -8526462.00846  -6539390.89346  22762910.5104   22762912.5254
      1271.2194        990.5604
   4683925.05847   3661917.50146  21589808.2214   21589810.5064
     -1892.5004      -1474.6754
  -3206034.13245  -2387728.64745  24049074.1824   24049078.6584
      2780.1254       2166.3314
  -8738255.43347  -6687433.83746  22128177.2364   22128179.8264
       645.1724        502.7314
   2188888.21446   1740282.31646  21514186.7134   21514188.7644
     -1559.7974      -1215.4264
    727239.83845    439966.52743  24631471.6824   24631472.3384
     -3841.9374      -2993.7184
 96  8 31 20  9 30.0020000  0  7G28G 3G17G 1G21G23G26
    -98411.326 6    -76685.235 6  21342985.451    21342984.221
     -1932.203       -1505.613
  -8564339.66446  -6568905.95646  22755702.8544   22755704.6114
      1254.0164        977.1554
   4740872.49646   3706292.10646  21600644.7524   21600647.2714
     -1903.8754      -1483.5394
  -3289354.57845  -2452653.57845  24033219.9474   24033223.4984
      2774.6884       2162.0944
  -8757481.61347  -6702415.27846  22124518.3074   22124520.3114
       636.5784        496.0354
   2235801.32646   1776837.97846  21523113.8544   21523115.7174
     -1567.7034      -1221.5874
    842660.69145    529904.90544  24653434.9084   24653438.5184
     -3852.7974      -3002.1794
 96  8 31 20 10  0.0020000  0  7G28G 3G17G 1G21G23G26
    -40135.777 6    -31275.745 6  21354075.057    21354073.611
     -1952.750       -1521.623
  -8601690.67546  -6598010.62946  22748594.9794   22748596.9124
      1236.0004        963.1174
   4798162.56647   3750933.69846  21611547.4084   21611549.7404
     -1915.2344      -1492.3904
  -3372492.64345  -2517436.42445  24017398.2994   24017401.6274
      2767.7034       2156.6524
  -8776439.65647  -6717187.77246  22120910.9244   22120913.2914
       627.4064        488.8884
   2282964.85847   1813588.77746  21532088.9474   21532090.8814
     -1576.5314      -1228.4664
    958411.83445    620100.49744  24675461.1974   24675464.3034
     -3863.7344      -3010.7024
 96  8 31 20 10 30.0020000  0  7G28G 3G17G 1G21G23G26
     18754.681 6     14612.891 6  21365281.584    21365280.127
     -1973.219       -1537.573
  -8638496.51746  -6626690.50546  22741591.1894   22741592.7834
      1217.8754        948.9944
   4855779.46747   3795829.97346  21622511.1744   21622513.2484
     -1925.9064      -1500.7064
  -3455412.55445  -2582049.27145  24001619.4394   24001623.3544
      2760.2504       2150.8444
  -8795128.39147  -6731750.41346  22117354.8544   22117357.1154
       618.6254        482.0454
   2330403.31846   1850553.80646  21541115.9324   21541117.9004
     -1586.1874      -1235.9904
   1074490.91245    710551.68845  24697551.4244   24697553.9084
     -3874.6874      -3019.2374
 96  8 31 20 11  0.0020000  0  7G28G 3G17G 1G21G23G26
     78255.178 6     60976.884 6  21376604.217    21376602.822
     -1993.547       -1553.413
  -8674762.06346  -6654949.36846  22734689.6894   22734691.6114
      1199.7974        934.9074
   4913726.74947   3840983.67446  21633538.3614   21633540.6464
     -1937.1874      -1509.4974
  -3538109.84845  -2646488.63845  23985882.5964   23985886.2524
      2752.7814       2145.0244
  -8813557.57146  -6746110.80846  22113847.3224   22113849.7364
       609.6724        475.0694
   2378143.93546   1887754.27546  21550200.6824   21550202.6394
     -1596.5164      -1244.0384
   1190884.31745    801247.88844  24719699.6194   24719703.4754
     -3884.8754      -3027.1754
 96  8 31 20 11 30.0020000  0  7G28G 3G17G 1G21G23G26
    138354.951 6    107807.849 6  21388040.979    21388039.486
     -2013.312       -1568.815
  -8710498.36546  -6682795.83446  22727889.6354   22727891.6504
      1182.4844        921.4164
   4971999.97547   3886391.35946  21644627.4394   21644629.6544
     -1948.0004      -1517.9224
  -3620593.28245  -2710761.39345  23970186.5644   23970191.6274
      2745.8754       2139.6434
  -8831711.26247  -6760256.53846  22110393.1744   22110395.6464
       600.3444        467.8004
   2426179.31946   1925184.43246  21559341.7054   21559343.8144
     -1606.0314      -1251.4534
   1307576.18545    892176.54145  24741905.1354   24741909.1434
     -3894.7974      -3034.9074
 96  8 31 20 12  0.0020000  0  7G28G 3G17G 1G21G23G26
    199062.473 6    155112.383 6  21399593.307    21399591.791
     -2033.672       -1584.679
  -8745703.77646  -6710228.61846  22721190.2994   22721192.3854
      1164.6724        907.5374
   5030617.27547   3932067.16146  21655782.1664   21655784.4864
     -1959.7504      -1527.0784
  -3702854.19845  -2774860.74145  23954532.5184   23954535.6004
      2738.2344       2133.6894
  -8849575.14147  -6774176.44346  22106993.9164   22106996.0724
       590.8914        460.4344
   2474509.45346   1962844.27246  21568538.8074   21568540.6114
     -1615.7974      -1259.0624
   1424571.65545    983341.77944  24764168.8304   24764172.7094
     -3904.7344      -3042.6504
 96  8 31 20 12 30.0020000  0  7G28G 3G17G 1G21G23G26
    260377.059 6    202889.959 6  21411261.131    21411259.619
     -2053.859       -1600.410
  -8780376.98646  -6737246.71146  22714592.0104   22714593.8964
      1146.9844        893.7544
   5089590.02747   3978019.93046  21667004.0804   21667006.6704
     -1971.7194      -1536.4044
  -3784895.29245  -2838788.80645  23938920.3614   23938923.8894
      2731.3284       2128.3084
  -8867157.06847  -6787876.64346  22103648.0884   22103650.2094
       581.3134        452.9714
   2523128.77946   2000729.44846  21577790.4944   21577792.2644
     -1625.2814      -1266.4534
   1541863.87045   1074738.33442  24786488.4164   24786492.8464
     -3914.6094      -3050.3454
 96  8 31 20 13  0.0020000  0  7G28G 3G17G 1G21G23G26
    322288.486 6    251132.603 6  21423042.455    21423040.955
     -2073.906       -1616.031
  -8814527.20846  -6763857.27546  22708093.7834   22708095.6354
      1129.4064        880.0574
   5148917.01747   4024248.73846  21678293.8934   21678296.0374
     -1983.6094      -1545.6704
  -3866746.03745  -2902568.53545  23923345.3224   23923348.4284
      2724.9224       2123.3164
  -8884452.45147  -6801353.55846  22100357.2134   22100359.4634
       571.3134        445.1794
   2572014.85846   2038822.48446  21587093.1584   21587095.1744
     -1633.9694      -1273.2224
   1659442.58745   1166358.07843  24808864.5334   24808867.0414
     -3924.3284      -3057.9184
 96  8 31 20 13 30.0020000  0  7G28G 3G17G 1G21G23G26
    384807.873 6    299848.982 6  21434939.350    21434937.814
     -2094.141       -1631.798
  -8848146.50046  -6790054.11746  22701696.1274   22701698.3654
      1111.8444        866.3724
   5208603.31946   4070757.51646  21689651.2134   21689653.9794
     -1995.6724      -1555.0694
  -3948395.31245  -2966191.27645  23907808.2364   23907811.2484
      2718.2814       2118.1414
  -8901439.58447  -6814590.27946  22097124.2364   22097126.7444
       561.1564        437.2654
   2621162.96047   2077119.70146  21596446.0494   21596447.9944
     -1642.7344      -1280.0534
   1777326.83945   1258215.91443  24831296.4714   24831298.4044
     -3934.7344      -3066.0274
 96  8 31 20 14  0.0020000  0  7G28G 3G17G 1G21G23G26
    447925.364 6    349031.411 6  21446950.248    21446948.760
     -2113.844       -1647.151
  -8881248.68746  -6815848.03446  22695397.1114   22695398.6464
      1094.8284        853.1134
   5268646.26247   4117544.20546  21701077.4714   21701079.9324
     -2007.2504      -1564.0914
  -4029854.42645  -3029665.83845  23892306.2914   23892310.7564
      2712.1414       2113.3564
  -8918136.41746  -6827600.79146  22093946.5724   22093949.2564
       551.7344        429.9234
   2670568.91847   2115617.83746  21605847.7364   21605849.7644
     -1651.2034      -1286.6524
   1895509.36645   1350306.14943  24853786.0024   24853788.1704
     -3944.1724      -3073.3814
 96  8 31 20 14 30.0020000  0  7G28G 3G17G 1G21G23G26
    511640.206 6    398679.309 6  21459074.854    21459073.322
     -2133.687       -1662.614
  -8913832.73346  -6841238.19346  22689195.8544   22689198.0574
      1077.5784        839.6714
   5329034.51247   4164599.96146  21712568.8694   21712571.8934
     -2018.4844      -1572.8454
  -4111121.12345  -3092990.47545  23876841.6194   23876844.5724
      2705.8134       2108.4254
  -8934536.66647  -6840380.20146  22090826.0964   22090828.4984
       541.7504        422.1434
   2720236.97447   2154320.21346  21615299.0884   21615301.2094
     -1659.7814      -1293.3364
   2013979.92545   1442620.82843  24876330.5414   24876333.6464
     -3953.6724      -3080.7834
 96  8 31 20 15  0.0020000  0  7G28G 3G17G 1G21G23G26
    575952.677 6    448792.897 6  21471313.189    21471311.713
     -2153.562       -1678.101
  -8945895.59246  -6866222.24146  22683094.5104   22683096.6664
      1060.1564        826.0964
   5389762.51947   4211920.47046  21724124.9864   21724127.4714
     -2029.8444      -1581.6964
  -4192189.52445  -3156160.57345  23861415.0184   23861419.1314
      2698.9384       2103.0684
  -8950640.72346  -6852928.80746  22087761.3384   22087763.4824
       532.1094        414.6314
   2770162.36946   2193223.10846  21624799.3144   21624801.4944
     -1668.3754      -1300.0324
   2132729.67244   1535153.11843  24898927.3384   24898929.4244
     -3962.7194      -3087.8334
 96  8 31 20 15 30.0020000  0  7G28G 3G17G 1G21G23G26
    640855.979 6    499366.867 6  21483663.900    21483662.463
     -2173.109       -1693.332
  -8977435.58146  -6890798.85546  22677092.9394   22677095.0724
      1042.7194        812.5084
   5450830.38546   4259505.79646  21735745.6744   21735748.6504
     -2041.1724      -1590.5244
  -4273049.16045  -3219168.03645  23846027.9164   23846031.9004
      2691.9694       2097.6384
  -8966469.65247  -6865263.03146  22084749.4244   22084751.7914
       523.4224        407.8614
   2820340.77547   2232323.15546  21634348.3694   21634350.3964
     -1676.7344      -1306.5464
   2251747.59945   1627894.29744  24921575.1974   24921577.7644
     -3971.5004      -3094.6754
 96  8 31 20 16  0.0020000  0  7G28G 3G17G 1G21G23G26
    706345.460 6    550397.602 6  21496126.182    21496124.697
     -2192.703       -1708.600
  -9008452.10946  -6914967.57946  22671190.9634   22671193.1074
      1025.1724        798.8354
   5512236.27247   4307354.51646  21747431.2444   21747433.5884
     -2052.3594      -1599.2414
  -4353701.05645  -3282013.60045  23830680.0804   23830684.0534
      2684.9844       2092.1964
  -8982038.86647  -6877394.88246  22081786.9084   22081789.3574
       514.6724        401.0434
   2870771.46746   2271619.78546  21643944.6824   21643946.8144
     -1685.0314      -1313.0114
   2371019.76544   1720833.57743  24944271.6744   24944275.1434
     -3979.8124      -3101.1534
 96  8 31 20 16 30.0020000  0  7G28G 3G17G 1G21G23G26
    772421.232 6    601885.185 6  21508700.025    21508698.502
     -2212.141       -1723.746
  -9038937.85446  -6938722.70846  22665389.4794   22665391.7754
      1007.4844        785.0534
   5573980.50246   4355466.87746  21759180.2754   21759183.1824
     -2063.7974      -1608.1534
  -4434140.58645  -3344693.69545  23815373.1664   23815376.5884
      2677.9064       2086.6804
  -8997349.04047  -6889324.87346  22078873.0024   22078875.5214
       506.2034        394.4444
   2921447.39046   2311107.51346  21653588.0574   21653590.2254
     -1693.1254      -1319.3184
   2490544.95744   1813970.08743  24967016.8614   24967016.5804
     -3988.4064      -3107.8494
 96  8 31 20 17  0.0020000  0  7G28G 3G17G 1G21G23G26
    839082.097 6    653828.689 6  21521385.252    21521383.752
     -2231.609       -1738.916
  -9068894.71246  -6962065.71446  22659688.7914   22659690.7834
       989.8914        771.3434
   5636077.13746   4403853.85146  21770996.8224   21770999.1894
     -2075.7344      -1617.4554
  -4514362.72945  -3407204.37845  23800106.7754   23800110.6784
      2670.5634       2080.9584
  -9012400.90047  -6901053.59246  22076008.8614   22076011.4164
       497.4384        387.6144
   2972369.91246   2350787.39546  21663278.4084   21663280.5184
     -1701.5164      -1325.8564
   2610335.65245   1907313.44741  24989812.6744   24989815.7444
     -3997.4534      -3114.8994
 96  8 31 20 17 30.0020000  0  7G28G 3G17G 1G21G23G26
    906326.976 6    706227.268 6  21534181.525    21534180.033
     -2251.094       -1754.099
  -9098318.28146  -6984993.16446  22654089.9164   22654092.0964
       971.9224        757.3424
   5698533.50546   4452521.12346  21782881.9004   21782884.6784
     -2087.7034      -1626.7824
  -4594366.32445  -3469544.79245  23784882.6434   23784886.3574
      2663.3754       2075.3574
  -9027186.97947  -6912575.20346  22073195.1114   22073197.7714
       488.5164        380.6624
   3023551.50946   2390669.14846  21673017.5334   21673019.7014
     -1710.3284      -1332.7234
   2730396.84445   2000867.57044  25012659.9864   25012661.5104
     -4006.2344      -3121.7414
 96  8 31 20 18  0.0020000  0  7G28G 3G17G 1G21G23G26
    974152.066 6    759077.953 6  21547088.174    21547086.721
     -2270.609       -1769.306
  -9127200.17146  -7007498.54146  22648593.6974   22648595.7484
       953.3754        742.8904
   5761340.61147   4501461.69446  21794833.9244   21794836.5254
     -2099.5004      -1635.9744
  -4674156.46245  -3531718.86745  23769699.3774   23769703.7014
      2656.0164       2069.6234
  -9041701.65147  -6923885.33246  22070433.1584   22070435.6194
       479.0314        373.2714
   3074990.72046   2430751.63846  21682806.6274   21682808.8894
     -1718.9064      -1339.4074
   2850713.88244   2094621.08642  25035554.8544   25035557.6544
     -4014.9534      -3128.5354
 96  8 31 20 18 30.0020000  0  6G28G 3G17G 1G21G23
   1042564.016 6    812385.940 6  21560106.518    21560105.119
     -2290.000       -1784.416
  -9155520.37446  -7029566.21946  22643204.3934   22643206.9714
       934.9064        728.4984
   5824503.34046   4550679.39246  21806852.9244   21806855.5374
     -2111.1254      -1645.0324
  -4753725.51046  -3593720.65845  23754557.9474   23754561.3344
      2648.7504       2063.9614
  -9055934.86547  -6934976.14846  22067724.5724   22067727.0574
       469.8594        366.1244
   3126685.49646   2471033.27046  21692643.5884   21692645.4754
     -1727.2664      -1345.9214
 96  8 31 20 19  0.0020000  0  7G28G 3G17G 1G21G23G26
   1111552.784 6    866143.392 6  21573234.693    21573233.244
     -2309.219       -1799.391
  -9183290.66046  -7051205.40946  22637920.2834   22637922.2294
       916.3134        714.0104
   5888005.85847   4600161.84446  21818937.6584   21818939.7684
     -2122.3124      -1653.7504
  -4833078.39545  -3655554.02645  23739457.4634   23739461.6114
      2641.5164       2058.3244
  -9069887.83447  -6945848.58746  22065069.6504   22065071.9824
       460.3914        358.7464
   3178621.16346   2511502.60846  21702526.7364   21702528.7294
     -1735.1414      -1352.0584
     92645.87455                  25081492.3384
     -4031.0944
 96  8 31 20 19 30.0020000  0  7G28G 3G17G 1G21G23G26
   1181120.281 6    920351.802 6  21586472.986    21586471.580
     -2328.547       -1814.452
  -9210492.17046  -7072401.38646  22632744.2754   22632746.4904
       897.1094        699.0464
   5951842.90646   4649904.97846  21831085.2834   21831087.9794
     -2133.4064      -1662.3944
  -4912211.08545  -3717215.79445  23724398.1824   23724401.8034
      2633.9844       2052.4554
  -9083557.43347  -6956500.22046  22062468.3614   22062470.9044
       450.9694        351.4044
   3230792.88146   2552155.88446  21712454.4944   21712456.8504
     -1742.7814      -1358.0114
    213689.27645                  25104525.3934
     -4038.4374
 96  8 31 20 20  0.0020000  0  7G28G 3G17G 1G21G23G26
   1251263.973 6    975009.192 6  21599820.834    21599819.486
     -2347.641       -1829.330
  -9237125.12846  -7093154.33946  22627675.6744   22627677.6544
       878.5164        684.5584
   6016008.78347   4699904.33846  21843295.8144   21843298.1354
     -2144.2814      -1670.8694
  -4991117.88745  -3778701.55645  23709383.3464   23709387.0144
      2626.6724       2046.7574
  -9096943.49747  -6966930.91646  22059920.8144   22059923.5804
       441.5474        344.0634
   3283181.84846   2592978.44946  21722423.9324   21722426.1004
     -1749.7814      -1363.4664
    334960.99444     81904.60252  25127602.6194   25127607.8224
     -4046.3754      -3153.0194
 96  8 31 20 20 30.0020000  0  7G28G 3G17G 1G21G23G26
   1321983.654 6   1030115.404 6  21613278.338    21613277.088
     -2366.703       -1844.184
  -9263201.63446  -7113473.70446  22622713.2604   22622715.4044
       860.2664        670.3374
   6080511.54646   4750166.20646  21855570.1194   21855572.6624
     -2155.6724      -1679.7444
  -5069802.78345  -3840014.39045  23694409.4324   23694412.9244
      2619.1724       2040.9134
  -9110047.11247  -6977141.51946  22057427.6504   22057430.3224
       432.2504        336.8184
   3335791.68546   2633973.11246  21732435.1504   21732437.1314
     -1757.2664      -1369.2984
    456476.60544    176592.10443  25150726.7364   25150730.5684
     -4054.3124      -3159.2054
 96  8 31 20 21  0.0020000  0  7G28G 3G17G 1G21G23G26
   1393268.160 6   1085661.741 6  21626843.443    21626842.064
     -2385.578       -1858.892
  -9288734.42346  -7133369.38546  22617855.0804   22617857.0374
       841.9064        656.0314
   6145353.04247   4800692.01846  21867909.4164   21867911.6074
     -2167.0944      -1688.6444
  -5148261.65745  -3901151.12245  23679479.9634   23679483.0214
      2611.4064       2034.8624
  -9122878.12047  -6987139.70246  22054985.5724   22054987.8574
       423.4534        329.9634
   3388625.09146   2675141.99046  21742489.4714   21742491.4284
     -1765.0474      -1375.3614
    578224.15644    271460.23343  25173894.1974   25173897.3034
     -4062.2344      -3165.3774
 96  8 31 20 21 30.0020000  0  7G28G 3G17G 1G21G23G26
   1465120.670 6   1141650.677 6  21640516.541    21640515.057
     -2404.375       -1873.539
  -9313714.17346  -7152834.12646  22613100.9474   22613103.1744
       823.7034        641.8474
   6210542.41446   4851488.91046  21880314.1744   21880316.7054
     -2178.7034      -1697.6914
  -5226480.56745  -3962100.85445  23664594.9714   23664598.8964
      2603.3444       2028.5804
  -9135455.39647  -6996940.16246  22052592.4474   22052594.8144
       415.2034        323.5354
   3441704.84046   2716502.82146  21752589.5884   21752591.6044
     -1773.3594      -1381.8384
    700220.44844    366522.23443  25197109.2994   25197113.0024
     -4070.7664      -3172.0254
 96  8 31 20 22  0.0020000  0  7G28G 3G17G 1G21G23G26
   1537538.086 6   1198079.802 6  21654297.217    21654295.760
     -2423.172       -1888.186
  -9338155.77846  -7171879.53946  22608450.4004   22608452.3344
       806.0314        628.0764
   6276087.18446   4902562.72746  21892787.1434   21892789.6274
     -2190.7344      -1707.0664
  -5304451.44845  -4022857.32345  23649757.1664   23649760.6114
      2595.0164       2022.0904
  -9147782.66747  -7006545.82046  22050246.5574   22050248.7254
       406.9384        317.0944
   3495037.20946   2758060.49946  21762738.2834   21762740.2874
     -1782.0164      -1388.5844
    822476.28644    461786.47943  25220374.1044   25220377.5494
     -4079.2664      -3178.6494
 96  8 31 20 22 30.0020000  0  7G28G 3G17G 1G21G23G26
   1610511.477 6   1254942.151 6  21668183.631    21668182.166
     -2441.516       -1902.480
  -9362076.66046  -7190519.19446  22603898.3934   22603900.8774
       788.9384        614.7564
   6341983.39246   4953910.40746  21905327.0494   21905329.6274
     -2202.1414      -1715.9544
  -5382173.25746  -4083419.70745  23634967.5104   23634971.3424
      2586.5004       2015.4554
  -9159874.23347  -7015967.81546  22047945.8144   22047948.0064
       399.2664        311.1164
   3548627.04046   2799818.78946  21772936.5964   21772938.6934
     -1790.3124      -1395.0494
    944965.65244    557232.73243  25243682.9164   25243685.4824
     -4086.5004      -3184.2864
 96  8 31 20 23  0.0020000  0  7G28G 3G17G 1G21G23G26
   1684033.371 6   1312231.906 6  21682174.502    21682172.932
     -2459.891       -1916.798
  -9385479.80046  -7208755.41246  22599445.0644   22599446.7994
       771.3284        601.0354
   6408213.82146   5005518.50846  21917929.7604   21917932.2914
     -2213.1254      -1724.5134
  -5459636.16946  -4143780.36445  23620226.8384   23620229.7914
      2577.7974       2008.6734
  -9171733.68947  -7025208.93446  22045689.3464   22045691.7954
       391.4384        305.0164
   3602459.02246   2841765.78146  21783180.2214   21783182.1194
     -1798.3914      -1401.3434
   1067674.49643    652849.94142  25267034.3694   25267039.4674
     -4094.0314      -3190.1544
 96  8 31 20 23 30.0020000  0  7G28G 3G17G 1G21G23G26
   1758112.798 6   1369956.101 6  21696271.271    21696269.924
     -2478.734       -1931.481
  -9408347.67446  -7226574.53946  22595092.8854   22595095.3934
       753.2664        586.9604
   6474780.26546   5057388.43546  21930596.7834   21930599.5724
     -2224.6254      -1733.4744
  -5536837.03946  -4203936.81145  23605535.9554   23605539.2714
      2568.9694       2001.7944
  -9183342.27847  -7034254.58946  22043479.5414   22043482.1194
       382.2974        297.8944
   3656533.10946   2883901.42346  21793470.6194   21793472.6004
     -1806.3444      -1407.5414
   1190612.37644    748645.75341  25290428.0184   25290426.5764
     -4101.7814      -3196.1934
 96  8 31 20 24  0.0020000  0  7G28G 3G17G 1G21G23G26
   1832745.762 6   1428111.624 6  21710473.428    21710472.111
     -2497.078       -1945.775
  -9430685.86246  -7243980.92346  22590841.9324   22590844.2404
       735.4694        573.0934
   6541675.45746   5109514.53646  21943327.1504   21943329.7874
     -2235.3284      -1741.8144
  -5613786.90146  -4263897.69545  23590892.8774   23590895.9714
      2560.7974       1995.4264
  -9194679.47147  -7043088.75946  22041322.4864   22041324.9824
       373.3284        290.9054
   3710827.60546   2926208.81146  21803802.4794   21803804.7054
     -1813.4844      -1413.1054
   1313768.21945    844611.29743  25313864.4634   25313867.5104
     -4108.7814      -3201.6484
 96  8 31 20 24 30.0020000  0  6G28G 3G17G 1G21G23
   1907933.087 6   1486699.118 6  21724781.158    21724779.744
     -2515.297       -1959.972
  -9452475.38146  -7260959.76246  22586695.6194   22586698.0684
       717.2034        558.8604
   6608892.37846   5161891.33646  21956117.7524   21956120.1074
     -2245.6874      -1749.8864
  -5690491.31046  -4323667.30045  23576296.0254   23576299.9634
      2552.9384       1989.3024
  -9205746.61147  -7051712.49846  22039216.1194   22039218.6154
       364.5634        284.0754
   3765337.36846   2968683.94246  21814175.2914   21814177.0494
     -1820.2504      -1418.3774
 96  8 31 20 25  0.0020000  0  6G28G 3G17G 1G21G23
   1983672.120 6   1545716.515 6  21739193.920    21739192.275
     -2534.000       -1974.545
  -9473698.30846  -7277497.11246  22582657.5724   22582659.7294
       697.6884        543.6534
   6676428.31547   5214516.71446  21968970.1354   21968972.7954
     -2256.7974      -1758.5434
  -5766956.45346  -4383250.47945  23561745.4474   23561749.1044
      2544.7194       1982.8984
  -9216545.87047  -7060127.49946  22037161.2604   22037163.4864
       355.3444        276.8914
   3820054.79646   3011320.88846  21824587.5804   21824589.6784
     -1827.7034      -1424.1844
 96  8 31 20 25 30.0020000  0  6G28G 3G17G 1G21G23
   2059967.988 6   1605167.807 6  21753712.604    21753710.783
     -2552.312       -1988.815
  -9494343.38646  -7293584.18046  22578728.9714   22578731.2094
       678.7034        528.8604
   6744299.65446   5267403.45346  21981885.3464   21981887.5964
     -2267.8914      -1767.1874
  -5843178.31946  -4442644.08145  23547240.8614   23547244.3894
      2536.9064       1976.8104
  -9227068.11447  -7068326.65046  22035158.9244   22035161.3614
       346.3134        269.8544
   3874995.86846   3054132.10346  21835042.5804   21835044.7134
     -1834.9694      -1429.8464
 96  8 31 20 26  0.0030000  0  6G28G 3G17G 1G21G23
   2136819.179 6   1665051.821 6  21768336.921    21768335.101
     -2570.703       -2003.145
  -9514411.60846  -7309221.77146  22574910.1014   22574912.0464
       659.2504        513.7014
   6812508.07746   5320552.83246  21994864.7184   21994867.7654
     -2279.0784      -1775.9054
  -5919168.19946  -4501856.92645  23532780.5934   23532784.5894
      2529.0314       1970.6744
  -9237328.00547  -7076321.35846  22033206.6244   22033209.0624
       337.9224        263.3164
   3930164.46446   3097120.61246  21845540.8124   21845543.1554
     -1842.7034      -1435.8734
 96  8 31 20 26 30.0030000  0  6G28G 3G17G 1G21G23
   2214219.447 6   1725363.683 6  21783065.706    21783063.905
     -2589.187       -2017.549
  -9533895.52146  -7324404.04346  22571202.0694   22571204.1204
       639.9224        498.6404
   6881049.91946   5373962.04246  22007907.9994   22007910.2844
     -2290.2034      -1784.5744
  -5994915.43145  -4560880.68745  23518365.1324   23518369.0224
      2520.7504       1964.2214
  -9247339.55147  -7084122.56046  22031301.5934   22031304.0074
       329.5164        256.7654
   3985563.08846   3140288.35846  21856082.6874   21856084.5974
     -1850.4694      -1441.9244
 96  8 31 20 27  0.0030000  0  6G28G 3G17G 1G21G23
   2292168.022 6   1786102.799 6  21797898.812    21797897.163
     -2607.406       -2031.745
  -9552804.01446  -7339137.94446  22567603.7024   22567605.9644
       620.7664        483.7134
   6949920.30346   5427627.24246  22021013.5694   22021015.9954
     -2301.2194      -1793.1574
  -6070410.34545  -4619707.84145  23503998.7804   23504002.7654
      2512.1724       1957.5374
  -9257098.66147  -7091727.05946  22029444.2884   22029446.5974
       321.0784        250.1914
   4041192.44446   3183635.89846  21866668.7884   21866671.1444
     -1858.2344      -1447.9754
 96  8 31 20 27 30.0030000  0  6G28G 3G17G 1G21G23
   2370668.646 6   1847272.081 6  21812837.104    21812835.499
     -2625.859       -2046.124
  -9571141.33946  -7353426.76846  22564114.0854   22564116.6404
       601.6254        468.7994
   7019129.90346   5481556.77046  22034184.0624   22034186.4764
     -2312.6724      -1802.0824
  -6145643.97846  -4678331.40545  23489683.6164   23489687.7654
      2503.4534       1950.7434
  -9266600.50647  -7099131.08346  22027636.2804   22027638.6124
       312.4844        243.4944
   4097058.62546   3227167.97746  21877299.3744   21877301.7534
     -1866.0164      -1454.0384
 96  8 31 20 28  0.0030000  0  6G28G 3G17G 1G21G23
   2449713.751 6   1908865.634 6  21827878.929    21827877.468
     -2643.812       -2060.114
  -9588907.45646  -7367270.50246  22560733.7804   22560736.2414
       582.8594        454.1764
   7088673.43246   5535746.52146  22047417.4764   22047420.0424
     -2323.6254      -1810.6174
  -6220616.06346  -4736751.15945  23475416.4214   23475420.8274
      2494.4844       1943.7544
  -9275855.16547  -7106342.50046  22025875.4444   22025877.7064
       304.3914        237.1884
   4153143.15146   3270870.19246  21887972.0694   21887974.3904
     -1872.9694      -1459.4564
 96  8 31 20 28 30.0030000  0  6G28G 3G17G 1G21G23
   2529306.498 6   1970885.923 6  21843024.921    21843023.507
     -2662.125       -2074.383
  -9606110.53846  -7380675.50246  22557460.2884   22557462.5624
       564.2814        439.7004
   7158561.19346   5590204.48746  22060715.9054   22060718.8824
     -2335.3594      -1819.7614
  -6295297.19846  -4794944.20445  23461205.3824   23461209.0264
      2484.5004       1935.9744
  -9284849.25647  -7113350.87546  22024163.6474   22024166.0384
       295.3914        230.1754
   4209444.66347   3314741.49146  21898685.8744   21898688.2064
     -1880.2974      -1465.1664
 96  8 31 20 29  0.0030000  0  6G28G 3G17G 1G21G23
   2609438.135 6   2033326.129 6  21858273.358    21858271.913
     -2680.031       -2088.336
  -9622762.95546  -7393651.41646  22554291.4914   22554293.4834
       545.8284        425.3214
   7228800.45546   5644936.36046  22074082.4134   22074084.8974
     -2347.5004      -1829.2214
  -6369690.66546  -4852913.09545  23447048.2574   23447052.1244
      2475.0474       1928.6084
  -9293576.69847  -7120151.46946  22022503.0854   22022505.3584
       286.5004        223.2474
   4265960.70947   3358779.95646  21909440.9834   21909443.2454
     -1887.4694      -1470.7554
 96  8 31 20 29 30.0030000  0  6G28G 3G17G 1G21G23
   2690106.822 6   2096184.810 6  21873624.019    21873622.593
     -2697.969       -2102.313
  -9638860.44846  -7406194.91346  22551228.7264   22551230.9404
       527.1414        410.7594
   7299412.33746   5699958.58446  22087519.6164   22087522.1474
     -2360.0944      -1839.0344
  -6443800.94546  -4910661.31545  23432946.0304   23432949.5694
      2465.5164       1921.1814
  -9302037.43147  -7126744.24246  22020892.7414   22020895.0854
       277.4384        216.1854
   4322686.61446   3402981.94846  21920235.2494   21920237.4054
     -1894.2194      -1476.0154
 96  8 31 20 30  0.0030000  0  6G28G 3G17G 1G21G23
   2771315.168 6   2159464.011 6  21889077.601    21889075.968
     -2715.703       -2116.132
  -9654393.41946  -7418298.54346  22548271.6794   22548273.5194
       508.6884        396.3804
   7370404.39646   5755277.04746  22101029.2884   22101031.1754
     -2372.5944      -1848.7744
  -6517614.89946  -4968178.64245  23418899.7264   23418903.1834
      2455.6564       1913.4984
  -9310223.98047  -7133123.36346  22019334.7574   22019337.3124
       268.5164        209.2334
   4379614.91146   3447341.64746  21931068.2494   21931070.6404
     -1900.8124      -1481.1534
 96  8 31 20 30 30.0030000  0  6G28G 3G17G 1G21G23
   2853056.679 6   2223158.660 6  21904632.503    21904630.882
     -2733.578       -2130.061
  -9669367.88446  -7429966.95646  22545422.9374   22545425.0464
       489.5474        381.4654
   7441776.90346   5810891.96146  22114610.7574   22114612.9724
     -2385.2664      -1858.6494
  -6591134.93646  -5025466.93445  23404909.7184   23404913.1754
      2445.8914       1905.8894
  -9318138.93847  -7139290.86346  22017828.4444   22017831.0114
       259.2194        201.9894
   4436745.03347   3491858.61946  21941940.0544   21941942.2104
     -1907.7194      -1486.5344
 96  8 31 20 31  0.0030000  0  6G28G 3G17G 1G21G23
   2935334.102 6   2287270.906 6  21920289.448    21920287.851
     -2751.391       -2143.941
  -9683749.56546  -7441173.46846  22542685.9054   22542688.0974
       469.3284        365.7104
   7513521.17746   5866796.56546  22128263.5224   22128265.8084
     -2397.5624      -1868.2314
  -6664363.28146  -5082527.94345  23390974.6554   23390978.3474
      2436.1724       1898.3164
  -9325773.18447  -7145239.62646  22016376.1474   22016378.7964
       250.0784        194.8664
   4494076.75847   3536532.67446  21952849.6244   21952851.8864
     -1914.0784      -1491.4894
 96  8 31 20 31 30.0030000  0  6G28G 3G17G 1G21G23
   3018145.408 6   2351799.163 6  21936048.077    21936046.405
     -2769.219       -2157.833
  -9697521.39946  -7451904.77346  22540065.1874   22540067.0504
       448.8754        349.7734
   7585632.65547   5922987.30046  22141986.3124   22141988.4214
     -2409.5314      -1877.5574
  -6737299.78946  -5139361.54545  23377094.3584   23377097.5464
      2426.4224       1890.7184
  -9333140.88347  -7150980.68546  22014974.0304   22014976.5504
       241.2194        187.9634
   4551593.53746   3581350.93846  21963794.5934   21963796.7614
     -1920.3914      -1496.4084
 96  8 31 20 32  0.0030000  0  6G28G 3G17G 1G21G23
   3101490.079 6   2416743.025 6  21951908.034    21951906.429
     -2786.734       -2171.481
  -9710678.14446  -7462156.78746  22537561.5224   22537563.6674
       428.5784        333.9574
   7658085.71046   5979444.20646  22155773.1714   22155775.6794
     -2420.2504      -1885.9094
  -6809947.14346  -5195969.83045  23363270.5774   23363273.4374
      2417.1884       1883.5234
  -9340244.82347  -7156516.21446  22013622.2334   22013624.6014
       232.7814        181.3884
   4609312.10846   3626326.43946  21974778.0694   21974780.0974
     -1927.2814      -1501.7784
 96  8 31 20 32 30.0030000  0  6G28G 3G17G 1G21G23
   3185349.102 6   2482087.683 6  21967865.944    21967864.280
     -2803.953       -2184.899
  -9723236.09446  -7471942.20746  22535171.8354   22535173.8394
       408.5004        318.3124
   7730841.28146   6036136.83446  22169618.4294   22169620.6904
     -2430.1414      -1893.6164
  -6882329.90946  -5252371.94445  23349496.5224   23349499.6984
      2408.2344       1876.5464
  -9347111.22947  -7161866.65346  22012315.2024   22012317.8394
       224.8754        175.2274
   4667233.29846   3671459.82246  21985799.9914   21985801.9134
     -1934.1724      -1507.1474
 96  8 31 20 33  0.0030000  0  6G28G 3G17G 1G21G23
   3269726.822 6   2547836.517 6  21983922.440    21983920.874
     -2821.531       -2198.596
  -9735195.31046  -7481261.08546  22532896.4134   22532898.6754
       388.6094        302.8134
   7803900.27046   6093065.89546  22183520.7024   22183523.3744
     -2441.0314      -1902.1024
  -6954443.49146  -5308564.31145  23335773.3974   23335776.5974
      2398.9844       1869.3384
  -9353745.19147  -7167035.96846  22011053.0624   22011055.4174
       217.1564        169.2134
   4725363.20446   3716755.84446  21996862.1714   21996864.7494
     -1941.6094      -1512.9424
 96  8 31 20 33 30.0030000  0  7G28G 9G 3G17G 1G21G23
   3354635.784 6   2613999.304 6  22000080.116    22000078.491
     -2838.969       -2212.183
     -3379.62714                  25030061.812
       674.969
  -9746570.78046  -7490125.09046  22530731.6404   22530733.8784
       369.8914        288.2264
   7877294.96146   6150256.53846  22197487.0934   22197490.0694
     -2451.7344      -1910.4424
  -7026271.16546  -5364533.87746  23322105.5384   23322108.5734
      2389.5004       1861.9484
  -9360143.92447  -7172021.99446  22009835.6404   22009838.3124
       209.4224        163.1864
   4783731.34746   3762237.49546  22007969.3124   22007971.6554
     -1949.5784      -1519.1524
 96  8 31 20 34  0.0030000  0  7G28G 9G 3G17G 1G21G23
   3440067.294 6   2680569.272 6  22016337.206    22016335.608
     -2856.328       -2225.710
    -23434.02145                  25026246.1714
       662.1094
  -9757387.70546  -7498553.87046  22528673.1714   22528675.4334
       351.4534        273.8604
   7951010.91546   6207697.50846  22211515.0224   22211517.3664
     -2462.7664      -1919.0384
  -7097806.14346  -5420275.37945  23308492.5154   23308495.7614
      2379.6414       1854.2654
  -9366308.25847  -7176825.36146  22008662.3434   22008664.6874
       201.6564        157.1354
   4842337.38446   3807904.52846  22019121.7724   22019124.2334
     -1957.2504      -1525.1304
 96  8 31 20 34 30.0030000  0  7G28G 9G 3G17G 1G21G23
   3526011.787 6   2747538.971 6  22032691.976    22032690.312
     -2873.219       -2238.872
    -43110.52545     -2027.46853  25022501.9294   25022503.3474
       649.8284        506.3604
  -9767658.90546  -7506557.40646  22526718.7264   22526720.9994
       333.4224        259.8094
   8025073.87246   6265408.88346  22225609.0774   22225611.4334
     -2474.7664      -1928.3894
  -7169046.12346  -5475787.00646  23294936.2264   23294938.9914
      2369.8914       1846.6684
  -9372242.93047  -7181449.77646  22007532.9294   22007535.4724
       193.9534        151.1324
   4901159.06246   3853739.58446  22030314.5774   22030316.9794
     -1964.0624      -1530.4384
 96  8 31 20 35  0.0030000  0  7G28G 9G 3G17G 1G21G23
   3612468.019 6   2814907.425 6  22049144.104    22049142.390
     -2890.422       -2252.277
    -62414.38945    -17069.41943  25018827.9914   25018832.3394
       637.2194        496.5344
  -9777378.72346  -7514131.30246  22524869.2104   22524871.5194
       314.5784        245.1264
   8099515.31746   6323415.19146  22239774.4294   22239777.2184
     -2487.8444      -1938.5804
  -7239992.31946  -5531069.71345  23281435.4524   23281438.2534
      2359.9384       1838.9124
  -9377931.95247  -7185882.77646  22006450.1634   22006452.8004
       185.4064        144.4724
   4960193.51546   3899740.44546  22041548.8904   22041551.1514
     -1971.5164      -1536.2464
 96  8 31 20 35 30.0030000  0  7G28G 9G 3G17G 1G21G23
   3699438.358 6   2882676.484 6  22065694.101    22065692.288
     -2907.000       -2265.195
    -81339.03545    -31815.85543  25015227.0154   25015230.3664
       624.9694        486.9894
  -9786524.40746  -7521257.81446  22523128.4374   22523130.3944
       295.6564        230.3814
   8174337.93046   6381718.50946  22254012.4134   22254015.3434
     -2499.6414      -1947.7724
  -7310639.45746  -5586119.39046  23267992.1714   23267995.0774
      2350.5004       1831.5584
  -9383362.07847  -7190114.03546  22005417.1084   22005419.6284
       177.1564        138.0444
   5019446.13646   3945911.31146  22052824.5934   22052826.9014
     -1977.9064      -1541.2264
 96  8 31 20 36  0.0030000  0  7G28G 9G 3G17G 1G21G23
   3786906.264 6   2950833.255 6  22082338.647    22082336.952
     -2924.062       -2278.490
    -99890.74345    -46271.71743  25011696.2334   25011699.7724
       611.8914        476.7984
  -9795087.31746  -7527930.22446  22521498.8274   22521500.9604
       275.2814        214.5054
   8249516.57846   6440299.24946  22268318.7334   22268321.6044
     -2512.1564      -1957.5244
  -7381007.44046  -5640951.53946  23254600.8584   23254604.1634
      2340.9064       1824.0834
  -9388537.08747  -7194146.51146  22004432.1554   22004434.6044
       167.8754        130.8124
   5078887.14046   3992228.96846  22064135.4524   22064137.6674
     -1984.7034      -1546.5224
 96  8 31 20 36 30.0030000  0  7G28G 9G 3G17G 1G21G23
   3874879.825 6   3019384.046 6  22099079.460    22099077.702
     -2940.766       -2291.506
   -118055.29645    -60425.83643  25008239.6014   25008243.6204
       599.1564        466.8754
  -9803038.66346  -7534126.07846  22519986.0224   22519988.3314
       254.8754        198.6044
   8325059.61546   6499163.92446  22282694.6404   22282697.4524
     -2523.7504      -1966.5584
  -7451092.43246  -5695563.16346  23241264.5624   23241268.0654
      2331.5004       1816.7534
  -9393433.71847  -7197962.06146  22003500.8354   22003503.0974
       158.6724        123.6404
   5138525.23046   4038700.19346  22075484.5154   22075486.9054
     -1991.0314      -1551.4534
 96  8 31 20 37  0.0030000  0  7G28G 9G 3G17G 1G21G23
   3963355.908 6   3088326.408 6  22115915.956    22115914.413
     -2957.656       -2304.667
   -135829.88445    -74276.13243  25004857.2104   25004859.9524
       585.7034        456.3924
  -9810370.84946  -7539839.46846  22518591.1474   22518593.3044
       233.9384        182.2894
   8400935.11046   6558287.66246  22297132.4684   22297135.1284
     -2534.4844      -1974.9234
  -7520887.00846  -5749948.51445  23227982.3584   23227986.3434
      2321.2814       1808.7914
  -9398053.41947  -7201561.82546  22002621.5694   22002623.7614
       149.3594        116.3844
   5198351.82046   4085318.30446  22086868.8434   22086871.1874
     -1997.3594      -1556.3844
 96  8 31 20 37 30.0030000  0  7G28G 9G 3G17G 1G21G23
   4052331.451 6   3157657.958 6  22132847.616    22132845.913
     -2974.328       -2317.658
   -153209.55645    -87818.68143  25001550.2884   25001553.0304
       572.6414        446.2134
  -9817085.63246  -7545071.78146  22517313.4214   22517315.2264
       213.4694        166.3394
   8477117.15446   6617650.27346  22311629.7494   22311632.5504
     -2544.6254      -1982.8254
  -7590368.66046  -5804090.02146  23214760.3974   23214763.5974
      2310.5474       1800.4264
  -9402397.49447  -7204946.81246  22001794.6474   22001797.0264
       139.9534        109.0544
   5258356.43446   4132075.13646  22098287.2264   22098289.3944
     -2003.2814      -1560.9984
 96  8 31 20 38  0.0030000  0  7G28G 9G 3G17G 1G21G23
   4141810.230 6   3227381.644 6  22149874.843    22149873.202
     -2991.016       -2330.662
   -170202.96845   -101060.24443  24998316.8044   24998321.5034
       560.1564        436.4854
  -9823179.00346  -7549819.86646  22516153.7494   22516155.8234
       192.6724        150.1344
   8553608.05246   6677253.54446  22326185.6324   22326187.9994
     -2554.8754      -1990.8124
  -7659520.66246  -5857974.65746  23201601.3124   23201604.7454
      2299.3914       1791.7334
  -9406457.60847  -7208110.53746  22001021.6634   22001024.0894
       130.7034        101.8474
   5318546.06047   4178976.13346  22109741.7184   22109743.9914
     -2009.5004      -1565.8444
 96  8 31 20 38 30.0030000  0  7G28G 9G 3G17G 1G21G23
   4231781.916 6   3297489.410 6  22166995.909    22166994.226
     -3007.172       -2343.251
   -186825.96644   -114013.20343  24995152.9684   24995156.4724
       547.9694        426.9894
  -9828658.87346  -7554089.90746  22515111.3824   22515113.2804
       172.5784        134.4764
   8630403.28246   6737093.94446  22340799.5694   22340802.6634
     -2564.9694      -1998.6774
  -7728334.98246  -5911596.16946  23188506.6474   23188509.8824
      2288.1094       1782.9424
  -9410257.15647  -7211071.21846  22000299.0074   22000301.5264
       122.5634         95.5034
   5378915.52146   4226017.25646  22121228.6634   22121230.8084
     -2015.2814      -1570.3494
 96  8 31 20 39  0.0030000  0  7G28G 9G 3G17G 1G21G23
   4322244.324 6   3367979.556 6  22184210.354    22184208.718
     -3023.422       -2355.913
   -203072.94245   -126673.17143  24992061.9834   24992066.0854
       535.3444        417.1514
  -9833528.98046  -7557884.79946  22514183.9524   22514186.2844
       152.3444        118.7094
   8707512.48846   6797179.02346  22355472.9684   22355475.7804
     -2575.5944      -2006.9564
  -7796801.21246  -5964946.42646  23175477.9914   23175480.8154
      2276.5314       1773.9204
  -9413807.98947  -7213838.09546  21999623.3124   21999625.7844
       114.3444         89.0994
   5439471.06346   4273203.38646  22132752.4374   22132754.7804
     -2021.5784      -1575.2564
 96  8 31 20 39 30.0030000  0  8G28G 9G 3G17G 1G21G31G23
   4413197.964 6   3438852.481 6  22201518.218    22201516.663
     -3039.781       -2368.661
   -218940.07645   -139037.08741  24989042.0304   24989046.0154
       522.7344        407.3254
  -9837787.56546  -7561203.18246  22513373.5694   22513375.9604
       131.9064        102.7844
   8784958.44046   6857526.50346  22370210.0624   22370213.0264
     -2587.1564      -2015.9664
  -7864919.33046  -6018025.44846  23162515.5694   23162518.8274
      2265.1724       1765.0694
  -9417109.08847  -7216410.37346  21998995.2334   21998997.8944
       106.1884         82.7444
    -33618.59754                  24526499.0304
      1974.3444
   5500221.12047   4320541.07546  22144312.9294   22144315.1904
     -2028.0164      -1580.2724
 96  8 31 20 40  0.0030000  0  8G28G 9G 3G17G 1G21G31G23
   4504635.588 6   3510102.541 6  22218918.175    22218916.616
     -3056.125       -2381.396
   -234417.68945   -151097.51743  24986096.3744   24986099.5734
       508.8754        396.5264
  -9841441.32146  -7564050.27246  22512678.2804   22512680.8474
       111.7344         87.0664
   8862745.62546   6918139.86546  22385012.4444   22385015.4794
     -2598.7504      -2025.0004
  -7932711.81146  -6070850.72046  23149614.0774   23149617.3354
      2254.3134       1756.6074
  -9420179.30747  -7218802.74646  21998411.2724   21998413.7104
        98.4384         76.7054
    -92661.95443                  24815054.3514
      1961.7974
   5561155.62746   4368022.49446  22155908.3974   22155910.6834
     -2034.3284      -1585.1914
 96  8 31 20 40 30.0030000  0  8G28G 9G 3G17G 1G21G31G23
   4596562.009 6   3581733.472 6  22236411.280    22236409.624
     -3072.344       -2394.034
   -249466.61345   -162823.96143  24983233.2964   24983236.3784
       494.3444        385.2034
  -9844501.31646  -7566434.68247  22512095.9134   22512098.1164
        92.2034         71.8474
   8940888.88246   6979030.68546  22399882.9604   22399885.6204
     -2610.7034      -2034.3144
  -8000182.32646  -6123425.09546  23136775.7574   23136779.1554
      2243.7504       1748.3774
  -9423014.00347  -7221011.60047  21997871.7964   21997874.1404
        90.3754         70.4224
   -151320.30644    -22814.57153  24803892.1404   24803894.1794
      1948.7034       1518.4704
   5622283.39946   4415654.52746  22167540.1944   22167542.4094
     -2040.9064      -1590.3174
 96  8 31 20 41  0.0030000  0  8G28G 9G 3G17G 1G21G31G23
   4688970.642 6   3653740.155 6  22253996.159    22253994.515
     -3088.344       -2406.502
   -264079.09345   -174210.27744  24980452.0384   24980455.4374
       479.7034        373.7954
  -9846979.81746  -7568365.98646  22511624.0694   22511626.1674
        72.9224         56.8224
   9019378.11746   7040191.10546  22414818.4524   22414822.0034
     -2622.0474      -2043.1534
  -8067344.39846  -6175759.12546  23123994.6404   23123998.1444
      2233.6564       1740.5114
  -9425606.07247  -7223031.38846  21997378.4914   21997380.6124
        82.3284         64.1524
   -209587.19143    -68217.30243  24792804.2804   24792809.2374
      1935.7814       1508.4014
   5683605.59246   4463438.03946  22179209.5074   22179211.7804
     -2047.2814      -1595.2844
 96  8 31 20 41 30.0030000  0  8G28G 9G 3G17G 1G21G31G23
   4781858.727 6   3726120.434 6  22271672.155    22271670.522
     -3104.531       -2419.115
   -278253.09345   -185254.90343  24977755.2884   24977758.8744
       464.9384        362.2894
  -9848881.13046  -7569847.54246  22511262.4444   22511264.4374
        53.5164         41.7004
   9098212.20746   7101620.24446  22429820.1714   22429822.8194
     -2633.7814      -2052.2974
  -8134207.86646  -6227860.48346  23111271.6404   23111275.2374
      2223.5634       1732.6464
  -9427963.05647  -7224867.99346  21996929.9294   21996932.2024
        74.4694         58.0284
   -267466.97243   -113318.39642  24781790.8514   24781792.6204
      1922.6414       1498.1624
   5745119.54046   4511370.97546  22190915.2104   22190917.6014
     -2054.0314      -1600.5444
 96  8 31 20 42  0.0030000  0  8G28G 9G 3G17G 1G21G31G23
   4875230.096 6   3798877.298 6  22289440.351    22289438.585
     -3120.187       -2431.315
   -291983.76445   -195954.07643  24975142.2104   24975146.3124
       450.5314        351.0634
  -9850200.98847  -7570876.00746  22511011.8824   22511013.9444
        34.4694         26.8594
   9177392.15346   7163318.87146  22444887.9834   22444890.9604
     -2644.9064      -2060.9664
  -8200767.52546  -6279725.11546  23098605.7494   23098609.2884
      2213.6254       1724.9034
  -9430080.91147  -7226518.26646  21996527.0624   21996529.2654
        66.7194         51.9894
   -324960.46344   -158118.51943  24770850.4764   24770853.6634
      1910.2974       1488.5434
   5806839.29947   4559464.27946  22202660.4994   22202662.5974
     -2060.6414      -1605.6944
 96  8 31 20 42 30.0030000  0  8G28G 9G 3G17G 1G21G31G23
   4969076.309 6   3872004.173 6  22307298.737    22307296.944
     -3136.031       -2443.661
   -305291.18045   -206323.48243  24972610.1874   24972614.1714
       436.8444        340.3984
  -9850941.08347  -7571452.71546  22510870.8434   22510872.6834
        14.9064         11.6154
   9256922.34846   7225290.42146  22460022.1634   22460025.2804
     -2656.8124      -2070.2444
  -8267012.35246  -6331344.41646  23085999.4134   23086002.8704
      2202.8134       1716.4774
  -9431955.61047  -7227979.06446  21996170.4054   21996172.5154
        58.4384         45.5364
   -382077.45544   -202625.24442  24759982.0934   24759983.1594
      1897.7814       1478.7914
   5868764.86846   4607717.95946  22214444.3974   22214446.5424
     -2067.4224      -1610.9784
 96  8 31 20 43  0.0030000  0  8G28G 9G 3G17G 1G21G31G23
   5063399.625 6   3945502.814 6  22325247.976    22325246.038
     -3152.141       -2456.213
   -318188.12144   -216373.01643  24970154.8044   24970158.2614
       422.9224        329.5504
  -9851088.09246  -7571567.27146  22510842.7494   22510844.8584
        -5.1254         -3.9944
   9336806.94246   7287538.12946  22475223.2494   22475226.0504
     -2668.9534      -2079.7044
  -8332926.42346  -6382705.97746  23073456.7414   23073459.5894
      2191.4844       1707.6504
  -9433584.52747  -7229248.34847  21995860.5854   21995862.9294
        50.2504         39.1564
   -438820.75544   -246840.77743  24749183.2104   24749188.0264
      1885.2504       1469.0264
   5930884.20447   4656122.63046  22226265.5544   22226267.7804
     -2073.7974      -1615.9464
 96  8 31 20 43 30.0030000  0  8G28G 9G 3G17G 1G21G31G23
   5158199.364 6   4019372.699 6  22343287.788    22343285.960
     -3168.031       -2468.596
   -330675.51645   -226103.39642  24967778.7334   24967783.3974
       409.2504        318.8964
  -9850636.62346  -7571215.48946  22510928.1554   22510930.5224
       -25.1724        -19.6144
   9417056.63546   7350070.33846  22490494.6634   22490497.6754
     -2681.1094      -2089.1764
  -8398505.26746  -6433806.33146  23060977.0304   23060980.4054
      2180.1094       1698.7874
  -9434974.08147  -7230331.10646  21995595.6324   21995597.6714
        42.1564         32.8494
   -495197.95744   -290770.98442  24738454.5694   24738457.5224
      1873.0004       1459.4814
   5993185.14746   4704668.81146  22238120.7414   22238123.0504
     -2079.7504      -1620.5844
 96  8 31 20 44  0.0030000  0  8G28G 9G 3G17G 1G21G31G23
   5253470.686 6   4093610.042 6  22361417.417    22361415.569
     -3183.531       -2480.674
   -342748.79445   -235511.10443  24965482.0074   24965485.3704
       395.5004        308.1824
  -9849588.10446  -7570398.46646  22511127.8354   22511130.4724
       -44.8914        -34.9804
   9497657.74946   7412876.36846  22505832.5464   22505834.9954
     -2692.4374      -2098.0034
  -8463743.10246  -6484640.96246  23048562.4214   23048566.1244
      2168.8594       1690.0204
  -9436117.35147  -7231221.96246  21995377.7724   21995380.0584
        33.8754         26.3964
   -551214.92344   -334420.59243  24727795.2884   24727800.0814
      1861.1564       1450.2524
   6055649.99446   4753342.70746  22250007.4214   22250009.3194
     -2084.5784      -1624.3474
 96  8 31 20 44 30.0030000  0  8G28G 9G 3G17G 1G21G31G23
   5349213.476 6   4168214.770 6  22379636.706    22379634.788
     -3199.234       -2492.910
   -354404.98344   -244593.79143  24963263.8664   24963268.2844
       381.6094        297.3584
  -9847944.51446  -7569117.75446  22511440.7024   22511443.0814
       -64.6874        -50.4064
   9578608.55046   7475954.88046  22521236.6944   22521239.9294
     -2704.0944      -2107.0864
  -8528631.12446  -6535203.01446  23036214.0774   23036217.6634
      2157.1564       1680.9014
  -9437005.48547  -7231914.00646  21995209.5154   21995211.9524
        25.4064         19.7974
   -606864.09244   -377783.53543  24717206.0224   24717208.6944
      1848.7344       1440.5724
   6118258.12947   4802128.24646  22261921.7414   22261924.2144
     -2089.2814      -1628.0114
 96  8 31 20 45  0.0030000  0  8G28G 9G 3G17G 1G21G31G23
   5445423.772 6   4243183.786 6  22397944.894    22397942.968
     -3214.625       -2504.903
   -365637.10444   -253346.05543  24961126.2884   24961130.5894
       367.3134        286.2184
  -9845707.34046  -7567374.50846  22511866.3664   22511868.5814
       -84.4224        -65.7834
   9659896.57346   7539296.17346  22536705.5694   22536708.9794
     -2715.0314      -2115.6094
  -8593176.05046  -6585497.72146  23023932.7024   23023936.0074
      2145.9224       1672.1474
  -9437643.92547  -7232411.48446  21995087.8904   21995089.9764
        17.2974         13.4784
   -662145.64145   -420860.06743  24706686.1634   24706688.3194
      1836.9064       1431.3564
   6181006.79346   4851023.30346  22273862.3744   22273864.4834
     -2093.8914      -1631.6034
 96  8 31 20 45 30.0030000  0  8G28G 9G 3G17G 1G21G31G23
   5542097.256 6   4318513.724 6  22416341.237    22416339.272
     -3230.266       -2517.090
   -376431.25144   -261757.02543  24959072.2264   24959075.4014
       352.2504        274.4814
  -9842865.69447  -7565160.24946  22512407.5304   22512409.4644
      -105.0004        -81.8184
   9741512.38446   7602892.88646  22552236.3824   22552238.5624
     -2725.9534      -2124.1194
  -8657374.15046  -6635522.17346  23011715.7414   23011719.2224
      2133.8914       1662.7724
  -9438032.56447  -7232714.31047  21995013.7414   21995015.8514
         8.5314          6.6484
   -717058.78145   -463649.48943  24696236.8664   24696239.3154
      1823.8754       1421.2014
   6243905.10546   4900034.96646  22285831.7024   22285834.1634
     -2099.2974      -1635.8164
 96  8 31 20 46  0.0030000  0  8G28G 9G 3G17G 1G21G31G23
   5639243.702 6   4394212.204 6  22434827.687    22434825.866
     -3246.281       -2529.570
   -386766.74744   -269810.64043  24957104.8434   24957108.4874
       336.6884        262.3544
  -9839403.50746  -7562462.45046  22513066.4214   22513068.5894
      -126.0164        -98.1944
   9823456.60346   7666745.48446  22567830.6874   22567833.3824
     -2737.0944      -2132.8004
  -8721206.76246  -6685261.83546  22999568.6084   22999571.5154
      2121.5004       1653.1174
  -9438150.35947  -7232806.09046  21994991.1714   21994993.3744
        -0.7194         -0.5604
   -771567.37544   -506123.73843  24685864.0544   24685865.5894
      1809.6884       1410.1464
   6306974.38146   4949179.84546  22297833.1634   22297835.7294
     -2105.6564      -1640.7714
 96  8 31 20 46 30.0030000  0  8G28G 9G 3G17G 1G21G31G23
   5736854.006 6   4470272.133 6  22453402.308    22453400.515
     -3261.094       -2541.112
   -396643.88944   -277507.05443  24955225.1084   24955228.3544
       321.6094        250.6054
  -9835320.99446  -7559281.28046  22513842.8904   22513845.2334
      -146.3444       -114.0344
   9905726.33246   7730851.73346  22583485.2804   22583488.5974
     -2747.5474      -2140.9464
  -8784681.55946  -6734722.67746  22987489.6794   22987492.6444
      2110.1884       1644.3024
  -9438014.99947  -7232700.60746  21995017.0624   21995019.4404
        -8.2664         -6.4414
   -825655.31944   -548270.17742  24675570.8584   24675573.7764
      1796.2194       1399.6514
   6370236.16246   4998474.72646  22309871.2104   22309873.7184
     -2112.0624      -1645.7634
 96  8 31 20 47  0.0030000  0  7G28G 3G17G 1G21G31G23
   5834921.198 6   4546688.085 6  22472064.011    22472062.085
     -3276.641       -2553.226
  -9830602.53746  -7555604.57146  22514740.6634   22514742.9724
      -168.1254       -131.0064
   9988318.22346   7795209.03046  22599202.3514   22599204.6944
     -2758.6094      -2149.5664
  -8847803.51746  -6783908.56946  22975478.3584   22975481.2654
      2097.9534       1634.7694
  -9437641.28847  -7232409.39846  21995088.3824   21995090.8194
       -16.5474        -12.8944
   -879325.51144   -590091.05243  24665358.0304   24665362.4724
      1781.7974       1388.4134
   6433713.58346   5047937.64446  22321950.4294   22321952.8434
     -2119.7194      -1651.7294
 96  8 31 20 47 30.0030000  0  8G28G 9G 3G17G 1G21G31G23
   5933451.432 6   4623464.841 6  22490813.733    22490811.772
     -3292.000       -2565.195
     -8299.31455                  24951741.5544
       288.8594
  -9825232.01746  -7551419.75846  22515762.8664   22515765.3744
      -189.8284       -147.9184
  10071242.71146   7859825.46846  22614982.9524   22614985.8704
     -2769.7344      -2158.2354
  -8910557.42846  -6832807.67446  22963536.9214   22963539.7574
      2085.7034       1625.2234
  -9437020.32047  -7231925.52446  21995206.6404   21995209.1364
       -24.8754        -19.3834
    -26556.30555   -631567.23243  24655230.4764   24655232.7964
      1766.5784       1376.5544
   6497420.63946   5097579.49046  22334073.5384   22334075.6834
     -2127.4224      -1657.7314
 96  8 31 20 48  0.0030000  0  8G28G 9G 3G17G 1G21G31G23
   6032441.016 6   4700599.534 6  22509650.987    22509648.851
     -3307.406       -2577.200
    -16729.64745     -3457.80855  24950137.9764   24950141.4444
       273.0634        212.7764
  -9819214.83446  -7546731.05346  22516907.9134   22516910.4094
      -211.5164       -164.8174
  10154506.18246   7924706.07146  22630826.9444   22630830.0854
     -2781.3594      -2167.2934
  -8972946.51046  -6881422.50046  22951664.1944   22951667.1124
      2073.3914       1615.6294
  -9436152.65347  -7231249.41146  21995371.2654   21995373.7614
       -33.0624        -25.7634
    -79334.57644   -672693.16644  24645185.3584   24645189.6474
      1751.8444       1365.0734
   6561356.90246   5147399.94446  22346240.6014   22346243.0504
     -2135.1564      -1663.7584
 96  8 31 20 48 30.0030000  0  8G28G 9G 3G17G 1G21G31G23
   6131883.920 6   4778087.463 6  22528574.218    22528572.280
     -3322.453       -2588.925
    -24693.69745     -9663.56645  24948622.2654   24948625.7224
       257.7034        200.8084
  -9812548.36946  -7541536.41146  22518176.3044   22518178.8004
      -233.2974       -181.7904
  10238123.55946   7989862.44046  22646738.7884   22646741.3784
     -2793.5314      -2176.7784
  -9034967.69846  -6929750.65446  22939861.7884   22939864.7534
      2060.9694       1605.9504
  -9435038.67647  -7230381.37446  21995583.4054   21995585.7614
       -41.6564        -32.4594
    -36602.20854   -713486.58043  24635222.9834   24635226.5114
      1738.0634       1354.3344
   6625513.65146   5197392.21146  22358448.7414   22358451.1794
     -2142.0474      -1669.1274
 96  8 31 20 49  0.0030000  0  8G28G 9G 3G17G 1G21G31G23
   6231782.132 6   4855930.175 6  22547584.362    22547582.319
     -3337.500       -2600.649
    -32207.14945    -15518.14045  24947192.5934   24947196.0504
       243.3444        189.6194
  -9805230.65546  -7535834.30646  22519569.2654   22519571.4094
      -254.4374       -198.2634
  10322105.30246   8055302.71746  22662720.9294   22662723.1084
     -2805.3284      -2185.9704
  -9096606.22946  -6977780.63446  22928132.8514   22928135.9444
      2048.2344       1596.0274
  -9433655.61647  -7229303.66346  21995846.4374   21995849.0384
       -50.6874        -39.4974
    -88539.38745   -753957.12143  24625340.7654   24625343.5074
      1724.0944       1343.4504
   6689865.17246   5247536.23746  22370695.0304   22370697.5624
     -2148.0314      -1673.7914
 96  8 31 20 49 30.0030000  0  8G28G 9G 3G17G 1G21G31G23
   6332132.089 6   4934124.896 6  22566680.315    22566678.319
     -3352.547       -2612.374
    -39305.73045    -21049.45545  24945841.4374   24945845.1634
       229.8444        179.0994
  -9797282.38346  -7529640.85846  22521081.7334   22521083.8544
      -275.5624       -214.7244
  10406442.34546   8121019.85946  22678768.2884   22678771.9794
     -2817.2034      -2195.2234
  -9157866.06646  -7025515.53846  22916475.0154   22916478.1084
      2035.6884       1586.2504
  -9431999.50247  -7228013.17646  21996161.8744   21996164.1594
       -59.7664        -46.5714
   -140051.05144   -794096.04043  24615537.0074   24615541.1324
      1709.9844       1332.4554
   6754391.83547   5297816.74746  22382974.0854   22382976.5814
     -2153.8124      -1678.2954
 96  8 31 20 50  0.0030000  0  8G28G 9G 3G17G 1G21G31G23
   6432929.441 6   5012668.241 6  22585861.351    22585859.460
     -3367.344       -2623.904
    -46000.91345    -26266.44844  24944567.2724   24944571.3044
       216.2974        168.5434
  -9788706.41146  -7522958.28946  22522713.5304   22522715.8274
      -296.2974       -230.8814
  10491132.84646   8187012.44246  22694884.5694   22694887.2654
     -2828.9224      -2204.3554
  -9218750.35446  -7072957.79546  22904889.4994   22904892.6634
      2023.1884       1576.5104
  -9430079.80547  -7226517.30046  21996527.1634   21996529.3904
       -68.3124        -53.2314
   -191150.60644   -833913.84143  24605813.9684   24605815.3514
      1696.5474       1321.9854
   6819087.37046   5348228.83946  22395285.0694   22395287.7764
     -2159.2504      -1682.5324
 96  8 31 20 50 30.0030000  0  8G28G 9G 3G17G 1G21G31G23
   6534171.337 6   5091557.982 6  22605127.116    22605125.187
     -3382.187       -2635.471
    -52282.82244    -31161.41144  24943371.8044   24943376.1404
       202.3754        157.6954
  -9779504.91346  -7515788.30246  22524464.2574   22524466.5304
      -317.1414       -247.1234
  10576179.10846   8253282.20346  22711069.3354   22711072.0194
     -2840.8284      -2213.6324
  -9279251.81646  -7120101.75246  22893376.7494   22893380.0654
      2010.1254       1566.3314
  -9427899.04247  -7224818.00446  21996941.9524   21996944.0384
       -77.0314        -60.0244
   -241837.36945   -873409.98943  24596168.2964   24596171.2264
      1682.4844       1311.0274
   6883941.22147   5398764.30246  22407625.9994   22407628.3434
     -2164.3444      -1686.5024
 96  8 31 20 51  0.0030000  0  8G28G 9G 3G17G 1G21G31G23
   6635856.289 6   5170792.957 6  22624477.202    22624475.140
     -3396.859       -2646.903
    -58142.91744    -35727.69745  24942256.3354   24942260.4134
       188.0004        146.4944
  -9769690.77446  -7508140.93346  22526331.6634   22526333.9724
      -337.2344       -262.7804
  10661572.13746   8319822.21246  22727317.3434   22727321.0584
     -2852.2034      -2222.4964
  -9339365.01946  -7166943.16746  22881937.0774   22881940.0774
      1997.4064       1556.4204
  -9425471.28447  -7222926.24646  21997404.0464   21997406.4134
       -84.7814        -66.0634
   -292094.80644   -912571.63743  24586603.9834   24586606.8784
      1667.7814       1299.5704
   6948948.58046   5449419.38046  22419996.4604   22419998.8514
     -2169.5944      -1690.5934
 96  8 31 20 51 30.0030000  0  8G28G 9G 3G17G 1G21G31G23
   6737986.809 6   5250375.132 6  22643911.983    22643909.905
     -3411.625       -2658.409
    -63548.77145    -39940.03944  24941228.0934   24941232.3354
       172.2974        134.2574
  -9759258.75446  -7500012.09146  22528317.1404   22528319.3194
      -358.1414       -279.0714
  10747327.63846   8386644.63646  22743636.1554   22743639.6244
     -2864.6564      -2232.2004
  -9399090.51246  -7213482.46946  22870571.3044   22870574.1874
      1984.2664       1546.1814
  -9422812.11247  -7220854.15746  21997910.1634   21997912.4724
       -92.2814        -71.9074
   -341907.55544   -951386.73443  24577125.5624   24577127.5774
      1653.3754       1288.3444
   7014125.70846   5500206.73546  22432399.3514   22432401.7764
     -2175.3124      -1695.0494
 96  8 31 20 52  0.0030000  0  8G28G 9G 3G17G 1G21G31G23
   6840554.328 6   5330297.824 6  22663430.019    22663427.890
     -3426.250       -2669.805
    -68467.81645    -43773.00343  24940292.9054   24940296.6674
       155.6254        121.2664
  -9748214.94046  -7491406.53646  22530418.7654   22530421.0504
      -378.1724       -294.6794
  10833452.42246   8453754.82046  22760026.1874   22760029.2924
     -2877.0164      -2241.8304
  -9458412.94346  -7259707.69746  22859283.0154   22859285.9564
      1970.4844       1535.4424
  -9419931.75247  -7218609.71547  21998458.1014   21998460.3744
       -99.9534        -77.8864
   -391297.00644   -989872.01743  24567727.3124   24567729.0114
      1639.0944       1277.2164
   7079466.19246   5551121.39046  22444833.3584   22444835.5384
     -2180.6874      -1699.2374
 96  8 31 20 52 30.0030000  0  8G28G 9G 3G17G 1G21G31G23
   6943557.723 6   5410560.159 6  22683031.147    22683028.796
     -3440.484       -2680.897
    -72891.40045    -47219.90743  24939449.9684   24939454.0464
       139.4384        108.6534
  -9736571.85846  -7482334.01546  22532634.1714   22532636.5624
      -397.7974       -309.9724
  10919946.32946   8521152.62146  22776485.1474   22776488.5694
     -2889.0164      -2251.1814
  -9517328.11746  -7305615.57846  22848071.8044   22848074.5464
      1957.4534       1525.2884
  -9416818.47547  -7216183.78346  21999050.5854   21999053.1164
      -107.3754        -83.6694
   -440257.13844  -1028022.73643  24558409.5774   24558412.7764
      1625.0634       1266.2824
   7144964.44547   5602158.96946  22457297.3434   22457299.6164
     -2185.8284      -1703.2434
 96  8 31 20 53  0.0030000  0  8G28G 9G 3G17G 1G21G31G23
   7046992.748 6   5491158.820 6  22702714.140    22702711.921
     -3454.812       -2692.062
    -76821.16645    -50282.03243  24938702.8044   24938707.2694
       122.8284         95.7104
  -9724339.52947  -7472802.33846  22534962.4444   22534964.5194
      -417.4224       -325.2644
  11006800.85546   8588831.45246  22793013.3824   22793016.2064
     -2900.9374      -2260.4714
  -9575857.45246  -7351222.81046  22836934.0304   22836936.9014
      1944.9224       1515.5244
  -9413481.03247  -7213583.16646  21999686.0464   21999688.4834
      -114.7504        -89.4164
   -488790.69045  -1065841.06944  24549175.6634   24549176.6594
      1610.8284       1255.1914
   7210634.79646   5653330.67146  22469793.6944   22469796.0384
     -2191.8284      -1707.9184
 96  8 31 20 53 30.0030000  0  8G28G 9G 3G17G 1G21G31G23
   7150848.557 6   5572085.376 6  22722477.249    22722475.085
     -3469.156       -2703.239
    -80260.13945    -52961.71343  24938047.7104   24938051.3664
       106.2344         82.7804
  -9711514.11947  -7462808.51946  22537402.7264   22537404.9874
      -437.7974       -341.1404
  11094001.01946   8656779.57446  22809607.6474   22809610.0384
     -2912.4534      -2269.4444
  -9634018.36146  -7396542.95846  22825865.8514   22825868.9444
      1932.0634       1505.5034
  -9409924.12747  -7210811.53946  22000362.5384   22000365.0934
      -122.7194        -95.6254
   -536907.53244  -1103334.67343  24540017.1714   24540019.8544
      1596.7034       1244.1844
   7276481.38547   5704639.68946  22482324.4914   22482326.9404
     -2198.1724      -1712.8614
 96  8 31 20 54  0.0030000  0  8G28G 9G 3G17G 1G21G31G23
   7255131.834 6   5653345.024 6  22742321.792    22742319.640
     -3483.141       -2714.136
    -83210.11645    -55260.39542  24937486.7884   24937489.8584
        90.5164         70.5324
  -9698086.10046  -7452345.13646  22539957.9604   22539960.3514
      -457.6254       -356.5914
  11181529.92046   8724983.89746  22826262.9524   22826266.5504
     -2922.9694      -2277.6384
  -9691797.62846  -7441565.71046  22814871.6474   22814874.6474
      1919.9064       1496.0314
  -9406124.50747  -7207850.79246  22001085.5464   22001087.9484
      -130.6564       -101.8104
   -584593.33044  -1140492.40243  24530944.0544   24530947.8744
      1582.1724       1232.8614
   7342512.74646   5756092.68346  22494889.3664   22494891.4644
     -2204.0784      -1717.4634
 96  8 31 20 54 30.0030000  0  8G28G 9G 3G17G 1G21G31G23
   7359839.546 6   5734935.396 6  22762246.929    22762244.999
     -3497.156       -2725.057
    -85684.04145    -57188.08143  24937015.5934   24937019.6124
        74.5784         58.1134
  -9684040.69746  -7441400.67746  22542630.7414   22542633.1324
      -478.5624       -372.9064
  11269386.31746   8793443.39946  22842981.4134   22842984.3904
     -2933.8594      -2286.1244
  -9749218.81446  -7486309.44446  22803944.3974   22803947.3864
      1908.3594       1487.0334
  -9402080.25347  -7204699.41346  22001855.2184   22001857.3044
      -138.7194       -108.0934
   -631831.69845  -1177301.52244  24521955.4054   24521958.2884
      1567.1884       1221.1854
   7408732.95947   5807692.83446  22507490.8664   22507493.0114
     -2210.5004      -1722.4684
 96  8 31 20 55  0.0030000  0  8G28G 9G 3G17G 1G21G31G23
   7464964.403 6   5816850.818 6  22782251.729    22782249.507
     -3510.812       -2735.698
    -87672.59145    -58737.58343  24936637.3124   24936640.4994
        58.3754         45.4874
  -9669362.30047  -7429962.97646  22545424.2184   22545426.4564
      -499.7034       -389.3794
  11357562.25746   8862151.88146  22859760.9604   22859764.4764
     -2944.1724      -2294.1604
  -9806290.66846  -7530780.97346  22793083.9914   22793086.8864
      1896.5634       1477.8414
  -9397792.55047  -7201358.34546  22002671.1714   22002673.4334
      -146.8754       -114.4484
   -678618.35045  -1213758.63044  24513051.7724   24513054.7264
      1552.2504       1209.5454
   7475139.96646   5859438.54646  22520127.3824   22520129.9254
     -2216.2194      -1726.9244
 96  8 31 20 55 30.0030000  0  8G28G 9G 3G17G 1G21G31G23
   7570500.581 6   5899086.756 6  22802334.511    22802332.437
     -3524.687       -2746.510
    -89173.91845    -59907.41645  24936352.1164   24936356.0304
        42.0314         32.7524
  -9654041.84147  -7418024.95946  22548339.5304   22548341.6284
      -521.3754       -406.2664
  11446050.83646   8931103.97946  22876599.6554   22876602.7844
     -2954.9064      -2302.5244
  -9862988.32546  -7574960.92546  22782294.4914   22782297.3974
      1883.4534       1467.6264
  -9393246.71747  -7197816.13146  22003536.0464   22003538.2614
      -156.0164       -121.5714
   -724952.01545  -1249862.75244  24504234.5304   24504237.9874
      1536.8754       1197.5654
   7541715.69946   5911315.72546  22532796.8744   22532799.2764
     -2221.9374      -1731.3804
 96  8 31 20 56  0.0030000  0  8G28G 9G 3G17G 1G21G31G23
   7676454.525 6   5981648.219 6  22822496.843    22822494.827
     -3538.703       -2757.431
    -90186.30345    -60696.25944  24936159.5464   24936162.9564
        25.7344         20.0534
  -9638072.31247  -7405581.18946  22551378.4054   22551380.7724
      -543.1094       -423.2024
  11534875.50846   9000317.98446  22893503.3124   22893505.7614
     -2966.6724      -2311.6924
  -9919293.47446  -7618835.01846  22771580.2104   22771583.1874
      1870.4064       1457.4594
  -9388420.93647  -7194055.77346  22004454.3274   22004456.8004
      -165.5164       -128.9734
   -770817.48245  -1285602.08643  24495506.4444   24495508.3784
      1521.0474       1185.2314
   7608463.88046   5963327.28246  22545498.4374   22545500.9334
     -2227.7814      -1735.9334
 96  8 31 20 56 30.0030000  0  8G28G 9G 3G17G 1G21G31G23
   7782819.821 6   6064530.218 6  22842737.640    22842735.522
     -3552.359       -2768.072
    -90718.24045    -61110.73543  24936058.4374   24936062.7494
         9.6724          7.5374
  -9621456.36146  -7392633.70446  22554540.3354   22554542.5854
      -564.5784       -439.9314
  11624051.16546   9069805.44746  22910472.8824   22910476.1284
     -2978.2974      -2320.7514
  -9975211.40946  -7662407.39346  22760938.9054   22760942.0114
      1857.3444       1447.2814
  -9383314.48747  -7190076.71946  22005426.3274   22005428.5544
      -175.0004       -136.3644
   -816220.68345  -1320981.17243  24486867.0224   24486870.0584
      1505.7974       1173.3484
   7675381.63246   6015470.97446  22558232.3434   22558234.8274
     -2233.4064      -1740.3174
 96  8 31 20 57  0.0030000  0  8G28G 9G 3G17G 1G21G31G23
   7889592.610 6   6147729.742 6  22863055.831    22863053.687
     -3565.844       -2778.580
    -90770.32145    -61151.29344  24936048.9134   24936052.8744
        -6.0944         -4.7484
  -9604200.28046  -7379187.42146  22557824.1714   22557826.7494
      -585.6874       -456.3804
  11713575.41746   9139564.59646  22927508.5384   22927511.7724
     -2990.0784      -2329.9314
 -10030721.61046  -7705662.05146  22750376.0774   22750379.1364
      1843.2664       1436.3114
  -9377922.80847  -7185875.40346  22006452.3354   22006454.6324
      -184.3124       -143.6204
   -861165.40245  -1356003.01944  24478313.0464   24478315.0734
      1490.6094       1161.5144
   7742466.84346   6067745.15346  22570997.9524   22571000.7064
     -2238.8754      -1744.5784
 96  8 31 20 57 30.0030000  0  8G28G 9G 3G17G 1G21G31G23
   7996772.995 6   6231246.873 6  22883451.558    22883449.476
     -3579.375       -2789.123
    -90351.02345    -60824.52043  24936127.4134   24936131.8314
       -21.6874        -16.8994
  -9586310.35046  -7365247.22546  22561228.6404   22561231.4404
      -606.7504       -472.7924
  11803461.05846   9209605.29746  22944612.9214   22944615.9564
     -3002.1564      -2339.3434
 -10085804.27746  -7748583.57446  22739893.6324   22739896.8784
      1829.2194       1425.3654
  -9372258.12147  -7181461.35447  22007530.2654   22007532.2924
      -193.1414       -150.4994
   -905655.34545  -1390670.46544  24469848.8124   24469851.7884
      1475.4064       1149.6674
   7809719.98246   6120150.19046  22583796.2574   22583798.9404
     -2244.5164      -1748.9734
 96  8 31 20 58  0.0030000  0  8G28G 9G 3G17G 1G21G31G23
   8104354.732 6   6315076.748 6  22903923.796    22903921.640
     -3592.906       -2799.667
    -89464.52445    -60133.70144  24936296.3664   24936299.4254
       -37.6254        -29.3184
  -9567798.80946  -7350822.66846  22564750.7804   22564753.4174
      -627.6564       -489.0834
  11893709.77646   9279928.93346  22961787.4134   22961790.4604
     -3014.5004      -2348.9614
 -10140477.13646  -7791185.75546  22729489.9764   22729493.2454
      1815.2974       1414.5174
  -9366339.34547  -7176849.31346  22008656.4054   22008658.7374
      -201.5004       -157.0134
   -949691.68845  -1424984.49743  24461467.5774   24461470.4954
      1460.1884       1137.8084
   7877136.62946   6172682.62846  22596625.2964   22596627.4404
     -2250.0624      -1753.2954
 96  8 31 20 58 30.0040000  0  8G28G 9G 3G17G 1G21G31G23
   8212343.974 6   6399224.156 6  22924473.652    22924471.519
     -3606.156       -2809.992
    -88089.62245    -59062.34143  24936557.6604   24936560.5084
       -54.1254        -42.1754
  -9548658.63647  -7335908.26246  22568393.8324   22568396.1174
      -648.3284       -505.1914
  11984320.59846   9350534.72846  22979029.8404   22979032.7464
     -3025.9224      -2357.8614
 -10194726.58846  -7833458.01746  22719166.0904   22719169.3014
      1801.2034       1403.5354
  -9360180.26947  -7172050.02646  22009828.7234   22009831.1134
      -209.0164       -162.8694
   -993269.91145  -1458941.55443  24453175.8164   24453177.7624
      1444.8134       1125.8284
   7944716.38046   6225342.15546  22609484.8944   22609487.3324
     -2254.9844      -1757.1314
 96  8 31 20 59  0.0040000  0  8G28G 9G 3G17G 1G21G31G23
   8320723.695 6   6483675.832 6  22945097.723    22945095.496
     -3619.344       -2820.268
                       740.71815  24936913.105
       -70.547
  -9528904.43447  -7320515.38846  22572152.4264   22572154.6294
      -668.6564       -521.0314
  12075266.85546   9421401.91546  22996336.1604   22996339.3014
     -3037.3444      -2366.7614
 -10248552.09946  -7875399.93746  22708923.8164   22708926.8284
      1786.9534       1392.4314
  -9353803.20147  -7167080.87146  22011041.7774   22011044.0394
      -216.1414       -168.4214
  -1036384.99345  -1492537.67645  24444970.3014   24444972.5274
      1429.4064       1113.8234
   8012431.30446   6278107.02546  22622370.7464   22622373.2894
     -2259.3914      -1760.5644
 96  8 31 20 59 30.0040000  0  8G28G 9G 3G17G 1G21G31G23
   8429498.301 6   6568435.210 6  22965796.945    22965794.691
     -3632.297       -2830.361
                      3103.41944  24937362.1844
       -87.0314
  -9508543.39247  -7304649.66346  22576027.0824   22576029.3554
      -688.7194       -536.6644
  12166551.34146   9492532.63445  23013706.3404   23013709.9844
     -3048.2504      -2375.2604
 -10301959.54946  -7917016.09146  22698760.8164   22698763.8284
      1773.5784       1382.0094
  -9347213.20047  -7161945.80746  22012295.9104   22012298.3484
      -223.3444       -174.0344
  -1079038.39145  -1525774.07044  24436853.2934   24436856.5744
      1414.0474       1101.8554
   8080276.18646   6330973.15946  22635281.5824   22635283.6094
     -2263.6094      -1763.8514
 96  8 31 21  0  0.0040000  0  8G28G 9G 3G17G 1G21G31G23
   8538663.778 6   6653499.161 6  22986570.340    22986568.293
     -3645.156       -2840.381
      5966.92244      2163.17953  24937907.5274   24937909.9064
      -103.5944        -80.7224
  -9487577.99246  -7288313.00346  22580016.5984   22580018.7894
      -708.8754       -552.3704
  12258171.94246   9563925.27546  23031142.1914   23031144.3944
     -3059.4844      -2384.0144
 -10354959.35846  -7958314.59946  22688675.1604   22688678.1844
      1759.8444       1371.3074
  -9340397.58447  -7156634.93546  22013592.7854   22013594.9304
      -230.7504       -179.8054
  -1121221.81845  -1558644.28644  24428827.5274   24428830.1174
      1398.5004       1089.7404
   8148252.56446   6383941.74946  22648217.0434   22648219.6334
     -2267.9224      -1767.2124
 96  8 31 21  0 30.0040000  0  8G28G 9G 3G17G 1G21G31G23
   8648208.742 6   6738858.807 6  23007416.184    23007414.043
     -3657.891
     -2850.304         591.59914  24938544.957
      -119.812
  -9466009.00647  -7271506.01346  22584121.3164   22584123.6954
      -729.0784       -568.1134
  12350116.20346   9635570.12246  23048638.0514   23048641.5784
     -3070.1874      -2392.3544
 -10407550.60946  -7999294.76246  22678667.1524   22678670.1054
      1746.2974       1360.7514
  -9333364.91447  -7151154.93246  22014930.9654   22014933.3324
      -238.3124       -185.6984
  -1162946.67545  -1591157.11744  24420886.6914   24420889.8554
      1383.0784       1077.7234
   8216349.11747   6437003.98446  22661175.5194   22661177.9694
     -2272.0474      -1770.4264
 96  8 31 21  1  0.0040000  0  8G28G 9G 3G17G 1G21G31G23
   8758141.784 6   6824520.859 6  23028335.832    23028333.684
     -3670.547
     -2860.166        4430.75345  24939276.2234
      -135.7504
  -9443826.85846  -7254221.22646  22588342.1914   22588344.6874
      -749.3914       -583.9414
  12442395.80546   9707476.26946  23066198.3634   23066201.2584
     -3081.4694      -2401.1444
 -10459728.62247  -8039952.91546  22668738.2464   22668740.8594
      1732.6414       1350.1104
  -9326091.67247  -7145487.46546  22016315.4574   22016317.8834
      -246.2344       -191.8714
  -1204207.90245  -1623308.68745  24413035.9494   24413038.4344
      1368.0944       1066.0474
   8284588.04046   6490177.16546  22674160.3714   22674162.3874
     -2276.9064      -1774.2134
 96  8 31 21  1 30.0040000  0  8G28G 9G 3G17G 1G21G31G23
   8868451.360 6   6910476.311 6  23049327.070    23049324.840
     -3683.219       -2870.041
      8749.20245      2174.91254  24940096.8794   24940101.0864
      -151.9844       -118.4294
  -9421027.52747  -7236455.53746  22592680.7234   22592682.8444
      -770.5004       -600.3904
  12535010.94146   9779643.85346  23083823.5594   23083826.4064
     -3092.7034      -2409.8994
 -10511498.22547  -8080292.83046  22658887.1444   22658889.9574
      1718.8134       1339.3344
  -9318582.45947  -7139636.12946  22017744.1374   22017746.5274
      -254.3284       -198.1784
  -1245014.64545  -1655106.12245  24405270.6524   24405273.4304
      1352.4694       1053.8724
   8352981.16846   6543470.50746  22687175.2854   22687177.5824
     -2282.6414      -1778.6814
 96  8 31 21  2  0.0040000  0  8G28G 9G 3G17G 1G21G31G23
   8979133.653 6   6996722.195 6  23070389.266    23070387.160
     -3695.750       -2879.805
     13549.24445      5915.27843  24941010.5514   24941013.5744
      -168.2344       -131.0924
  -9397592.85547  -7218194.76446  22597140.1294   22597142.1684
      -792.1254       -617.2404
  12627958.75346   9852070.70346  23101510.3324   23101512.5824
     -3103.9694      -2418.6774
 -10562853.09247  -8120309.57046  22649114.1844   22649117.0314
      1704.7504       1328.3774
  -9310837.31547  -7133600.94646  22019218.1764   22019220.4494
      -262.0944       -204.2294
  -1285353.43745  -1686538.93545  24397593.9804   24397596.4534
      1336.6884       1041.5754
   8421545.01446   6596896.86646  22700222.7464   22700225.2774
     -2288.4534      -1783.2104
 96  8 31 21  2 30.0040000  0  8G28G 9G 3G17G 1G21G31G23
   9090192.929 6   7083261.830 6  23091523.152    23091520.816
     -3708.078       -2889.412
     18842.84945     10040.18844  24942018.3014   24942021.5354
      -184.6874       -143.9124
  -9373505.23347  -7199425.20246  22601724.0434   22601726.0004
      -813.5784       -633.9574
  12721242.77846   9924759.49646  23119262.0124   23119265.1414
     -3114.9694      -2427.2484
 -10613788.84547  -8159999.73746  22639421.3874   22639423.9184
      1691.1724       1317.7964
  -9302858.21647  -7127383.45946  22020736.6994   22020738.7854
      -269.8914       -210.3044
  -1325218.10645  -1717602.33244  24390007.3554   24390009.3834
      1320.9384       1029.3024
   8490287.91846   6650462.75846  22713304.0744   22713306.3014
     -2294.3124      -1787.7764
 96  8 31 21  3  0.0040000  0  8G28G 9G 3G17G 1G21G31G23
   9201623.549 5   7170090.830 6  23112727.914    23112725.410
     -3720.250       -2898.896
     24637.43945     14555.44543  24943121.0984   24943123.7934
      -201.1874       -156.7694
  -9348772.92047  -7180153.27646  22606430.1844   22606432.4224
      -834.8914       -650.5644
  12814872.43246   9997717.64846  23137078.8094   23137082.1374
     -3126.5624      -2436.2824
 -10664312.07446  -8199368.44646  22629806.8714   22629809.8714
      1677.3594       1307.0334
  -9294638.62747  -7120978.57246  22022300.7074   22022302.8754
      -277.7194       -216.4044
  -1364600.13845  -1748289.60245  24382514.3714   24382515.8244
      1304.8594       1016.7744
   8559211.66446   6704169.57046  22726419.9574   22726422.4304
     -2300.0314      -1792.2324
 96  8 31 21  3 30.0040000  0  8G28G 9G 3G17G 1G21G31G23
   9313422.929 5   7257207.168 6  23134002.949    23134000.035
     -3732.859       -2908.722
     30936.01445     19463.45143  24944319.5594   24944323.1094
      -218.6254       -170.3574
  -9323393.29247  -7160376.96146  22611260.4654   22611262.7154
      -856.8444       -667.6704
  12908847.06846  10070944.60546  23154961.7544   23154964.9884
     -3138.2194      -2445.3654
 -10714412.46046  -8238407.67746  22620273.1844   22620276.3364
      1662.8134       1295.6984
  -9286179.50047  -7114387.04747  22023910.4344   22023912.8484
      -286.0314       -222.8814
  -1403490.75245  -1778593.95145  24375113.7694   24375116.5944
      1288.1254       1003.7344
   8628306.64046   6758009.79946  22739567.5044   22739569.5314
     -2306.1254      -1796.9814
 96  8 31 21  4  0.0040000  0  8G28G 9G 3G17G 1G21G31G23
   9425586.919 5   7344607.617 6  23155347.141    23155344.262
     -3744.750       -2917.987
     37747.15545     24770.87244  24945615.7934   24945618.3594
      -235.6724       -183.6404
  -9297376.11547  -7140103.85146  22616211.1054   22616213.2384
      -877.5164       -683.7784
  13003164.94046  10144439.00245  23172909.4884   23172911.6914
     -3149.7194      -2454.3264
 -10764089.34646  -8277116.90146  22610819.9024   22610822.8674
      1649.0164       1284.9474
  -9277482.49647  -7107610.15346  22025565.2934   22025567.6134
      -293.8444       -228.9694
  -1441899.09645  -1808522.54144  24367803.4184   24367806.1374
      1272.3594        991.4494
   8697564.67746   6811977.08946  22752747.5594   22752749.9024
     -2311.0164      -1800.7914
 96  8 31 21  4 30.0040000  0  8G28G 9G 3G17G 1G21G31G23
   9538109.761 5   7432287.689 6  23176759.230    23176757.019
     -3756.703       -2927.301
     45076.83145     30482.30444  24947010.1914   24947013.3324
      -252.9694       -197.1194
  -9270741.55446  -7119349.66346  22621279.1604   22621281.4694
      -897.9694       -699.7164
  13097830.57446  10218204.38346  23190924.0594   23190927.5984
     -3161.1724      -2463.2514
 -10813348.86046  -8315500.90046  22601446.0124   22601449.1054
      1634.8444       1273.9044
  -9268544.67647  -7100645.61546  22027266.1444   22027268.4184
      -301.9534       -235.2884
  -1479827.72245  -1838077.27545  24360587.0274   24360590.3914
      1256.1884        978.8474
   8766969.88046   6866059.05746  22765954.4884   22765957.1374
     -2315.8754      -1804.5784
 96  8 31 21  5  0.0040000  0  8G28G 9G 3G17G 1G21G31G23
   9650996.035 5   7520250.957 6  23198240.973    23198238.277
     -3769.125       -2936.981
     52934.78845     36605.38844  24948504.7934   24948508.0394
      -271.0004       -211.1694
  -9243489.06946  -7098113.98146  22626465.1054   22626467.6254
      -918.9844       -716.0924
  13192838.03646  10292236.13846  23209003.7544   23209007.0234
     -3172.6564      -2472.2004
 -10862165.64247  -8353539.90846  22592156.9654   22592159.8594
      1619.5314       1261.9724
  -9259362.50047  -7093490.67346  22029013.5594   22029015.6804
      -310.2344       -241.7414
  -1517265.27045  -1867249.38044  24353462.4804   24353464.7304
      1239.5944        965.9174
   8836526.81247   6920259.25646  22779191.5194   22779193.9924
     -2321.3444      -1808.8394
 96  8 31 21  5 30.0040000  0  8G28G 9G 3G17G 1G21G31G23
   9764250.976 5   7608501.498 6  23219792.477    23219790.223
     -3781.203       -2946.392
     61335.42244     43151.35243  24950103.1994   24950107.4774
      -289.1564       -225.3174
  -9215606.07746  -7076386.98746  22631771.0514   22631773.5704
      -939.7664       -732.2854
  13288179.82146  10366528.40745  23227145.1444   23227148.8714
     -3183.5314      -2480.6744
 -10910531.03847  -8391227.19246  22582953.0514   22582955.9344
      1604.7504       1250.4554
  -9249935.48047  -7086144.94146  22030807.5194   22030809.8754
      -318.1724       -247.9264
  -1554210.67245  -1896037.98345  24346431.8714   24346435.4224
      1223.3444        953.2554
   8906247.29046   6974586.88646  22792458.3484   22792460.9144
     -2326.7664      -1813.0644
 96  8 31 21  6  0.0040000  0  8G28G 9G 3G17G 1G21G31G23
   9877857.173 5   7697025.744 6  23241411.098    23241408.879
     -3792.703       -2955.353
     70267.01645     50111.00344  24951803.5274   24951807.2304
      -306.4844       -238.8194
  -9187117.98846  -7054188.49346  22637192.2624   22637194.7234
      -959.6724       -747.7964
  13383839.90846  10441068.70746  23245349.3324   23245352.5784
     -3193.9374      -2488.7824
 -10958463.37047  -8428577.02146  22573832.0194   22573834.3404
      1590.5944       1239.4244
  -9240278.38447  -7078619.92946  22032644.7544   22032647.1804
      -325.8444       -253.9044
  -1590671.99945  -1924449.41745  24339493.8634   24339496.3244
      1207.0634        940.5684
   8976116.24946   7029030.22046  22805754.2074   22805756.5744
     -2331.3594      -1816.6444
 96  8 31 21  6 30.0040000  0  8G28G 9G 3G17G 1G21G31G23
   9991816.365 5   7785825.047 6  23263096.812    23263094.387
     -3804.437       -2964.497
     79726.94545     57482.39445  24953603.0514   24953606.6374
      -323.9844       -252.4554
  -9158016.11247  -7031511.71646  22642730.4264   22642732.6874
      -980.3284       -763.8924
  13479809.79846  10515850.38145  23263611.7934   23263614.9224
     -3203.8914      -2496.5384
 -11005955.52747  -8465583.85846  22564794.2624   22564796.7934
      1575.6414       1227.7724
  -9230386.00247  -7070911.57446  22034527.3094   22034529.6294
      -333.4064       -259.7974
  -1626630.35045  -1952468.88544  24332650.4104   24332652.5084
      1190.3754        927.5654
   9046138.32246   7083592.86846  22819079.1214   22819081.7584
     -2336.6564      -1820.7714
 96  8 31 21  7  0.0040000  0  8G28G 9G 3G17G 1G21G31G23
  10106123.624 5   7874895.575 6  23284848.965    23284846.574
     -3815.812       -2973.360
     89708.54944     65260.27842  24955501.0194   24955504.2194
      -341.1414       -265.8244
  -9128298.65747  -7008355.27246  22648385.2464   22648387.8594
     -1000.6254       -779.7084
  13576080.94046  10590866.81245  23281931.4264   23281934.9414
     -3214.1254      -2504.5134
 -11052999.69147  -8502241.61346  22555842.1054   22555844.6484
      1560.9844       1216.3514
  -9220266.49647  -7063026.23446  22036452.5824   22036454.7154
      -341.1254       -265.8124
  -1662097.36345  -1980105.47445  24325901.3714   24325904.3484
      1174.2814        915.0244
   9116320.80146   7138280.50546  22832433.8404   22832436.7114
     -2341.9844      -1824.9234
 96  8 31 21  7 30.0040000  0  8G28G 9G 3G17G 1G21G31G23
  10220770.707 5   7964230.901 6  23306665.508    23306663.496
     -3827.062       -2982.127
    100195.46645                  24957499.0354
      -357.8124
  -9097974.97947  -6984726.44146  22654156.1294   22654158.3094
     -1020.7194       -795.3654
  13672668.00046  10666129.41145  23300311.9964   23300315.4534
     -3224.7664      -2512.8044
 -11099607.76947  -8538559.55646  22546972.7074   22546975.3554
      1546.4064       1204.9924
  -9209909.11847  -7054955.55046  22038423.9574   22038426.0554
      -349.0944       -272.0214
  -1697072.68645  -2007358.98645  24319245.5984   24319248.1294
      1157.6724        902.0824
   9186656.47946   7193087.51646  22845818.6604   22845820.9804
     -2346.8914      -1828.7464
 96  8 31 21  8  0.0040000  0  8G28G 9G 3G17G 1G21G31G23
  10335754.300 5   8053828.442 6  23328546.297    23328543.769
     -3838.375       -2990.942
    111182.19545      5467.12454  24959589.0594   24959593.1844
      -374.5624       -291.8674
  -9067045.92447  -6960625.89646  22660041.7544   22660043.8754
     -1041.1564       -811.2914
  13769576.30646  10741642.34045  23318752.3554   23318756.4344
     -3235.6874      -2521.3154
 -11145775.07747  -8574534.04146  22538187.6684   22538190.1644
      1531.6254       1193.4744
  -9199315.02247  -7046700.41046  22040440.1444   22040442.4184
      -357.0474       -278.2184
  -1731547.44145  -2034222.40845  24312685.7544   24312688.0274
      1140.7344        888.8844
   9257137.66746   7248007.91046  22859231.0044   22859233.0904
     -2351.7974      -1832.5694
 96  8 31 21  8 30.0040000  0  8G28G 9G 3G17G 1G21G31G23
  10451074.831 5   8143688.537 6  23350491.191    23350488.730
     -3849.828       -2999.866
    122670.74745     14419.22644  24961775.8164   24961779.3444
      -391.4064       -304.9924
  -9035502.06347  -6936046.28246  22666043.8324   22666046.2814
     -1061.8124       -827.3864
  13866812.41746  10817410.67445  23337256.1524   23337259.2934
     -3246.9694      -2530.1064
 -11191501.32847  -8610164.84646  22529485.9884   22529488.5904
      1516.6254       1181.7864
  -9188493.03247  -7038267.68946  22042498.9884   22042501.2734
      -364.6724       -284.1604
  -1765515.37045  -2060690.93345  24306222.4734   24306224.4414
      1123.6724        875.5884
   9327764.12746   7303041.51146  22872670.8794   22872672.8244
     -2356.7814      -1836.4534
 96  8 31 21  9  0.0040000  0  8G28G 9G 3G17G 1G21G31G23
  10566734.937 5   8233813.231 6  23372500.367    23372498.301
     -3860.937       -3008.523
    134657.44345     23759.51944  24964056.1054   24964059.9024
      -407.7344       -317.7154
  -9003345.59446  -6910989.31946  22672163.3244   22672165.7154
     -1082.1254       -843.2144
  13964393.92346  10893448.17745  23355825.7464   23355828.3714
     -3258.5004      -2539.0914
 -11236784.09747  -8645450.08746  22520869.0514   22520871.6414
      1502.2194       1170.5604
  -9177432.36347  -7029648.98046  22044604.1604   22044606.2934
      -372.8284       -290.5154
  -1798975.48745  -2086763.72545  24299854.1374   24299857.0784
      1106.7504        862.4034
   9398532.09846   7358185.35846  22886137.1444   22886139.5004
     -2361.0624      -1839.7894
 96  8 31 21  9 30.0040000  0  8G28G 9G 3G17G 1G21G31G23
  10682727.868 5   8324197.266 6  23394573.258    23394570.785
     -3871.969       -3017.119
    147136.23445     33483.27843  24966430.8324   24966433.6444
      -424.2974       -330.6214
  -8970574.00146  -6885453.02746  22678399.3244   22678401.8204
     -1102.7504       -859.2864
  14062314.94946  10969750.21946  23374459.6764   23374463.1214
     -3269.4694      -2547.6384
 -11281635.67047  -8680399.32346  22512333.9414   22512336.3444
      1487.8134       1159.3344
  -9166130.49247  -7020842.33246  22046754.8094   22046756.7544
      -380.6414       -296.6034
  -1831920.33245  -2112435.00945  24293585.8714   24293589.1414
      1089.5944        849.0344
   9469423.58146   7413425.46246  22899627.3324   22899630.2154
     -2365.0944      -1842.9304
 96  8 31 21 10  0.0040000  0  8G28G 9G 3G17G 1G21G31G23
  10799059.693 5   8414845.377 6  23416711.019    23416708.613
     -3883.437       -3026.055
    160125.86845     43605.11145  24968902.9804   24968905.4534
      -441.5624       -344.0754
  -8937172.21847  -6859425.68546  22684755.8094   22684758.1644
     -1123.9374       -875.7954
  14160571.17646  11046313.47645  23393157.4344   23393160.9264
     -3280.8444      -2556.5024
 -11326045.16547  -8715004.09946  22503883.2304   22503885.7734
      1472.8134       1147.6464
  -9154589.92447  -7011849.67746  22048950.9184   22048953.1914
      -388.7194       -302.8984
  -1864348.34645  -2137703.57645  24287414.8014   24287417.0044
      1072.2664        835.5324
   9540448.13746   7468769.25746  22913143.2624   22913145.8524
     -2369.9694      -1846.7294
 96  8 31 21 10 30.0040000  0  8G28G 9G 3G17G 1G21G31G23
  10915729.671 5   8505756.977 6  23438912.703    23438909.652
     -3894.672       -3034.809
    173626.27345     54124.93045  24971472.5514   24971474.9534
      -458.5164       -357.2854
  -8903141.76347  -6832908.45746  22691231.8484   22691234.3324
     -1144.8914       -892.1234
  14259163.94546  11123138.96745  23411917.9734   23411921.4064
     -3292.0624      -2565.2444
 -11370007.07947  -8749260.09446  22495517.6444   22495520.5514
      1457.8754       1136.0064
  -9142805.08647  -7002666.68546  22051193.7624   22051196.0824
      -397.2344       -309.5334
  -1896259.47145  -2162569.38245  24281342.3944   24281345.2074
      1055.1884        822.2244
   9611623.17846   7524230.32446  22926687.2464   22926689.5904
     -2375.0784      -1850.7104
 96  8 31 21 11  0.0040000  0  8G28G 9G 3G17G 1G21G31G23
  11032727.989 5   8596924.436 6  23461176.480    23461174.457
     -3905.234       -3043.040
    187632.83345     65039.18244  24974137.0194   24974139.5514
      -475.3594       -370.4104
  -8868482.27347  -6805901.07946  22697826.8874   22697829.1724
     -1165.7814       -908.4014
  14358091.73546  11200225.48345  23430744.0744   23430746.6174
     -3303.1094      -2573.8514
 -11413525.32447  -8783170.38246  22487236.1684   22487238.9804
      1443.2664       1124.6234
  -9130759.78547  -6993280.73146  22053485.7384   22053487.9064
      -405.7344       -316.1574
  -1927670.67545  -2187045.63545  24275364.6604   24275366.7344
      1038.7344        809.4034
   9682950.33846   7579809.90446  22940260.5594   22940262.8794
     -2380.0164      -1854.5584
 96  8 31 21 11 30.0040000  0  8G28G 9G 3G17G 1G21G31G23
  11150050.556 5   8688344.552 6  23483502.371    23483500.004
     -3916.187       -3051.575
    202164.11045     76362.24144  24976902.5984   24976905.9964
      -493.4224       -384.4854
  -8833188.52047  -6778399.47346  22704543.2694   22704545.5904
     -1187.0004       -924.9354
  14457357.37646  11277575.30945  23449633.3014   23449637.2034
     -3314.4694      -2582.7034
 -11456594.10247  -8816730.43246  22479040.0984   22479042.9574
      1428.0004       1112.7274
  -9118458.11747  -6983695.01446  22055826.5274   22055828.4374
      -414.2814       -322.8174
  -1958574.29845  -2211126.37245  24269483.8244   24269485.8284
      1021.6094        796.0594
   9754434.48446   7635511.82846  22953863.1844   22953866.0194
     -2385.6094      -1858.9164
 96  8 31 21 12  0.0040000  0  8G28G 9G 3G17G 1G21G31G23
  11267697.673 5   8780017.566 6  23505890.109    23505887.293
     -3926.891       -3059.915
    217236.47145     88106.95844  24979770.7774   24979773.6374
      -511.3914       -398.4864
  -8797268.30347  -6750409.71246  22711378.2544   22711380.2234
     -1207.6414       -941.0194
  14556959.57346  11355187.36245  23468587.0124   23468590.0124
     -3325.7504      -2591.4944
 -11499203.59647  -8849932.60046  22470931.9344   22470934.7234
      1412.7344       1100.8324
  -9105904.38347  -6973912.88246  22058215.4264   22058217.5944
      -422.6414       -329.3304
  -1988964.78045  -2234807.26045  24263700.2384   24263702.5824
      1004.2814        782.5574
   9826087.25846   7691345.15246  22967498.2774   22967500.6914
     -2391.2034      -1863.2754
 96  8 31 21 12 30.0040000  0  8G28G 9G 3G17G 1G21G31G23
  11385663.651 5   8871939.039 5  23528337.875    23528335.902
     -3937.562       -3068.231
    232848.92245    100272.51544  24982741.5824   24982743.8444
      -529.6094       -412.6834
  -8760730.72947  -6721938.89246  22718331.4264   22718333.8284
     -1228.3124       -957.1274
  14656900.86346  11433063.65445  23487605.1444   23487608.0984
     -3337.1414      -2600.3694
 -11541358.28947  -8882780.38046  22462910.2624   22462912.8404
      1397.5944       1089.0344
  -9093097.06947  -6963933.15246  22060652.4654   22060654.7384
      -431.2814       -336.0634
  -2018834.04145  -2258081.96745  24258016.8094   24258019.1874
       986.9844        769.0794
   9897897.95146   7747301.52446  22981163.5274   22981166.2464
     -2396.0944      -1867.0864
 96  8 31 21 13  0.0040000  0  8G28G 9G 3G17G 1G21G31G23
  11503951.257 5   8964111.131 5  23550847.242    23550844.723
     -3948.125       -3076.461
    249017.08945    112871.11044  24985819.2934   24985823.3944
      -548.2344       -427.1964
  -8723566.92947  -6692980.10446  22725403.6374   22725406.1804
     -1248.9844       -973.2354
  14757187.83846  11511209.27645  23506689.4264   23506693.9264
     -3348.4064      -2609.1484
 -11583052.66246  -8915269.46846  22454975.7304   22454978.4264
      1382.1884       1077.0294
  -9080033.45547  -6953753.70946  22063138.4494   22063140.6994
      -439.2504       -342.2734
  -2048180.25745  -2280949.15945  24252432.2304   24252434.9844
       969.4384        755.4064
   9969852.11547   7803369.69046  22994856.5984   22994858.8124
     -2400.6724      -1870.6534
 96  8 31 21 13 30.0040000  0  8G28G 9G 3G17G 1G21G31G23
  11622550.142 5   9056525.790 5  23573416.301    23573413.637
     -3958.594       -3084.619
    265747.94945    125908.15843  24989002.3874   24989004.9774
      -567.3594       -442.0984
  -8685796.00747  -6663548.24046  22732591.3794   22732594.0514
     -1269.2034       -988.9894
  14857797.72646  11589606.55345  23525835.2624   23525838.5784
     -3359.0624      -2617.4514
 -11624289.17647  -8947401.78746  22447128.6764   22447131.3014
      1366.7974       1065.0374
  -9066748.06747  -6943401.45746  22065666.6214   22065669.0354
      -446.5474       -347.9594
  -2077002.67345  -2303408.14645  24246948.0664   24246950.3164
       952.0634        741.8674
  10041931.92446   7859535.76246  23008572.2854   23008574.5004
     -2404.8754      -1873.9294
 96  8 31 21 14  0.0040000  0  8G28G 9G 3G17G 1G21G31G23
  11741454.545 5   9149178.496 5  23596043.090    23596040.465
     -3968.453       -3092.301
    283034.16445    139377.94043  24992291.6764   24992296.1644
      -585.0624       -455.8934
  -8647424.18446  -6633648.13246  22739892.9574   22739895.3124
     -1289.0784      -1004.4764
  14958729.09746  11668254.33445  23545041.7384   23545044.5394
     -3369.9694      -2625.9504
 -11665071.40247  -8979180.11446  22439368.0044   22439370.7814
      1351.9384       1053.4584
  -9053247.70247  -6932881.68846  22068235.8794   22068238.5164
      -453.6094       -353.4624
  -2105312.54845  -2325467.78645  24241560.5664   24241562.5824
       935.2194        728.7424
  10114132.17846   7915795.68746  23022311.3404   23022313.9414
     -2408.5624      -1876.8024
 96  8 31 21 14 30.0040000  0  8G28G 9G 3G17G 1G21G31G23
  11860662.247 5   9242067.546 5  23618727.730    23618724.676
     -3978.562       -3100.179
    300864.91245    153272.05844  24995685.0194   24995687.3284
      -603.4374       -470.2114
  -8608439.29147  -6603270.32246  22747311.5124   22747313.6804
     -1309.6724      -1020.5244
  15059999.62146  11747166.35445  23564312.3944   23564316.5664
     -3381.1724      -2634.6794
 -11705396.70047  -9010602.39047  22431694.5124   22431697.1604
      1336.5944       1041.5024
  -9039527.31247  -6922190.47046  22070846.6214   22070849.0944
      -460.8914       -359.1364
  -2133113.90845  -2347131.17745  24236269.3014   24236272.0314
       918.4224        715.6534
  10186452.01146   7972148.79346  23036073.5274   23036076.3164
     -2412.6564      -1879.9924
 96  8 31 21 15  0.0040000  0  8G28G 9G 3G17G 1G21G31G23
  11980172.155 5   9335192.078 5  23641469.703    23641466.941
     -3988.719       -3108.093
    319245.05545    167594.24544  24999182.0824   24999184.8124
      -621.9224       -484.6144
  -8568838.13846  -6572412.30146  22754847.3164   22754849.7774
     -1330.3124      -1036.6074
  15161599.60746  11826335.15745  23583645.5984   23583650.2854
     -3392.1254      -2643.2144
 -11745258.21847  -9041663.27646  22424109.9104   22424112.6294
      1320.8754       1029.2534
  -9025595.96247  -6911334.86946  22073497.4574   22073499.8124
      -467.7974       -364.5174
  -2160409.38745  -2368400.37945  24231075.7074   24231079.0704
       901.1724        702.2124
  10258901.39946   8028602.86146  23049860.4494   23049862.3244
     -2417.2664      -1883.5844
 96  8 31 21 15 30.0040000  0  8G28G 9G 3G17G 1G21G31G23
  12099976.390 5   9428545.958 5  23664267.680    23664265.410
     -3998.172       -3115.459
    338168.43045    182339.76244  25002783.6994   25002787.0394
      -639.5314       -498.3364
  -8528630.58546  -6541081.75746  22762498.4804   22762501.3404
     -1350.3124      -1052.1924
  15263526.62746  11905758.75145  23603042.9654   23603046.5624
     -3403.0004      -2651.6884
 -11784660.12947  -9072366.03347  22416610.8634   22416613.6524
      1305.9384       1017.6144
  -9011461.09447  -6900320.68446  22076187.3484   22076189.6214
      -474.6094       -369.8254
  -2187193.16745  -2389270.85345  24225979.1844   24225980.9304
       884.4064        689.1484
  10331477.53346   8085155.66946  23063671.1054   23063673.9304
     -2421.2974      -1886.7254
 96  8 31 21 16  0.0040000  0  8G28G 9G 3G17G 1G21G31G23
  12220069.640 5   9522125.038 5  23687120.449    23687118.254
     -4008.312       -3123.360
    357618.10945    197495.34244  25006483.9964   25006488.8714
      -657.4694       -512.3134
  -8487805.37046  -6509269.92346  22770267.6444   22770270.0824
     -1371.5944      -1068.7744
  15365787.92546  11985442.81845  23622502.6294   23622506.1444
     -3414.5164      -2660.6624
 -11823607.36847  -9102714.50547  22409199.9264   22409202.5864
      1290.2664       1005.4024
  -8997105.01147  -6889134.12546  22078919.3094   22078921.5234
      -482.7194       -376.1444
  -2213458.68445  -2409737.47745  24220980.9884   24220983.4264
       866.2814        675.0244
  10404191.96746   8141816.25246  23077508.2854   23077510.4884
     -2426.5944      -1890.8524
 96  8 31 21 16 30.0040000  0  8G28G 9G 3G17G 1G21G31G23
  12340457.780 5   9615933.910 5  23710029.551    23710027.285
     -4017.859       -3130.800
    377610.34945    213073.73344  25010289.0194   25010292.3714
      -675.7034       -526.5224
  -8446351.87646  -6476968.52546  22778155.4184   22778157.9844
     -1392.1564      -1084.7974
  15468372.10246  12065378.48645  23642023.9654   23642026.8594
     -3424.6724      -2668.5754
 -11862091.02347  -9132701.74247  22401876.2854   22401879.1914
      1275.1094        993.5924
  -8982521.87847  -6877770.65246  22081694.0744   22081696.0784
      -489.8124       -381.6724
  -2239186.49945  -2429785.12345  24216084.9024   24216087.2114
       848.4844        661.1574
  10477058.63746   8198595.46946  23091374.3714   23091376.6564
     -2431.4694      -1894.6514
 96  8 31 21 17  0.0040000  0  8G28G 9G 3G17G 1G21G31G23
  12461136.159 5   9709968.938 5  23732993.934    23732991.848
     -4027.234       -3138.105
    398151.71045    229080.00243  25014198.2464   25014201.8554
      -693.5944       -540.4634
  -8404284.42946  -6444188.71846  22786161.0514   22786163.3484
     -1412.3444      -1100.5284
  15571268.02446  12145557.06945  23661604.9104   23661607.8874
     -3435.0784      -2676.6844
 -11900119.13847  -9162334.00847  22394639.8634   22394642.8524
      1260.1414        981.9284
  -8967719.53147  -6866236.34647  22084511.1914   22084513.3124
      -496.9374       -387.2244
  -2264368.64145  -2449407.56445  24211293.0744   24211296.1214
       830.3284        647.0094
  10550073.13346   8255489.88346  23105268.6764   23105270.8674
     -2435.9844      -1898.1704
 96  8 31 21 17 30.0040000  0  8G28G 9G 3G17G 1G21G31G23
  12582098.641 5   9804225.348 5  23756012.871    23756009.902
     -4036.797       -3145.556
    419230.16545    245504.73445  25018209.2384   25018213.0234
      -711.4374       -554.3674
  -8361599.22146  -6410927.54246  22794283.3244   22794285.7854
     -1433.2504      -1116.8184
  15674487.65546  12225987.91945  23681246.6374   23681249.6724
     -3445.9224      -2685.1344
 -11937686.72047  -9191607.41447  22387490.9574   22387493.9574
      1244.4534        969.7044
  -8952689.67147  -6854524.76546  22087371.4024   22087373.4064
      -505.1414       -393.6164
  -2288993.51045  -2468595.76445  24206607.5124   24206608.8244
       811.4844        632.3254
  10623230.87246   8312495.89946  23119189.6994   23119191.9024
     -2441.1564      -1902.2004
 96  8 31 21 18  0.0040000  0  8G28G 9G 3G17G 1G21G31G23
  12703335.149 5   9898695.277 5  23779083.832    23779080.441
     -4045.844       -3152.606
    440827.30245    262333.70845  25022318.8094   25022322.2194
      -728.6564       -567.7844
  -8318304.06646  -6377191.08246  22802522.6374   22802525.3674
     -1453.1254      -1132.3054
  15778006.52346  12306651.90545  23700944.9344   23700948.8944
     -3455.5474      -2692.6344
 -11974793.51747  -9220521.77147  22380429.9964   22380432.8324
      1229.0164        957.6754
  -8937422.07947  -6842627.93946  22090276.3094   22090278.6524
      -512.7974       -399.5824
  -2313070.24945  -2487356.85045  24202026.1684   24202028.5004
       793.4844        618.3004
  10696530.74646   8369612.66846  23133138.6374   23133141.3444
     -2445.5474      -1905.6214
 96  8 31 21 18 30.0040000  0  8G28G 9G 3G17G 1G21G31G23
  12824851.887 5   9993383.576 5  23802207.441    23802204.496
     -4055.109       -3159.825
    462951.75545    279573.56845  25026529.4804   25026533.1254
      -746.0314       -581.3234
  -8274412.16446  -6342989.62746  22810875.2074   22810877.9024
     -1472.8124      -1147.6464
  15881831.21946  12387554.22245  23720701.9734   23720706.6844
     -3465.9694      -2700.7554
 -12011416.78547  -9249059.35347  22373461.1214   22373463.6414
      1212.7664        945.0124
  -8921920.05147  -6830548.43847  22093226.8094   22093229.1294
      -520.5474       -405.6214
  -2336599.44045  -2505691.30245  24197547.6764   24197549.3404
       775.3134        604.1404
  10769963.16346   8426832.71646  23147112.4804   23147115.1174
     -2449.6564      -1908.8234
 96  8 31 21 19  0.0040000  0  8G28G 9G 3G17G 1G21G31G23
  12946640.960 5  10088284.071 5  23825382.578    23825380.269
     -4064.094       -3166.826
    485587.41945    297211.78945  25030836.8944   25030838.9344
      -763.0004       -594.5454
  -8229931.22846  -6308329.18746  22819339.1214   22819341.6054
     -1492.6874      -1163.1334
  15985966.62846  12468698.65145  23740519.1914   23740523.2694
     -3476.3444      -2708.8394
 -12047553.77447  -9277218.01547  22366584.1374   22366586.6094
      1196.1884        932.0944
  -8906180.67547  -6818283.98746  22096221.6444   22096223.6604
      -528.6414       -411.9284
  -2359588.66245  -2523604.93945  24193173.6444   24193175.8244
       757.3594        590.1504
  10843512.71746   8484144.04746  23161108.3714   23161111.1724
     -2453.5164      -1911.8304
 96  8 31 21 19 30.0040000  0  8G28G 9G 3G17G 1G21G31G23
  13068703.811 5  10183397.910 5  23848610.469    23848608.496
     -4073.344       -3174.034
    508739.71445    315252.58744  25035242.0044   25035245.1564
      -780.5004       -608.1824
  -8184843.42246  -6273195.85346  22827919.2934   22827921.4964
     -1512.9064      -1178.8884
  16090414.95746  12550086.90445  23760394.8324   23760397.5624
     -3486.6724      -2716.8874
 -12083180.03947  -9304978.71047  22359804.7234   22359807.3484
      1179.0634        918.7504
  -8890189.72347  -6805823.50146  22099264.5354   22099266.6684
      -537.4534       -418.7954
  -2382036.93945  -2541097.12145  24188900.8554   24188904.7464
       739.4534        576.1974
  10917181.65946   8541548.42546  23175126.2934   23175129.5624
     -2457.7034      -1915.0934
 96  8 31 21 20  0.0040000  0  8G28G 9G 3G17G 1G21G31G23
  13191039.617 5  10278724.436 5  23871890.840    23871887.527
     -4082.203       -3180.937
    532425.86245    333709.30744  25039748.8094   25039753.1564
      -798.4844       -622.1964
  -8139159.15446  -6237597.74046  22836612.6294   22836614.8324
     -1532.5164      -1194.1684
  16195172.89346  12631716.40945  23780330.5664   23780333.4024
     -3497.2034      -2725.0934
 -12118302.05247  -9332346.47847  22353121.4344   22353123.9774
      1162.5164        905.8564
  -8873940.22947  -6793161.55646  22102356.7234   22102358.9264
      -545.3914       -424.9804
  -2403955.06245  -2558176.18245  24184731.0194   24184732.5314
       721.8284        562.4634
  10990971.40646   8599046.90346  23189169.4184   23189171.8204
     -2461.4064      -1917.9794
 96  8 31 21 20 30.0040000  0  8G28G 9G 3G17G 1G21G31G23
  13313632.815 5  10374251.519 5  23895219.676    23895216.551
     -4090.578       -3187.463
    556650.76545    352585.87743  25044359.4184   25044362.2194
      -816.5164       -636.2464
  -8092888.99446  -6201543.10046  22845417.7934   22845419.9494
     -1552.1414      -1209.4604
  16300248.30146  12713593.28845  23800324.5124   23800329.2114
     -3507.7034      -2733.2754
 -12152934.16447  -9359332.50947  22346530.7774   22346533.4734
      1146.4694        893.3524
  -8857466.98247  -6780325.26046  22105491.5124   22105493.7974
      -552.8124       -430.7634
  -2425342.28945  -2574841.53445  24180661.3874   24180663.9534
       703.9694        548.5474
  11064864.57146   8656625.97746  23203230.1684   23203232.1724
     -2464.8284      -1920.6454
 96  8 31 21 21  0.0040000  0  8G28G 9G 3G17G 1G21G31G23
  13436485.961 5  10469981.169 5  23918597.953    23918595.184
     -4099.719       -3194.586
    581433.89345    371897.43743  25049074.2694   25049077.6564
      -835.8124       -651.2824
  -8046016.42946  -6165019.04746  22854337.2384   22854339.5474
     -1572.7814      -1225.5444
  16405647.29446  12795722.32845  23820381.1444   23820385.0594
     -3519.0624      -2742.1274
 -12187079.86547  -9385939.52347  22340032.9654   22340035.7194
      1129.6724        880.2644
  -8840758.63547  -6767305.76246  22108670.5984   22108672.9534
      -561.2504       -437.3384
  -2446182.89845  -2591080.96445  24176694.5434   24176696.4884
       685.2664        533.9734
  11138877.99646   8714298.76146  23217313.8244   23217316.8244
     -2469.6254      -1924.3834
 96  8 31 21 21 30.0040000  0  8G28G 9G 3G17G 1G21G31G23
  13559603.104 5  10565916.524 5  23942026.754    23942022.832
     -4107.781       -3200.869
    606780.36445    391647.93843  25053898.1764   25053901.9494
      -853.7194       -665.2354
  -7998535.46846  -6128020.92646  22863372.6524   22863374.8914
     -1592.1414      -1240.6294
  16511373.56746  12878106.36745  23840500.9494   23840503.8444
     -3529.1254      -2749.9684
 -12220733.66847  -9412163.23247  22333629.2304   22333631.9964
      1114.4384        868.3934
  -8823803.32047  -6754093.82346  22111897.3404   22111899.7304
      -568.8914       -443.2914
  -2466468.65245  -2606888.03245  24172834.5664   24172836.3714
       667.4064        520.0574
  11213030.66246   8772080.04846  23231425.6684   23231428.4924
     -2473.7504      -1927.5974
 96  8 31 21 22  0.0040000  0  8G28G 9G 3G17G 1G21G31G23
  13682966.885 5  10662044.067 5  23965502.422    23965498.449
     -4116.328       -3207.528
    632667.73245    411819.94644  25058824.1844   25058827.2544
      -871.9844       -679.4684
  -7950477.48247  -6090573.16746  22872518.1844   22872520.5274
     -1611.6724      -1255.8484
  16617405.15246  12960728.34945  23860678.1524   23860680.7664
     -3539.5314      -2758.0764
 -12253933.02047  -9438032.82747  22327310.9104   22327313.6174
      1098.8444        856.2424
  -8806622.54247  -6740706.20246  22115166.7774   22115169.3444
      -576.1874       -448.9774
  -2486215.37445  -2622275.10745  24169076.5594   24169079.2664
       649.0474        505.7514
  11287315.78446   8829964.55146  23245561.1524   23245564.1414
     -2478.4534      -1931.2624
 96  8 31 21 22 30.0040000  0  8G28G 9G 3G17G 1G21G31G23
  13806586.332 5  10758370.818 5  23989026.273    23989022.676
     -4124.750       -3214.091
    659097.20945    432414.34143  25063854.1844   25063858.1334
      -889.7504       -693.3124
  -7901828.65846  -6052665.02146  22881775.3014   22881777.6214
     -1631.3594      -1271.1894
  16723740.62546  13043587.08445  23880912.9184   23880916.6564
     -3549.2344      -2765.6374
 -12286660.93747  -9463535.06947  22321083.5274   22321086.1764
      1083.3444        844.1644
  -8789222.71247  -6727147.88947  22118478.0744   22118480.3714
      -583.7194       -454.8464
  -2505414.47945  -2637235.43245  24165423.5664   24165425.7464
       631.3444        491.9564
  11361743.22746   8887959.95246  23259723.6764   23259726.1374
     -2483.2194      -1934.9764
 96  8 31 21 23  0.0040000  0  8G28G 9G 3G17G 1G21G31G23
  13930451.810 5  10854889.300 5  24012597.098    24012593.793
     -4133.047       -3220.556
    686049.53245    453416.18044  25068982.5434   25068984.8634
      -907.1094       -706.8384
  -7852591.43646  -6014298.37746  22891144.9884   22891147.7074
     -1651.2664      -1286.7004
  16830361.01446  13126667.85645  23901202.4574   23901206.3594
     -3558.9374      -2773.1984
 -12318930.42747  -9488680.09147  22314942.9344   22314945.3834
      1067.7664        832.0254
  -8771596.43347  -6713413.12447  22121831.9574   22121834.1724
      -591.4534       -460.8734
  -2524096.81945  -2651793.08945  24161868.4964   24161870.8054
       614.0634        478.4904
  11436312.70146   8946066.01646  23273914.4964   23273916.8634
     -2488.1724      -1938.8354
 96  8 31 21 23 30.0040000  0  8G28G 9G 3G17G 1G21G31G23
  14054566.113 5  10951601.659 5  24036215.277    24036211.855
     -4141.297       -3226.985
    713523.60245    474824.59045  25074211.1134   25074213.1294
      -924.8754       -720.6824
  -7802756.92746  -5975466.31546  22900628.1684   22900630.8164
     -1671.0314      -1302.1024
  16937276.61645  13209978.64045  23921546.6214   23921551.2974
     -3568.8444      -2780.9174
 -12350731.15647  -9513459.85547  22308891.1914   22308893.5234
      1052.2664        819.9474
  -8753740.52947  -6699499.43046  22125230.4884   22125232.5164
      -598.8594       -466.6444
  -2542258.93745  -2665945.38945  24158411.5434   24158413.6994
       596.6564        464.9274
  11511029.65146   9004286.99546  23288132.8634   23288135.6414
     -2492.9844      -1942.5854
 96  8 31 21 24  0.0040000  0  8G28G 9G 3G17G 1G21G31G23
  14178928.274 5  11048507.160 5  24059880.828    24059877.457
     -4149.203       -3233.145
    741548.30145    496662.05245  25079544.0194   25079546.0824
      -943.3284       -735.0614
  -7752329.26846  -5936172.05746  22910224.0434   22910226.5744
     -1690.7034      -1317.4314
  17044494.52546  13293525.02845  23941950.4804   23941954.2544
     -3578.7814      -2788.6614
 -12382065.97147  -9537876.56047  22302928.3944   22302930.7974
      1036.7814        807.8814
  -8735675.05147  -6685422.43246  22128668.1134   22128670.5044
      -605.2814       -471.6484
  -2559894.03745  -2679687.01045  24155057.2304   24155059.1874
       579.1254        451.2664
  11585887.13646   9062617.48746  23302377.3324   23302379.7344
     -2497.2194      -1945.8854
 96  8 31 21 24 30.0040000  0  8G28G 9G 3G17G 1G21G31G23
  14303538.183 5  11145605.707 5  24083593.391    24083589.832
     -4157.687       -3239.756
    770141.55045    518942.50443  25084985.1294   25084987.4964
      -962.5784       -750.0614
  -7701296.63446  -5896406.39146  22919934.9734   22919937.3754
     -1711.1094      -1333.3324
  17152031.27645  13377319.82445  23962413.7464   23962417.3444
     -3590.0004      -2797.4034
 -12412921.02047  -9561919.42847  22297056.0824   22297058.6134
      1020.6564        795.3174
  -8717396.48647  -6671179.39046  22132146.1914   22132148.3714
      -612.9064       -477.5894
  -2576985.80045  -2693005.26445  24151803.7074   24151806.7194
       560.6724        436.8874
  11660879.66746   9121053.21946  23316647.4024   23316650.2154
     -2501.8914      -1949.5254
 96  8 31 21 25  0.0040000  0  8G28G 9G 3G17G 1G21G31G23
  14428385.899 5  11242889.555 5  24107350.965    24107347.426
     -4165.562       -3245.893
    799302.95745    541665.68545  25090534.1684   25090536.6174
      -981.5784       -764.8664
  -7649666.28946  -5856174.97146  22929760.4024   22929762.7934
     -1730.9694      -1348.8074
  17259896.68645  13461370.75445  23982939.2384   23982942.9304
     -3601.0164      -2805.9864
 -12443300.03347  -9585591.35747  22291276.0824   22291278.5554
      1004.4534        782.6914
  -8698905.14347  -6656770.55046  22135664.6054   22135666.8204
      -619.8284       -482.9834
  -2593522.47445  -2705891.00745  24148657.1444   24148658.6684
       541.6564        422.0704
  11735999.92346   9179588.45346  23330943.1844   23330946.1844
     -2506.1254      -1952.8254
 96  8 31 21 25 30.0040000  0  8G28G 9G 3G17G 1G21G31G23
  14553470.515 5  11340358.001 5  24131154.117    24131150.269
     -4173.422       -3252.017
    829042.03845    564838.99145  25096193.8164   25096196.5124
     -1001.1094       -780.0854
  -7597448.28546  -5815485.64846  22939697.0124   22939699.1804
     -1750.2664      -1363.8434
  17368089.85846  13545677.05945  24003529.1054   24003532.6214
     -3611.7034      -2814.3144
 -12473190.73147  -9608882.77347  22285588.1214   22285590.6054
       988.2974        770.1014
  -8680205.69947  -6642199.55346  22139223.0904   22139225.2934
      -626.8444       -488.4504
  -2609484.08945  -2718328.60645  24145619.9884   24145622.0744
       522.3444        407.0214
  11811243.00446   9238219.40546  23345261.8944   23345264.0164
     -2510.1094      -1955.9294
 96  8 31 21 26  0.0040000  0  8G28G 9G 3G17G 1G21G31G23
  14678785.480 5  11438005.948 5  24155000.152    24154997.613
     -4180.781       -3257.752
    859350.38645    588455.91545  25101960.6844   25101963.6604
     -1019.1564       -794.1484
  -7544650.76846  -5774344.74946  22949744.1684   22949746.3014
     -1769.5474      -1378.8684
  17476597.91145  13630228.73645  24024176.9414   24024181.0314
     -3621.9844      -2822.3254
 -12502600.95047  -9631799.80547  22279991.0984   22279993.3714
       972.3594        757.6834
  -8661292.64747  -6627462.11246  22142822.4104   22142824.7664
      -634.0784       -494.0874
  -2624867.49145  -2730315.68545  24142691.9024   24142693.6954
       503.4534        392.3014
  11886601.37246   9296940.21046  23359601.5124   23359603.6214
     -2513.7034      -1958.7304
 96  8 31 21 26 30.0040000  0  8G28G 9G 3G17G 1G21G31G23
  14804326.155 5  11535829.763 5  24178889.508    24178886.918
     -4188.312       -3263.620
    890196.28345    612491.67945  25107830.6054   25107834.7074
     -1036.8444       -807.9304
  -7491271.08246  -5732750.20646  22959902.2304   22959904.7854
     -1788.7974      -1393.8684
  17585418.44646  13715023.88545  24044885.8554   24044889.8874
     -3632.2664      -2830.3374
 -12531517.34147  -9654332.02847  22274488.6684   22274491.0004
       955.6724        744.6794
  -8642147.22447  -6612543.59946  22146465.2934   22146467.6134
      -641.9534       -500.2234
  -2639689.16445  -2741865.02145  24139871.4414   24139873.7274
       485.0944        377.9954
  11962075.08046   9355750.87546  23373962.9264   23373965.5274
     -2517.6564      -1961.8104
 96  8 31 21 27  0.0040000  0  8G28G 9G 3G17G 1G21G31G23
  14930085.686 5  11633824.119 5  24202821.144    24202818.379
     -4195.859       -3269.501
    921563.77845    636933.88444  25113798.8164   25113802.6484
     -1054.4844       -821.6764
  -7437316.70046  -5690707.85246  22970169.0744   22970171.5594
     -1808.3284      -1409.0874
  17694531.87946  13800047.27245  24065648.8634   24065652.0984
     -3642.0314      -2837.9464
 -12559935.33547  -9676475.88847  22269080.8484   22269083.3324
       938.7814        731.5184
  -8622771.23147  -6597445.41546  22150152.8244   22150154.9574
      -650.0624       -506.5424
  -2653965.34345  -2752989.31245  24137155.3484   24137157.5864
       466.5314        363.5314
  12037668.17446   9414654.57046  23388348.4804   23388351.3404
     -2522.1564      -1965.3174
 96  8 31 21 27 30.0040000  0  8G28G 9G 3G17G 1G21G31G23
  15056064.071 5  11731989.005 5  24226793.625    24226791.746
     -4202.578       -3274.736
    953456.62945    661785.44343  25119868.2384   25119871.6484
     -1071.6254       -835.0324
  -7382784.10946  -5648214.94046  22980546.7154   22980549.3754
     -1827.1414      -1423.7464
  17803929.31045  13885291.96545  24086466.0124   24086470.9574
     -3651.0624      -2844.9844
 -12587858.62247  -9698234.27147  22263767.2154   22263769.5824
       922.9384        719.1724
  -8603152.23347  -6582157.88846  22153885.6914   22153887.8834
      -657.7504       -512.5324
  -2667696.30145  -2763688.75045  24134542.9734   24134545.0594
       448.8134        349.7244
  12113393.25246   9473661.08946  23402758.7304   23402762.1294
     -2526.1414      -1968.4214
 96  8 31 21 28  0.0040000  0  8G28G 9G 3G17G 1G21G31G23
  15182250.864 5  11830316.289 5  24250806.168    24250804.176
     -4209.703       -3280.288
    985876.29845    687047.56743  25126037.6684   25126040.4454
     -1089.4694       -848.9374
  -7327673.80646  -5605271.86646  22991033.6684   22991036.2584
     -1846.7194      -1439.0024
  17913609.12545  13970756.69745  24107337.9964   24107341.3484
     -3660.7504      -2852.5324
 -12615294.86747  -9719613.13347  22258546.2074   22258548.7504
       906.2504        706.1694
  -8583298.62747  -6566687.54946  22157663.8944   22157666.1914
      -665.6724       -518.7054
  -2680886.12045  -2773966.52245  24132031.5594   24132034.6644
       430.7344        335.6374
  12189247.13646   9532767.99846  23417193.4104   23417195.8714
     -2530.6414      -1971.9284
 96  8 31 21 28 30.0040000  0  8G28G 9G 3G17G 1G21G31G23
  15308649.860 5  11928808.921 5  24274859.426    24274856.762
     -4216.844       -3285.852
   1018842.14545    712735.22944  25132311.6214   25132314.6564
     -1108.2344       -863.5594
  -7271977.73946  -5561872.35746  23001632.4024   23001635.0624
     -1866.3284      -1454.2824
  18023576.38145  14056445.42245  24128263.7854   24128268.0164
     -3670.3124      -2859.9844
 -12642227.44147  -9740599.52247  22253420.7304   22253423.4374
       889.3594        693.0074
  -8563206.40547  -6551031.26746  22161487.4964   22161489.7584
      -673.6564       -524.9274
  -2693531.28045  -2783819.89945  24129626.3164   24129628.5194
       412.0784        321.1004
  12265240.38446   9591983.51646  23431654.1764   23431656.1684
     -2535.4374      -1975.6664
 96  8 31 21 29  0.0040000  0  8G28G 9G 3G17G 1G21G31G23
  15435262.117 5  12027467.729 5  24298953.035    24298949.840
     -4224.016       -3291.441
   1052374.16745    738864.07843  25138692.0824   25138695.2814
     -1127.4844       -878.5594
  -7215684.66146  -5518007.63746  23012344.5044   23012347.0354
     -1886.5944      -1470.0734
  18133826.79546  14142354.75445  24149244.3634   24149248.4414
     -3679.8754      -2867.4354
 -12668662.36947  -9761198.13647  22248390.5434   22248393.1564
       872.9384        680.2114
  -8542878.44647  -6535191.29646  22165355.1994   22165357.3674
      -681.6564       -531.1614
  -2705603.08545  -2793226.49045  24127329.1134   24127331.1414
       392.5314        305.8694
  12341373.52246   9651308.01346  23446141.5664   23446145.1054
     -2540.1564      -1979.3434
 96  8 31 21 29 30.0040000  0  8G28G 9G 3G17G 1G21G31G23
  15562082.946 5  12126289.057 5  24323086.363    24323083.387
     -4230.828       -3296.749
   1086483.87345    765443.07744  25145182.0594   25145185.2114
     -1146.6874       -893.5234
  -7158793.06146  -5473676.54446  23023170.6054   23023173.2424
     -1906.2814      -1485.4144
  18244367.14945  14228490.04145  24170278.8944   24170283.0784
     -3689.7034      -2875.0934
 -12694607.97447  -9781415.46547  22243453.1524   22243455.6724
       856.4384        667.3544
  -8522314.88147  -6519167.74647  22169268.8484   22169271.1334
      -689.2344       -537.0664
  -2717098.71245  -2802184.12845  24125140.8094   24125143.2584
       373.5314        291.0634
  12417633.18846   9710731.11046  23460653.8634   23460657.5664
     -2543.9224      -1982.2774
 96  8 31 21 30  0.0050000  0  8G28G 9G 3G17G 1G21G31G23
  15689112.390 5  12225272.947 5  24347259.606    24347256.571
     -4237.578       -3302.009
   1121166.13345    792468.22644  25151783.1884   25151786.4934
     -1165.3444       -908.0604
  -7101310.62546  -5428885.05446  23034109.5014   23034112.2314
     -1925.8444      -1500.6574
  18355209.54145  14314860.66645  24191371.9854   24191375.8414
     -3699.5314      -2882.7524
 -12720051.97547  -9801241.92647  22238611.4464   22238614.0834
       839.6564        654.2784
  -8501530.15047  -6502971.84946  22173223.8294   22173226.0674
      -696.4844       -542.7154
  -2728021.61746  -2810695.48245  24123063.3064   24123065.8254
       354.6094        276.3194
  12494003.99846   9770240.82446  23475186.6034   23475188.5014
     -2547.3444      -1984.9434
 96  8 31 21 30 30.0050000  0  8G28G 9G 3G17G 1G21G31G23
  15816339.711 5  12324411.015 5  24371470.130    24371467.704
     -4244.219       -3307.183
   1156399.95245    819923.14744  25158487.5794   25158488.5284
     -1183.5474       -922.2444
  -7043249.02646  -5383642.27446  23045158.2044   23045160.4544
     -1944.8594      -1515.4754
  18466339.53146  14401455.40645  24212518.8994   24212522.1924
     -3709.1564      -2890.2524
 -12744994.94347  -9820677.98247  22233865.1494   22233867.8454
       823.1724        641.4334
  -8480527.52247  -6486606.16446  22177220.7674   22177223.1344
      -703.6254       -548.2794
  -2738373.65346  -2818762.00345  24121093.1654   24121094.8764
       335.4534        261.3924
  12570478.97146   9829831.68246  23489739.3604   23489741.6694
     -2550.8914      -1987.7074
 96  8 31 21 31  0.0050000  0  8G28G 9G 3G17G 1G21G31G23
  15943761.533 5  12423700.661 5  24395718.395    24395715.212
     -4250.578       -3312.139
   1192173.67745    847798.73844  25165294.1494   25165297.5484
     -1201.3914       -936.1494
  -6984620.37346  -5337957.62946  23056314.8064   23056317.2674
     -1963.5314      -1530.0244
  18577763.20545  14488278.99245  24233722.8534   24233725.8174
     -3719.1254      -2898.0194
 -12769447.21947  -9839731.67447  22229211.8064   22229214.2434
       806.9224        628.7704
  -8459316.95547  -6470078.45146  22181257.0794   22181259.4464
      -710.4224       -553.5754
  -2748155.37745  -2826384.13145  24119230.8134   24119233.7434
       316.7344        246.8064
  12647052.22246   9889499.15046  23504310.0484   23504312.4974
     -2554.0164      -1990.1424
 96  8 31 21 31 30.0050000  0  8G28G 9G 3G17G 1G21G31G23
  16071378.719 5  12523142.527 5  24420003.188    24419999.595
     -4257.109       -3317.228
   1228486.01145    876094.09344  25172205.3604   25172209.1224
     -1219.2034       -950.0284
  -6925438.37946  -5291841.81046  23067576.7514   23067579.2004
     -1981.7974      -1544.2574
  18689497.26545  14575344.41545  24254984.9624   24254988.5714
     -3729.6874      -2906.2504
 -12793396.64547  -9858393.53747  22224654.3924   22224656.8294
       789.8444        615.4634
  -8437896.43547  -6453387.13847  22185333.2044   22185335.5364
      -717.4534       -559.0544
  -2757367.19246  -2833562.17245  24117479.4464   24117481.5094
       297.3754        231.7214
  12723727.03546   9949245.72346  23518901.2824   23518903.5674
     -2557.5164      -1992.8694
 96  8 31 21 32  0.0050000  0  8G28G 9G 3G17G 1G21G31G23
  16199187.481 5  12622733.669 5  24444324.450    24444320.696
     -4263.687       -3322.354
   1265326.62745    904801.03143  25179215.2824   25179217.6034
     -1237.1094       -963.9814
  -6865709.29346  -5245299.68346  23078942.8064   23078945.4314
     -2000.3284      -1558.6974
  18801538.63045  14662649.32045  24276305.4624   24276309.1534
     -3739.9064      -2914.2134
 -12816839.35747  -9876660.55847  22220193.2984   22220195.7474
       772.9224        602.2774
  -8416263.68447  -6436530.44146  22189449.3294   22189451.4974
      -725.0944       -565.0084
  -2765999.80646  -2840288.87045  24115836.2204   24115837.8604
       278.0634        216.6724
  12800510.07446  10009076.65146  23533512.7354   23533515.8174
     -2561.4534      -1995.9374
 96  8 31 21 32 30.0050000  0  8G28G 9G 3G17G 1G21G31G23
  16327183.422 5  12722470.662 5  24468681.489    24468677.782
     -4269.609       -3326.968
   1302705.22545    933927.19545  25186329.0404   25186330.4584
     -1255.2664       -978.1294
  -6805433.52146  -5198331.57446  23090412.6424   23090415.1854
     -2018.2344      -1572.6504
  18913880.62445  14750188.45445  24297684.2204   24297687.7124
     -3749.8284      -2921.9444
 -12839786.15447  -9894541.15247  22215826.7204   22215829.1924
       756.6414        589.5904
  -8394401.56647  -6419495.02246  22193609.6574   22193611.9424
      -732.6724       -570.9134
  -2774061.08645  -2846570.39045  24114301.3924   24114303.6884
       259.1254        201.9164
  12877403.23146  10068993.39646  23548143.4934   23548145.8954
     -2564.8914      -1998.6164
 96  8 31 21 33  0.0050000  0  8G28G 9G 3G17G 1G21G31G23
  16455366.909 5  12822353.800 5  24493073.872    24493070.704
     -4275.906       -3331.875
   1340652.13345    963496.27344  25193549.5794   25193551.8644
     -1274.5624       -993.1664
  -6744602.86146  -5150931.08046  23101988.9384   23101991.5174
     -2037.1564      -1587.3944
  19026531.70145  14837968.44645  24319120.4784   24319123.9814
     -3760.1254      -2929.9684
 -12862230.81547  -9912030.47047  22211555.4314   22211558.1264
       739.6094        576.3194
  -8372302.66247  -6402275.09546  22197815.2984   22197817.6654
      -740.6094       -577.0984
  -2781544.39145  -2852401.52745  24112877.3454   24112879.3024
       239.6724        186.7574
  12954401.62646  10128992.10546  23562798.0094   23562800.2944
     -2568.5474      -2001.4654
 96  8 31 21 33 30.0050000  0  8G28G 9G 3G17G 1G21G31G23
  16583738.635 5  12922383.613 5  24517501.845    24517499.345
     -4282.234       -3336.806
   1379177.11745    993515.72644  25200880.1344   25200882.4314
     -1293.8754      -1008.2144
  -6683207.31346  -5103090.41146  23113671.5094   23113674.0404
     -2056.0624      -1602.1274
  19139480.98645  14925980.80945  24340614.0874   24340618.7864
     -3769.8594      -2937.5534
 -12884166.81047  -9929123.42447  22207381.2514   22207383.8174
       722.7814        563.2064
  -8349961.35147  -6384866.27246  22202066.7514   22202068.9424
      -748.8754       -583.5394
  -2788438.59445  -2857773.62845  24111565.4464   24111568.1184
       220.0004        171.4294
  13031525.21146  10189088.39146  23577474.3374   23577476.8334
     -2573.1094      -2005.0204
 96  8 31 21 34  0.0050000  0  8G28G 9G 3G17G 1G21G31G23
  16712290.430 5  13022553.741 5  24541965.220    24541962.118
     -4288.234       -3341.481
   1418276.17845   1023982.52843  25208320.6264   25208323.5204
     -1313.0944      -1023.1904
  -6621250.00546  -5054812.01146  23125461.5954   23125464.4544
     -2074.6874      -1616.6404
  19252707.39245  15014209.11245  24362159.8684   24362164.2164
     -3778.9374      -2944.6274
 -12905611.80947  -9945833.78447  22203300.0484   22203302.4974
       706.4694        550.4954
  -8327382.29447  -6367272.20747  22206363.4074   22206365.5994
      -756.6254       -589.5784
  -2794763.45845  -2862702.08545  24110362.2514   24110364.2674
       201.3444        156.8914
  13108778.17646  10249285.49446  23592173.8294   23592177.2744
     -2577.4534      -2008.4054
 96  8 31 21 34 30.0050000  0  8G28G 9G 3G17G 1G21G31G23
  16841026.337 4  13122867.329 5  24566463.001    24566459.813
     -4294.187       -3346.120
   1457951.73345   1054898.53845  25215870.6654   25215874.5094
     -1331.9064      -1037.8494
  -6558731.64646  -5006096.43646  23137358.6884   23137361.6884
     -2093.2664      -1631.1164
  19366210.69945  15102653.18945  24383759.1884   24383763.5134
     -3787.9224      -2951.6274
 -12926560.66747  -9962157.54047  22199314.0634   22199316.5604
       690.0784        537.7234
  -8304576.03247  -6349501.08347  22210703.3534   22210705.6384
      -763.7034       -595.0934
  -2800513.80045  -2867182.88045  24109267.6344   24109269.0634
       181.8754        141.7214
  13186171.38946  10309591.87646  23606901.5244   23606904.2204
     -2582.1874      -2012.0944
 96  8 31 21 35  0.0050000  0  8G28G 9G 3G17G 1G21G31G23
  16969941.506 4  13223320.596 5  24590995.001    24590991.103
     -4300.062       -3350.698
   1498179.59845   1086244.94443  25223526.2434   25223529.7004
     -1349.6724      -1051.6924
  -6495644.68546  -4956937.78346  23149363.7354   23149366.7004
     -2112.3594      -1645.9944
  19479982.48645  15191306.42545  24405408.8604   24405414.4034
     -3796.7974      -2958.5434
 -12947013.83947  -9978095.04647  22195421.9624   22195424.4354
       673.5634        524.8544
  -8281561.31347  -6331567.53746  22215082.8924   22215085.0834
      -770.4534       -600.3534
  -2805674.32845  -2871204.07845  24108285.8214   24108287.9424
       162.2664        126.4414
  13263718.33146  10370018.05646  23621658.3534   23621660.1814
     -2587.6564      -2016.3564
 96  8 31 21 35 30.0050000  0  8G28G 9G 3G17G 1G21G31G23
  17099029.622 4  13323908.638 5  24615559.622    24615556.282
     -4305.750       -3355.130
   1538923.19945   1117993.17445  25231279.7744   25231282.1304
     -1366.6564      -1064.9274
  -6431995.13946  -4907340.76146  23161475.9234   23161478.1734
     -2130.8444      -1660.3984
  19594025.38045  15280170.99645  24427110.4464   24427115.1694
     -3806.1724      -2965.8484
 -12966971.75547  -9993646.64547  22191623.6424   22191626.1034
       656.9844        511.9364
  -8258345.05847  -6313476.94347  22219500.5634   22219502.6964
      -777.1724       -605.5884
  -2810250.48345  -2874769.92245  24107414.6184   24107417.1034
       143.0164        111.4414
  13341429.19346  10430571.95246  23636447.3294   23636449.8494
     -2592.7664      -2020.3374
 96  8 31 21 36  0.0050000  0  8G28G 9G 3G17G 1G21G31G23
  17228283.981 4  13424626.213 5  24640156.216    24640152.767
     -4311.437       -3359.562
   1580176.91545   1150138.95044  25239128.9234   25239132.6034
     -1383.9224      -1078.3814
  -6367797.46146  -4857316.61246  23173691.8374   23173694.7084
     -2149.2664      -1674.7524
  19708349.18145  15369254.38345  24448866.3844   24448871.8804
     -3815.7814      -2973.3364
 -12986429.96847 -10008808.86847  22187921.1734   22187923.7744
       639.8754        498.6044
  -8234940.32147  -6295239.48446  22223954.5014   22223956.7164
      -783.4844       -610.5074
  -2814258.95745  -2877893.41145  24106652.2984   24106654.3954
       123.7194         96.4044
  13419266.67146  10491224.50346  23651258.3684   23651261.4274
     -2596.6254      -2023.3444
 96  8 31 21 36 30.0050000  0  8G28G 9G 3G17G 1G21G31G23
  17357710.236 4  13525477.741 5  24664784.481    24664781.626
     -4316.859       -3363.787
   1621960.55845   1182697.61145  25247081.3604   25247084.2554
     -1401.6414      -1092.1874
  -6303035.40946  -4806852.69646  23186016.3994   23186019.2124
     -2168.1874      -1689.4974
  19822973.25845  15458571.77045  24470678.8844   24470683.8174
     -3825.7344      -2981.0924
 -13005370.41747 -10023567.63347  22184316.9854   22184319.5404
       622.9384        485.4064
  -8211332.39347  -6276843.70046  22228446.5874   22228448.7674
      -790.3754       -615.8774
  -2817676.46145  -2880556.39645  24106001.8994   24106004.0794
       104.2664         81.2464
  13497218.86246  10551966.47846  23666091.5564   23666094.8494
     -2599.9374      -2025.9254
 96  8 31 21 37  0.0050000  0  8G28G 9G 3G17G 1G21G31G23
  17487295.577 4  13626453.215 5  24689443.950    24689440.853
     -4322.234       -3367.975
   1664281.48945   1215674.96244  25255134.8214   25255138.8414
     -1419.9844      -1106.4814
  -6237707.81146  -4755948.09946  23198447.6184   23198450.2434
     -2186.8914      -1704.0714
  19937900.71545  15548125.57345  24492548.1734   24492553.3884
     -3836.2194      -2989.2614
 -13023801.54947 -10037929.53147  22180809.4934   22180812.0604
       605.5784        471.8794
  -8187510.47047  -6258281.16446  22232979.9234   22232982.3844
      -797.8444       -621.6964
  -2820524.01645  -2882775.26245  24105459.9704   24105462.3254
        85.5944         66.6964
  13575257.26046  10612775.59846  23680942.5714   23680944.9154
     -2602.6724      -2028.0564
 96  8 31 21 37 30.0050000  0  8G28G 9G 3G17G 1G21G31G23
  17617044.116 4  13727555.874 5  24714134.911    24714130.931
     -4327.531       -3372.102
   1707177.10245   1249100.14644  25263297.3454   25263299.7354
     -1439.7344      -1121.8714
  -6171830.83946  -4704615.42646  23210983.5794   23210986.5324
     -2204.7664      -1717.9994
  20053140.08745  15637922.41345  24514478.2124   24514482.9464
     -3846.2814      -2997.1024
 -13041699.67247 -10051876.09047  22177403.6034   22177405.9814
       587.9224        458.1214
  -8163457.48547  -6239538.57146  22237557.1264   22237559.4354
      -805.5784       -627.7234
  -2822811.43345  -2884557.67145  24105024.7124   24105027.1854
        67.0314         52.2324
  13653371.19146  10673643.56746  23695807.2904   23695809.8104
     -2604.6254      -2029.5784
 96  8 31 21 38  0.0050000  0  8G28G 9G 3G17G 1G21G31G23
  17746952.977 4  13828783.453 5  24738855.450    24738851.563
     -4332.797       -3376.205
   1750679.87445   1282998.39442  25271575.2984   25271577.4424
     -1460.1414      -1137.7724
  -6105414.96246  -4652862.82946  23223622.0324   23223624.6344
     -2222.7344      -1732.0014
  20168677.89845  15727951.80245  24536464.1734   24536467.7474
     -3856.0004      -3004.6754
 -13059077.52347 -10065417.24947  22174096.6264   22174099.1344
       570.8444        444.8134
  -8139163.41147  -6220608.12546  22242179.9854   22242182.2824
      -813.9224       -634.2254
  -2824536.90245  -2885902.18845  24104696.4934   24104699.3764
        48.1564         37.5244
  13731550.49546  10734562.50146  23710683.4854   23710685.9464
     -2607.3124      -2031.6724
 96  8 31 21 38 30.0050000  0  8G28G 9G 3G17G 1G21G31G23
  17877017.260 4  13930132.143 5  24763605.935    24763602.103
     -4337.891       -3380.175
   1794783.03545   1317364.47143  25279967.6574   25279972.3564
     -1479.7194      -1153.0284
  -6038458.64946  -4600689.10446  23236363.8684   23236366.2704
     -2240.7034      -1746.0024
  20284507.48445  15818208.55245  24558506.4784   24558510.9194
     -3865.5784      -3012.1394
 -13075949.41247 -10078564.14647  22170886.0244   22170888.5324
       554.1564        431.8104
  -8114611.98147  -6201477.14146  22246851.6964   22246854.0634
      -822.5164       -640.9214
  -2825694.85145  -2886804.49345  24104475.6034   24104478.6494
        29.3284         22.8534
  13809832.20846  10795561.22446  23725580.3994   23725582.8024
     -2611.2814      -2034.7654
 96  8 31 21 39  0.0050000  0  8G28G 9G 3G17G 1G21G31G23
  18007227.045 4  14031594.204 5  24788383.927    24788380.103
     -4342.875       -3384.058
   1839458.57945   1352176.60343  25288469.1884   25288471.1454
     -1498.7034      -1167.8214
  -5970977.46946  -4548106.38646  23249204.2044   23249206.6534
     -2258.0314      -1759.5054
  20400609.34245  15908677.46145  24580599.7674   24580603.7864
     -3874.4534      -3019.0544
 -13092320.38647 -10091320.72947  22167771.0714   22167773.5674
       537.1094        418.5274
  -8089816.65147  -6182156.10746  22251570.5714   22251572.8924
      -830.5474       -647.1794
  -2826291.72246  -2887269.58145  24104363.1104   24104365.7944
        10.3594          8.0724
  13888239.22346  10856657.56146  23740501.6654   23740503.9274
     -2616.0944      -2038.5154
 96  8 31 21 39 30.0050000  0  8G28G 9G 3G17G 1G21G31G23
  18137581.946 4  14133169.344 5  24813190.157    24813185.657
     -4347.625       -3387.760
   1884698.82045   1387428.72544  25297078.5874   25297082.2904
     -1517.2504      -1182.2734
  -5902981.08346  -4495122.21746  23262144.0484   23262146.6264
     -2275.3594      -1773.0074
  20516961.61545  15999341.54244  24602741.4934   24602743.1574
     -3882.5784      -3025.3864
 -13108191.37247 -10103687.70647  22164750.5244   22164752.8684
       521.0004        405.9744
  -8064791.57247  -6162656.04846  22256332.5794   22256334.9114
      -837.9534       -652.9504
  -2826315.23345  -2887287.90245  24104357.6184   24104359.7984
        -9.0784         -7.0744
  13966789.86646  10917865.83946  23755448.2904   23755451.7704
     -2620.7814      -2042.1674
 96  8 31 21 40  0.0050000  0  8G28G 9G 3G17G 1G21G31G23
  18268080.651 4  14234856.544 5  24838023.099    24838019.384
     -4352.172       -3391.303
   1930483.39945   1423105.03943  25305790.7824   25305792.7514
     -1534.7974      -1195.9464
  -5834450.47946  -4441721.76946  23275184.7904   23275188.0484
     -2293.2814      -1786.9724
  20633571.22145  16090206.06845  24624930.5954   24624933.3954
     -3891.1254      -3032.0454
 -13123576.29847 -10115675.93447  22161823.1884   22161825.4624
       504.5164        393.1294
  -8039537.52547  -6142977.56746  22261138.7124   22261141.0324
      -845.5474       -658.8684
  -2825749.91145  -2886847.37745  24104465.1184   24104467.3334
       -28.4534        -22.1714
  14045492.98746  10979192.94846  23770424.9624   23770428.1614
     -2625.9694      -2046.2094
 96  8 31 21 40 30.0050000  0  8G28G 9G 3G17G 1G21G31G23
  18398714.822 4  14336649.280 5  24862882.114    24862878.321
     -4356.781       -3394.894
   1976785.12045   1459184.29441  25314601.4314   25314604.1264
     -1552.0314      -1209.3754
  -5765378.58746  -4387899.54446  23288328.3064   23288331.2004
     -2311.4694      -1801.1444
  20750427.84145  16181263.09145  24647168.1574   24647172.2594
     -3899.3594      -3038.4624
 -13138454.45247 -10127269.27347  22158991.4384   22158993.8994
       487.2034        379.6394
  -8014063.92047  -6123128.00646  22265985.7284   22265988.0364
      -852.6414       -664.3954
  -2824606.24546  -2885956.22145  24104683.3844   24104685.9624
       -47.7814        -37.2324
  14124339.21346  11040631.54246  23785429.9384   23785432.2124
     -2630.2344      -2049.5334
 96  8 31 21 41  0.0050000  0  8G28G 9G 3G17G 1G21G31G23
  18529484.151 4  14438547.341 5  24887766.782    24887763.337
     -4361.156       -3398.304
   2023613.40345   1495673.91243  25323513.6654   25323515.9854
     -1569.9694      -1223.3524
  -5695767.34146  -4333657.03846  23301575.1034   23301578.0914
     -2329.1874      -1814.9514
  20867533.16645  16272513.90145  24669452.5634   24669457.4034
     -3907.8124      -3045.0494
 -13152803.85147 -10138450.60047  22156260.9934   22156263.3724
       469.4844        365.8324
  -7988381.86047  -6103116.00946  22270872.6734   22270875.2744
      -859.5944       -669.8134
  -2822885.28446  -2884615.21345  24105011.3294   24105013.5204
       -66.8594        -52.0984
  14203293.90046  11102154.65646  23800452.9314   23800456.1184
     -2633.3124      -2051.9324
 96  8 31 21 41 30.0050000  0  8G28G 9G 3G17G 1G21G31G23
  18660381.331 3  14540545.027 5  24912676.188    24912671.720
     -4365.125       -3401.396
   2070981.70645   1532584.26143  25332526.2904   25332530.2634
     -1587.7814      -1237.2324
  -5625625.17346  -4279000.82746  23314923.5484   23314926.1034
     -2346.8124      -1828.6854
  20984901.37645  16363969.57345  24691787.6734   24691792.6424
     -3916.7504      -3052.0134
 -13166626.42647 -10149221.40847  22153630.8374   22153633.0524
       452.1254        352.3054
  -7962489.80447  -6082940.38146  22275799.8534   22275802.1494
      -866.5314       -675.2194
  -2820591.44645  -2882827.81745  24105446.7744   24105449.3994
       -85.9064        -66.9404
  14282329.19946  11163740.58846  23815493.2514   23815496.5204
     -2635.5784      -2053.6974
 96  8 31 21 42  0.0050000  0  8G28G 9G 3G17G 1G21G31G23
  18791404.615 3  14642640.969 5  24937608.974    24937605.337
     -4369.734       -3404.988
   2118893.87345   1569918.46743  25341643.7674   25341646.0404
     -1606.4694      -1251.7944
  -5554945.50346  -4223925.78346  23328373.3684   23328375.8294
     -2365.1094      -1842.9424
  21102557.17645  16455649.33845  24714176.5794   24714181.5364
     -3926.7974      -3059.8424
 -13179912.50647 -10159574.17547  22151102.3294   22151104.4384
       433.6564        337.9144
  -7936370.65247  -6062587.79147  22280770.2354   22280772.5914
      -874.6874       -681.5754
  -2817723.09445  -2880592.74245  24105992.6884   24105994.9974
      -105.2344        -82.0014
  14361450.19846  11225393.31046  23830549.4154   23830551.8534
     -2639.1414      -2056.4734
 96  8 31 21 42 30.0050000  0  8G28G 9G 3G17G 1G21G31G23
  18922547.860 3  14744830.391 5  24962564.978    24962561.337
     -4370.891       -3405.889
   2167354.80345   1607680.23145  25350865.8294   25350868.8884
     -1622.0624      -1263.9454
  -5483740.01346  -4168441.01546  23341922.9624   23341925.4464
     -2379.5784      -1854.2174
  21220494.88245  16547548.79345  24736619.5174   24736623.0444
     -3933.6564      -3065.1874
 -13192673.18347 -10169517.52747  22148673.8604   22148676.2044
       419.3914        326.7984
  -7910034.61447  -6042066.20746  22285782.0564   22285784.3294
      -878.7664       -684.7524
  -2814287.68745  -2877915.80145  24106646.5714   24106650.5094
      -121.6094        -94.7614
  14440660.18346  11287115.35646  23845622.7204   23845625.5674
     -2639.4224      -2056.6924
 96  8 31 21 43  0.0050000  0  8G28G 9G 3G17G 1G21G31G23
  19053743.203 3  14847060.411 5  24987530.907    24987526.399
     -4375.250       -3409.286
   2216310.59745   1645827.58944  25360181.5174   25360184.6454
     -1641.2974      -1278.9334
  -5412081.02846  -4112602.86946  23355559.4854   23355562.2514
     -2397.5004      -1868.1824
  21338663.04145  16639627.75245  24759105.7594   24759109.2394
     -3943.9064      -3073.1744
 -13204996.04947 -10179119.73447  22146329.2984   22146331.5714
       402.4694        313.6124
  -7883552.69847  -6021430.95147  22290821.2514   22290823.3844
      -886.6254       -690.8774
  -2810337.42245  -2874837.68245  24107398.4234   24107401.2704
      -141.5314       -110.2844
  14519909.57446  11348868.10846  23860703.5714   23860706.3024
     -2643.7344      -2060.0534
 96  8 31 21 43 30.0050000  0  8G28G 9G 3G17G 1G21G31G23
  19185061.368 3  14949386.136 5  25012519.634    25012515.399
     -4378.969       -3412.183
   2265826.04045   1684411.08943  25369603.8534   25369606.0674
     -1659.4224      -1293.0564
  -5339884.75246  -4056346.05746  23369297.6424   23369300.3134
     -2415.2974      -1882.0504
  21457124.82345  16731935.57245  24781648.1884   24781651.1184
     -3953.0474      -3080.2964
 -13216820.34247 -10188333.45047  22144079.1964   22144081.6694
       386.0474        300.8164
  -7856839.19747  -6000615.23847  22295905.2124   22295907.5564
      -893.9534       -696.5874
  -2805790.28345  -2871294.45445  24108263.9384   24108266.5404
      -161.2974       -125.6864
  14599290.61246  11410723.44745  23875808.7824   23875812.2864
     -2648.0944      -2063.4504
 96  8 31 21 44  0.0050000  0  8G28G 9G 3G17G 1G21G31G23
  19316492.263 3  15051799.704 5  25037530.313    25037526.188
     -4383.078       -3415.386
   2315887.44045   1723419.95843  25379129.8604   25379132.2744
     -1677.9374      -1307.4844
  -5267157.33546  -3999675.36846  23383137.0244   23383139.5094
     -2433.2344      -1896.0274
  21575849.74345  16824448.43345  24804240.9154   24804244.9234
     -3961.7664      -3087.0904
 -13228149.77447 -10197161.55347  22141923.2984   22141925.5714
       369.2664        287.7394
  -7829908.22847  -5979630.06846  22301029.1814   22301031.2314
      -901.3444       -702.3464
  -2800650.03345  -2867289.06245  24109241.5564   24109243.9934
      -181.3754       -141.3314
  14678803.15646  11472681.25946  23890940.8064   23890942.7394
     -2652.6874      -2067.0294
 96  8 31 21 44 30.0050000  0  8G28G 9G 3G17G 1G21G31G23
  19448048.153 3  15154310.656 5  25062564.458    25062561.774
     -4387.109       -3418.527
   2366504.59445   1762861.86443  25388762.7674   25388766.9624
     -1696.3284      -1321.8144
  -5193891.25146  -3942584.93646  23397079.6884   23397082.1964
     -2450.9844      -1909.8584
  21694832.29045  16917162.00145  24826881.8214   24826887.3884
     -3970.2344      -3093.6894
 -13238969.11247 -10205592.18347  22139864.3844   22139866.4464
       352.0784        274.3474
  -7802758.95247  -5958474.78446  22306196.0634   22306197.9854
      -908.5624       -707.9714
  -2794901.03845  -2862809.32645  24110335.7514   24110338.3534
      -201.7504       -157.2084
  14758449.42646  11534743.25146  23906096.3214   23906099.8954
     -2656.7814      -2070.2194
 96  8 31 21 45  0.0050000  0  8G28G 9G 3G17G 1G21G31G23
  19579717.596 3  15256910.088 5  25087620.626    25087617.079
     -4391.078       -3421.619
   2417664.76145   1802726.95943  25398498.5094   25398501.9194
     -1714.6254      -1336.0714
  -5120098.02646  -3885083.74746  23411122.0484   23411124.7554
     -2468.7504      -1923.7014
  21814056.89745  17010064.24145  24849570.9384   24849574.9584
     -3978.2034      -3099.8994
 -13249268.55147 -10213617.69047  22137904.7204   22137906.9234
       334.3594        260.5404
  -7775384.32047  -5937143.90646  22311405.1264   22311407.2704
      -916.6564       -714.2784
  -2788547.82445  -2857858.78245  24111544.4784   24111546.6224
      -221.9844       -172.9754
  14838206.81346  11596891.89545  23921273.6884   23921275.7864
     -2660.4374      -2073.0684
 96  8 31 21 45 30.0050000  0  8G28G 9G 3G17G 1G21G31G23
  19711497.616 3  15359595.693 5  25112697.895    25112693.907
     -4394.281       -3424.115
   2469369.91845   1843016.71143  25408337.5794   25408339.5604
     -1732.6254      -1350.0974
  -5045789.47346  -3827181.00246  23425262.5874   23425265.3994
     -2485.1414      -1936.4734
  21933514.84045  17103148.25445  24872302.6964   24872307.0564
     -3985.7664      -3105.7914
 -13259043.28147 -10221234.33447  22136044.3844   22136046.5284
       317.2814        247.2324
  -7747780.44547  -5915634.39146  22316657.7354   22316659.8684
      -923.5784       -719.6714
  -2781597.80245  -2852443.16645  24112867.3374   24112869.6814
      -241.4534       -188.1454
  14918064.16146  11659118.34045  23936471.1574   23936473.2314
     -2663.3754      -2075.3574
